GFSSW_prec_cloud_006.txt.gz
Cloud_Cover
9 7 10 1 0 0 0 0 0 0 0 0 0 0 0 0 2 0 0 0 0 0 29 0 0 0 0 0 36 100 98 100 100 99 20 1 2 3 81 25 5 85 0 7 63
1 2 0 0 0 0 0 0 0 0 0 0 0 0 0 1 0 0 0 0 0 0 0 0 0 0 0 0 54 85 22 85 95 31 84 2 2 3 1 0 85 8 14 0 50
6 1 0 0 0 0 0 0 0 0 0 0 0 0 0 1 0 0 0 0 0 0 0 0 0 0 0 0 75 94 100 94 52 28 48 82 1 0 7 3 3 24 10 0 57
0 0 0 0 0 0 0 0 0 0 0 0 0 0 0 0 0 0 0 0 0 0 0 0 0 0 0 0 12 91 81 92 100 22 15 54 13 4 6 75 2 0 0 0 0
0 0 0 0 0 0 0 0 0 0 0 0 0 2 0 0 0 0 0 0 0 0 0 0 0 0 0 0 1 34 82 44 99 5 10 100 6 7 8 72 3 0 0 0 0
0 0 0 0 0 0 0 0 0 0 0 0 1 23 0 0 0 0 0 0 0 0 0 0 0 0 0 0 1 85 47 56 33 6 15 79 41 1 2 4 1 1 0 0 0
0 0 0 0 0 0 0 0 0 0 0 0 29 1 0 0 0 0 0 0 0 0 0 0 0 0 0 0 0 35 99 33 2 3 7 13 95 0 2 2 5 5 0 5 2
0 0 0 0 0 0 0 0 0 0 4 41 58 0 0 0 0 0 0 0 0 0 0 0 0 0 0 0 0 0 20 34 36 17 0 0 81 0 4 0 1 0 4 0 0
0 0 0 0 0 0 0 0 0 0 56 3 3 0 0 0 0 0 0 0 0 0 0 0 0 0 0 0 0 0 3 5 100 92 56 0 92 100 25 1 2 0 0 0 0
0 0 0 0 0 0 0 0 0 14 20 0 0 0 0 0 0 0 0 0 0 0 0 0 0 0 0 0 0 0 5 16 68 40 97 100 100 100 32 42 1 0 0 0 0
0 0 0 0 0 0 0 0 0 0 0 0 0 0 0 0 0 0 0 0 0 0 0 0 0 0 0 0 0 0 64 14 100 77 100 100 100 100 10 8 6 0 0 0 0
0 0 0 0 0 0 0 0 0 0 0 0 0 0 0 0 0 0 0 0 0 0 0 0 0 0 0 0 0 0 16 27 100 98 100 100 8 0 36 2 0 0 0 0 0
0 0 0 0 0 0 0 0 0 0 0 0 0 0 0 0 0 0 0 0 0 0 0 0 0 0 0 0 0 0 0 21 86 100 68 99 31 100 100 7 0 0 0 0 0
0 0 0 0 0 0 0 0 0 0 0 0 0 0 0 0 0 0 0 0 0 0 0 0 0 0 0 0 0 0 0 3 24 100 62 91 29 40 97 70 0 0 0 0 0
0 0 5 5 0 0 4 0 0 0 0 0 0 0 0 0 0 0 0 0 0 0 0 0 0 0 0 5 0 0 0 0 5 98 41 42 11 77 100 98 42 2 0 0 0
5 5 13 5 23 4 5 5 0 0 0 0 0 5 0 0 0 0 0 0 0 0 0 0 0 0 0 1 0 0 0 0 2 19 89 100 26 100 98 100 100 98 5 0 0
19 10 5 5 3 3 16 57 5 2 5 0 0 0 0 0 0 0 0 0 0 0 0 0 0 0 0 0 0 0 0 0 0 3 1 90 57 95 76 94 82 96 100 36 0
5 5 5 13 5 5 1 1 5 100 65 2 0 0 0 0 0 0 0 0 0 0 0 0 0 0 0 0 0 1 0 0 0 0 2 0 42 52 100 24 61 95 91 99 0
0 0 5 6 5 5 4 0 5 18 87 6 2 0 0 0 1 0 0 0 0 0 0 0 0 0 0 0 0 0 0 0 0 0 3 30 61 7 15 88 74 78 93 100 99
1 4 5 5 5 37 13 65 16 64 5 4 0 1 0 0 2 0 0 0 0 0 0 0 0 0 0 0 0 0 0 0 0 0 0 2 6 99 10 2 6 28 100 100 77
0 0 0 0 5 1 2 21 5 6 5 5 4 0 2 0 0 0 0 0 0 0 0 0 0 0 0 0 0 0 0 0 0 0 0 0 4 2 68 80 73 1 68 94 12
5 4 4 60 18 34 4 0 0 2 4 5 1 5 5 5 0 0 0 0 2 0 0 5 0 0 0 0 0 0 0 0 0 0 0 0 0 5 100 100 100 64 0 0 0
15 4 0 4 6 2 5 5 11 10 23 6 17 0 5 5 0 0 0 0 5 3 6 11 5 0 0 0 0 0 0 0 0 0 0 0 0 0 95 13 90 80 12 3 18
68 29 0 9 16 39 24 10 28 31 90 100 100 100 35 5 10 5 0 2 44 5 2 89 5 0 0 0 2 0 0 0 0 0 0 0 1 2 100 7 86 85 76 31 3
85 45 88 70 2 100 100 46 73 88 100 100 100 100 100 77 15 14 30 3 5 4 0 5 5 0 0 0 4 0 0 0 0 0 0 0 0 80 5 97 86 51 96 44 0
99 76 31 71 6 35 100 100 64 47 92 100 100 100 100 25 73 72 79 99 12 4 5 5 2 5 0 0 0 74 5 2 0 0 0 0 0 0 4 9 100 100 51 5 0
94 46 97 16 76 80 2 74 100 100 100 100 100 100 100 100 96 6 38 4 0 11 36 8 0 1 0 0 27 85 0 52 16 0 0 0 0 0 38 100 90 100 100 33 91

GFSSW_prec_cloud_009.txt.gz
Cloud_Cover
5 1 0 0 0 0 0 0 0 0 0 0 0 0 0 0 0 0 0 0 0 0 20 0 0 0 0 0 24 23 90 100 52 93 100 64 5 80 66 31 0 94 44 12 0
0 0 0 0 0 0 0 0 0 0 0 0 0 0 0 2 0 0 0 0 0 0 0 0 0 0 0 0 2 51 100 97 81 31 66 24 4 0 0 1 23 1 1 0 4
0 0 0 0 0 0 0 0 0 0 0 0 0 0 0 0 0 0 0 0 0 0 0 0 0 0 0 4 19 98 84 82 96 23 96 84 5 0 0 0 0 0 0 0 0
0 0 0 0 0 0 0 0 0 0 0 0 0 0 0 0 0 0 0 0 0 0 0 0 0 0 0 4 5 41 38 69 100 51 8 98 78 1 0 2 2 0 0 0 0
0 0 0 0 0 0 0 0 0 0 0 0 0 2 0 0 0 0 0 0 0 0 0 0 0 0 0 0 4 5 54 100 86 100 64 81 94 5 2 0 1 0 0 0 0
0 0 0 0 0 0 0 0 0 0 0 0 2 41 3 0 0 0 0 0 0 0 0 0 0 0 0 0 0 0 32 92 96 58 87 2 65 100 5 0 0 0 0 1 0
0 0 0 0 0 0 0 0 0 0 0 0 33 14 0 0 0 0 0 0 0 0 0 0 0 0 0 0 0 0 5 44 100 83 51 92 37 100 10 0 0 0 0 0 54
0 0 0 0 0 0 0 0 0 0 0 2 100 0 0 0 0 0 0 0 0 0 0 0 0 0 0 0 0 0 1 5 77 4 34 4 0 68 52 0 0 5 0 0 0
0 0 0 0 0 0 0 0 0 0 0 60 24 0 0 0 0 0 0 0 0 0 0 0 0 0 0 0 0 0 0 1 3 100 5 100 7 3 99 4 0 0 0 0 0
0 0 0 0 0 0 0 0 0 0 12 1 0 0 0 0 0 0 0 0 0 0 0 0 0 0 0 0 0 0 0 0 5 16 53 25 21 5 70 46 0 0 0 0 0
0 0 0 0 0 0 0 0 0 0 0 0 0 0 0 0 0 0 0 0 0 0 0 0 0 0 0 0 0 0 0 0 5 90 99 94 46 21 88 0 0 0 0 0 0
0 0 0 0 0 0 0 0 0 0 0 0 0 0 0 0 0 0 0 0 0 0 0 0 0 0 0 0 0 0 0 0 39 100 100 60 50 89 24 1 0 0 0 0 0
0 0 0 0 0 0 0 0 0 0 0 0 0 0 0 0 0 0 0 0 0 0 0 0 0 0 0 0 0 0 0 0 32 68 100 82 28 2 60 22 48 0 0 0 0
0 0 0 0 0 0 0 0 0 0 0 5 0 0 0 0 0 0 0 0 0 0 0 0 0 0 0 0 0 0 0 0 5 80 74 94 55 75 100 20 20 72 8 0 0
0 0 0 0 0 0 0 0 0 0 0 2 3 0 0 0 0 0 0 0 0 0 0 0 0 0 0 0 0 0 0 0 3 89 61 53 99 5 100 59 100 5 16 2 0
0 0 0 0 1 0 0 0 0 0 14 2 0 46 2 0 0 0 0 0 0 0 0 0 0 0 0 0 0 0 0 0 0 73 74 5 60 4 82 11 43 6 5 5 1
0 0 0 0 0 0 0 0 3 0 74 5 0 0 3 2 0 0 0 0 0 0 0 0 0 0 0 0 0 0 0 0 0 0 0 4 5 0 98 100 17 5 10 5 5
0 0 0 0 0 0 0 0 0 6 23 3 0 2 2 5 5 0 0 0 0 0 0 0 0 0 0 0 0 0 0 0 0 0 0 0 0 0 4 84 85 19 89 18 59
0 0 0 0 0 0 0 0 0 0 0 0 0 0 0 4 67 3 0 0 0 0 0 0 0 0 0 0 0 0 0 0 0 0 0 0 0 0 9 64 45 72 30 3 94
0 0 0 0 0 0 0 0 0 0 0 0 0 0 0 0 0 0 0 0 0 0 0 0 0 0 0 0 0 0 0 0 0 0 0 0 0 0 0 4 4 0 63 48 42
0 3 0 0 0 0 0 0 0 0 0 0 0 0 0 0 0 0 0 0 0 0 0 0 0 0 0 0 0 0 0 0 0 0 0 1 0 0 0 58 90 27 5 31 94
5 8 0 0 0 5 1 0 0 0 0 0 0 0 0 0 0 0 0 5 2 0 0 0 0 0 0 0 0 0 0 0 0 0 0 0 1 0 8 34 91 10 100 100 4
28 4 0 0 4 0 29 4 1 2 64 5 7 42 5 0 0 0 0 0 0 22 3 0 0 0 5 80 40 1 0 0 0 0 0 0 1 5 2 7 86 8 97 42 98
24 24 0 0 86 100 12 1 1 15 20 55 36 87 5 3 4 0 0 0 0 0 0 3 0 2 2 5 2 4 17 0 0 0 0 0 0 0 13 20 61 94 41 100 100
36 39 83 31 6 38 100 77 36 4 3 29 91 86 99 45 5 1 2 0 0 0 5 43 0 0 2 5 2 4 2 2 0 0 0 0 0 0 0 31 84 91 85 90 99
100 90 6 6 5 32 95 100 100 60 73 3 73 64 99 99 85 100 6 0 0 0 5 21 0 0 0 13 14 0 0 0 5 2 0 0 0 0 0 3 55 100 100 25 68
100 97 100 100 5 22 5 100 97 96 100 83 97 75 97 100 100 100 89 86 5 22 86 42 0 2 0 5 6 0 0 1 0 0 0 0 0 0 0 0 0 100 38 97 87

GFSSW_prec_cloud_012.txt.gz
Cloud_Cover
0 0 0 0 0 0 0 0 0 0 0 0 0 0 0 0 0 0 0 0 0 0 0 0 0 3 3 88 95 92 5 50 95 100 100 100 100 100 51 22 0 27 0 4 0
0 0 0 0 0 0 0 0 0 0 0 0 0 0 0 4 2 0 0 0 0 0 0 0 0 0 4 4 12 100 5 6 83 68 68 100 100 3 0 0 0 0 0 0 0
0 0 0 0 0 0 0 0 0 0 0 0 0 0 0 14 0 0 0 0 0 0 0 0 0 0 0 0 4 3 7 20 96 8 63 5 5 3 0 0 0 0 0 0 0
0 0 0 0 0 0 0 0 0 0 0 0 0 0 0 5 0 0 0 0 0 0 0 0 0 0 0 0 6 4 3 73 98 100 98 40 3 5 0 0 0 0 0 0 0
0 0 0 0 0 0 0 0 0 0 0 0 0 2 1 0 0 0 0 0 0 0 0 0 0 0 0 4 39 0 5 62 100 100 90 76 16 17 5 0 0 0 0 0 0
0 0 0 0 0 0 0 0 0 0 0 0 2 38 18 0 0 0 0 0 0 0 0 0 0 0 0 0 2 6 2 24 24 65 99 89 97 11 85 0 0 0 0 0 0
0 0 0 0 0 0 0 0 0 0 0 0 12 14 0 0 0 0 0 0 0 0 0 0 0 0 0 0 0 0 0 0 4 34 91 34 10 3 17 9 0 0 0 0 0
0 0 0 0 0 0 0 0 0 0 0 0 34 6 0 0 0 0 0 0 0 0 0 0 0 0 0 0 0 0 0 0 0 8 4 81 18 60 1 59 2 0 0 0 0
0 0 0 0 0 0 0 0 0 0 0 80 27 4 0 0 0 0 0 0 0 0 0 0 0 0 0 0 0 0 0 0 0 17 98 10 61 0 0 24 0 0 0 0 0
5 5 5 5 0 0 0 0 0 0 2 2 0 0 0 0 0 0 0 0 0 0 0 0 0 0 0 0 0 0 0 0 0 2 53 3 60 5 1 4 5 0 0 0 0
2 5 5 2 0 0 0 24 0 0 0 0 0 0 0 0 0 0 0 0 0 0 0 0 0 0 0 0 0 0 0 0 0 64 23 12 5 100 5 5 11 0 0 0 0
0 0 0 0 0 0 0 0 0 0 0 0 0 0 0 0 0 0 0 0 0 0 0 0 0 0 0 0 0 0 0 0 0 4 5 88 12 62 5 51 5 2 0 0 0
0 0 0 0 0 0 0 0 0 0 0 0 0 0 0 0 0 0 0 0 0 0 0 0 0 0 0 0 0 0 0 0 0 5 4 8 98 58 45 26 5 0 1 0 0
0 0 0 10 0 0 0 0 0 0 0 0 0 0 0 0 0 0 0 0 0 0 0 0 0 0 0 0 0 0 0 0 4 4 5 51 95 58 62 20 12 1 0 0 0
0 0 0 4 20 0 0 0 0 0 0 5 0 0 0 0 0 0 0 0 0 0 0 0 0 0 0 0 0 0 0 0 3 34 51 10 51 1 99 4 5 2 1 32 0
0 0 0 16 0 0 0 0 0 0 0 58 0 0 0 0 0 0 0 0 0 0 0 0 0 0 0 0 0 0 0 0 3 59 38 1 3 0 0 2 4 5 5 5 1
0 0 0 0 2 0 0 0 0 0 0 1 0 0 5 2 0 0 0 0 0 0 0 0 0 0 0 0 0 0 0 0 0 2 5 0 0 0 0 2 2 65 100 62 8
0 0 0 0 0 0 0 0 0 0 0 0 0 0 5 13 4 0 0 0 0 0 0 0 0 0 0 0 0 0 0 0 0 0 0 0 0 0 0 0 5 4 5 4 2
0 0 0 0 0 0 0 0 0 0 0 0 0 0 0 0 5 0 0 0 0 0 0 0 0 0 0 0 0 0 0 0 0 0 0 0 0 0 0 5 5 3 5 1 0
40 23 0 0 0 0 0 0 0 0 0 0 0 0 0 0 0 0 1 0 0 0 0 0 0 0 0 0 0 0 0 0 0 0 0 0 0 4 0 0 5 5 0 0 3
43 2 0 0 0 0 0 0 0 0 0 0 0 0 0 0 0 0 0 0 0 0 0 0 0 0 0 0 0 0 0 0 0 0 0 0 0 0 0 0 0 0 5 5 0
2 5 0 0 0 0 0 0 0 0 0 0 0 0 0 0 0 0 5 5 1 0 0 0 0 0 0 0 0 0 0 0 0 0 0 0 0 0 0 0 3 34 5 5 82
55 3 0 1 18 16 66 84 98 100 28 0 0 0 0 0 0 0 0 5 0 3 4 2 2 2 5 5 6 0 4 0 0 0 0 0 0 0 0 0 5 0 4 3 89
32 56 0 63 100 91 18 100 100 100 100 95 4 1 2 0 1 0 0 5 1 0 0 0 5 7 95 50 7 1 1 2 1 20 5 1 0 0 0 0 0 0 0 35 32
52 10 5 8 82 100 100 100 100 95 100 56 85 20 2 4 2 2 0 0 0 0 0 0 0 5 52 83 5 5 69 5 5 14 3 100 0 0 0 0 0 0 0 14 48
92 97 89 89 5 19 100 100 100 97 14 3 32 9 7 5 5 5 2 0 4 2 0 0 0 0 5 10 5 5 37 6 5 75 7 100 17 5 0 0 0 0 5 0 5
13 66 100 100 98 17 5 100 100 97 100 100 68 83 6 1 4 5 5 6 14 98 82 13 0 0 0 0 0 0 36 47 73 18 27 36 90 5 0 0 0 0 1 0 5

GFSSW_prec_cloud_015.txt.gz
Cloud_Cover
1 0 0 0 0 0 0 0 0 0 0 0 0 0 4 8 8 0 0 0 0 0 0 3 0 0 5 6 54 34 15 100 100 100 100 100 100 100 100 100 100 100 6 0 0
1 1 0 0 0 0 0 0 0 0 0 0 0 0 6 8 10 0 0 0 0 0 0 0 1 0 33 5 24 29 10 72 100 100 100 100 100 100 100 100 100 100 7 0 0
0 0 0 0 0 0 0 0 0 0 0 0 0 0 3 23 0 0 0 0 0 0 0 0 0 0 0 0 0 78 31 2 9 27 5 5 7 34 80 86 76 22 0 0 0
0 0 0 0 0 0 0 0 0 0 0 0 0 0 0 26 0 0 0 0 0 0 0 0 0 0 0 0 0 0 7 50 48 99 72 26 4 4 4 0 0 0 0 0 0
0 0 0 0 0 0 0 0 0 0 0 0 0 0 1 0 0 0 0 0 0 0 0 0 0 0 0 0 0 6 5 16 5 30 27 58 5 5 48 2 0 0 0 0 0
0 0 0 0 0 0 0 0 0 0 0 0 2 9 20 0 0 0 0 0 0 0 0 0 0 0 0 1 5 61 6 5 5 77 57 17 14 8 17 32 5 0 0 0 0
0 0 0 0 0 0 0 0 0 0 0 11 22 16 0 0 0 0 0 0 0 0 0 0 0 0 0 1 17 5 5 5 5 56 5 12 4 24 28 95 100 0 0 0 0
0 0 0 0 0 0 0 0 0 0 0 3 16 6 0 0 0 0 0 0 0 0 0 0 0 0 0 0 1 1 4 5 4 3 5 0 0 0 13 18 5 6 0 0 0
0 0 0 0 0 0 0 0 0 0 2 4 23 24 0 0 0 0 0 0 0 0 0 0 0 0 0 0 0 0 0 0 2 0 0 0 0 2 9 31 25 0 0 0 0
4 0 0 0 0 0 0 0 0 46 43 16 0 3 0 0 0 0 0 0 0 0 0 0 0 0 0 0 0 0 0 5 4 0 0 6 1 21 78 100 69 0 0 0 0
2 0 0 0 0 0 0 0 0 0 0 0 0 0 0 0 0 0 0 0 0 0 0 0 0 0 0 0 0 0 0 0 0 2 0 45 0 0 64 100 99 5 0 0 0
0 0 0 0 0 0 0 0 0 0 0 0 0 0 0 0 0 0 0 0 0 0 0 0 0 0 0 0 0 0 0 0 3 6 0 1 4 1 5 100 90 5 2 0 0
0 0 0 2 0 0 0 0 0 0 0 0 0 0 0 0 0 0 0 0 0 0 0 0 0 0 0 0 0 0 0 0 0 5 3 5 2 2 1 64 20 5 33 0 0
0 0 0 13 0 0 0 0 0 0 0 0 0 0 0 0 0 0 0 0 0 0 0 0 0 0 0 0 0 0 0 0 3 24 41 0 0 0 2 5 0 5 3 0 0
0 0 0 2 17 18 0 0 0 0 0 0 0 0 0 0 0 0 0 0 0 0 0 0 0 0 0 0 0 0 0 0 0 5 5 0 0 0 0 0 3 5 5 100 7
0 0 0 21 14 1 0 0 0 0 0 0 0 0 0 0 0 0 0 0 0 0 0 0 0 0 0 0 0 0 0 0 0 5 2 0 0 0 0 0 0 0 0 5 44
0 0 0 0 2 0 0 0 0 0 0 0 0 0 0 0 0 0 0 0 0 0 0 0 0 0 0 0 0 0 0 0 0 0 8 0 0 0 0 0 0 0 5 1 4
0 0 0 0 0 0 0 0 0 0 0 0 0 5 5 0 0 0 0 0 0 0 0 0 0 0 0 0 0 0 0 0 0 0 0 0 1 0 0 0 0 4 21 5 39
0 0 0 0 0 0 0 0 0 0 0 0 0 0 2 4 0 0 0 0 0 0 0 0 0 0 0 0 0 0 0 0 0 0 0 0 2 0 0 0 0 5 5 79 100
23 98 3 0 0 0 0 0 0 0 0 0 0 0 0 0 0 0 0 0 0 0 0 0 0 0 0 0 0 0 0 0 0 0 0 0 0 0 0 0 0 2 0 0 1
0 4 0 0 0 0 0 0 0 0 0 0 0 0 0 0 0 0 0 0 0 0 0 0 0 0 0 0 0 0 0 0 0 0 0 0 0 0 0 0 0 0 0 0 0
11 6 0 0 0 1 80 56 5 1 0 0 0 0 0 0 0 0 0 0 0 0 0 0 4 4 0 0 0 0 0 0 0 0 0 0 0 0 0 0 0 0 0 0 0
59 64 0 0 20 52 92 100 99 96 3 2 1 0 0 0 0 0 0 0 0 0 0 0 0 5 0 0 0 1 0 3 7 0 4 0 0 0 0 0 0 0 1 1 0
62 62 1 52 46 93 31 84 100 97 47 36 30 5 3 1 1 0 0 0 0 0 0 0 0 5 4 0 0 3 5 4 2 5 34 40 3 0 0 0 0 0 0 0 2
18 9 72 46 90 83 47 53 93 100 100 98 100 94 6 5 1 5 0 0 0 0 0 0 0 2 5 0 7 6 5 5 5 95 14 100 29 2 0 0 0 0 0 0 0
89 53 79 94 100 98 74 5 100 100 99 100 100 86 84 14 5 5 4 5 0 0 0 0 0 0 5 8 2 4 5 84 100 100 53 100 10 100 0 0 0 0 0 0 0
88 41 100 100 100 78 100 32 13 100 100 95 100 27 100 21 4 4 0 5 3 4 1 0 0 0 0 0 1 0 82 98 58 53 100 100 92 67 4 0 0 0 0 0 0

GFSSW_prec_cloud_018.txt.gz
Cloud_Cover
48 0 0 2 2 4 1 3 0 0 0 0 0 0 7 6 9 0 0 0 0 0 23 33 2 0 1 65 13 5 82 47 3 43 17 68 99 100 100 100 100 100 100 100 100
0 0 0 0 0 0 7 13 4 0 0 0 0 6 3 39 35 0 0 0 0 0 36 3 2 0 6 22 9 19 94 78 3 0 0 93 100 84 78 100 100 100 100 100 100
0 0 0 0 0 0 0 0 0 0 0 0 1 5 4 47 16 0 0 0 0 0 0 0 0 0 0 17 16 5 5 5 5 1 5 22 100 61 10 7 1 4 76 99 100
0 0 0 0 0 0 0 0 0 0 0 2 0 0 0 52 0 0 0 0 0 0 0 0 0 2 0 0 1 5 5 5 4 7 5 4 5 89 72 3 1 0 0 0 0
0 0 0 0 0 0 0 0 0 0 0 8 7 18 1 0 0 0 0 0 0 0 0 0 0 0 0 0 0 3 9 62 5 18 18 0 3 5 8 5 5 3 0 0 0
0 0 0 0 0 0 0 0 8 10 0 9 42 11 17 0 0 0 0 0 0 0 0 0 0 0 0 0 0 0 5 14 5 25 95 0 0 0 3 5 71 86 0 0 0
0 0 18 0 0 0 0 0 1 37 21 23 95 35 0 0 0 0 0 0 0 0 0 0 0 0 0 0 0 4 2 5 5 88 99 3 0 0 4 5 69 84 0 0 0
0 0 0 0 0 0 0 0 0 14 15 66 100 22 0 0 0 0 0 0 0 0 0 0 0 0 0 0 0 4 0 2 57 86 24 0 0 0 4 5 7 5 5 0 0
0 0 0 0 0 0 0 0 17 52 15 16 26 29 0 0 0 0 0 0 0 0 0 0 0 0 0 0 0 0 0 4 2 3 2 0 0 5 5 9 21 4 0 0 0
0 0 0 0 0 0 0 0 14 52 61 38 22 22 0 0 0 0 0 0 0 0 0 0 0 0 0 0 0 0 0 0 0 0 0 0 0 5 32 6 29 78 2 0 0
0 0 0 0 0 0 0 0 0 0 0 0 0 0 0 0 0 0 0 0 0 0 0 0 0 0 0 0 0 0 0 0 0 4 0 0 80 0 14 42 33 79 5 1 0
4 0 0 0 0 0 0 0 0 0 0 0 0 0 0 0 0 0 0 0 0 0 0 0 0 0 0 0 0 0 0 0 0 1 0 0 17 5 1 18 13 100 6 85 0
0 0 0 0 0 0 0 0 0 0 0 0 0 0 0 0 0 0 0 0 0 0 0 0 0 0 0 0 0 0 0 0 0 5 3 0 0 5 5 72 8 16 100 8 0
0 0 0 0 0 1 0 0 0 0 0 0 0 0 0 0 0 0 0 0 0 0 0 0 0 0 0 0 0 0 0 0 0 3 5 3 0 0 4 3 5 8 73 1 0
0 0 0 0 10 6 0 0 0 0 0 0 0 0 0 0 0 0 0 0 0 0 0 0 0 0 0 0 0 0 0 0 0 0 2 4 0 0 0 0 2 5 0 2 0
0 0 1 13 19 6 0 0 0 0 0 0 0 0 0 0 0 0 0 0 0 0 0 0 0 0 0 0 0 0 0 0 0 0 4 0 0 0 0 7 14 5 2 45 2
0 0 13 0 0 0 0 0 0 0 0 0 0 0 0 0 0 0 0 0 0 0 0 0 0 0 0 0 0 0 0 0 0 0 10 0 1 0 0 55 20 1 0 3 4
0 0 0 0 0 0 0 0 0 0 0 0 0 0 0 0 0 0 0 0 0 0 0 0 0 0 0 0 0 0 0 0 0 0 0 0 65 0 0 10 7 0 5 5 5
0 2 0 0 0 0 0 0 0 0 0 0 0 0 0 0 0 0 0 0 0 0 0 0 0 0 0 0 0 0 0 0 0 0 0 0 1 7 1 0 5 4 7 4 0
21 26 0 0 0 0 0 0 0 0 0 0 0 0 0 0 0 0 0 0 0 0 0 0 0 0 0 0 0 0 0 0 0 0 0 0 0 6 5 1 0 4 8 1 0
0 3 0 0 0 0 2 0 0 0 0 0 0 0 0 0 0 0 0 0 0 0 0 0 0 0 0 0 0 0 0 0 0 0 0 0 0 0 0 0 0 0 4 39 4
73 14 0 0 3 16 56 57 38 1 0 0 0 0 0 0 0 0 0 0 0 0 0 0 0 0 0 0 0 0 0 0 0 0 0 0 0 0 0 0 0 0 0 2 83
100 94 0 3 5 5 32 98 70 64 8 5 5 1 0 0 0 0 0 0 0 0 0 0 0 0 0 0 0 0 0 0 1 0 0 0 5 0 0 0 0 0 0 3 0
94 73 2 77 5 44 74 3 63 100 100 100 54 23 4 1 0 0 0 0 0 0 0 0 0 0 0 0 0 0 0 0 4 0 3 16 73 0 0 0 0 0 0 0 5
7 18 59 31 40 100 40 5 57 36 38 100 100 92 5 4 3 2 0 0 0 0 0 0 0 0 0 0 0 0 0 0 73 66 1 100 6 0 0 0 0 0 0 0 0
50 87 96 87 81 61 42 33 32 41 33 38 100 100 82 5 5 5 5 5 1 0 0 0 0 0 0 0 0 4 5 0 4 68 11 69 3 0 0 0 0 0 0 0 0
67 95 100 100 100 93 71 27 81 59 27 100 100 99 100 99 15 5 5 3 4 2 1 0 0 0 0 0 0 4 31 31 9 5 48 90 57 5 0 0 0 0 0 0 0

GFSSW_prec_cloud_021.txt.gz
Cloud_Cover
0 0 0 0 0 0 0 0 0 0 0 0 0 0 11 8 2 0 0 0 0 0 0 0 0 0 4 7 6 52 88 4 4 5 2 2 4 4 16 32 66 50 72 99 100
0 0 0 0 0 0 0 0 0 0 0 0 0 6 11 18 0 0 0 0 0 0 0 0 0 0 4 5 5 5 5 5 3 0 1 4 2 1 2 9 48 14 5 3 9
0 0 0 0 0 0 1 2 0 0 0 0 6 13 4 34 0 0 0 0 0 0 0 0 0 0 0 70 19 56 5 5 1 0 5 5 5 5 5 3 28 4 0 0 0
0 0 0 0 0 0 0 0 0 1 6 10 16 10 0 23 0 0 0 0 0 0 0 0 0 0 0 0 5 50 14 5 2 2 0 5 5 5 6 5 0 0 0 0 0
0 0 0 0 0 0 0 0 0 2 15 17 14 63 0 0 0 0 0 0 0 0 0 0 0 0 0 0 0 5 5 4 0 0 0 5 2 3 26 72 5 0 0 0 0
0 0 0 0 0 0 0 0 0 0 1 29 75 87 3 0 0 0 0 0 0 0 0 0 0 0 0 0 0 4 5 0 3 2 5 4 0 0 1 6 65 5 0 0 0
0 0 0 0 0 0 0 0 0 1 2 36 100 53 0 0 0 0 0 0 0 0 0 0 0 0 0 0 0 0 4 2 3 5 5 3 0 5 0 0 5 69 5 8 5
0 0 0 0 0 0 0 0 12 43 26 79 100 26 0 0 0 0 0 0 0 0 0 0 0 0 0 0 0 0 0 0 3 73 24 6 0 5 5 5 3 12 6 4 0
0 0 0 0 0 0 0 0 100 21 62 97 51 12 0 0 0 0 0 0 0 0 0 0 0 0 0 0 0 0 0 0 4 6 92 81 3 5 5 5 0 0 0 0 0
0 0 0 0 0 0 0 0 98 59 78 92 7 1 0 0 0 0 0 0 0 0 0 0 0 0 0 0 0 0 0 0 0 5 99 13 1 5 5 5 5 5 3 0 0
0 0 0 0 0 0 0 0 0 0 0 0 0 0 0 0 0 0 0 0 0 0 0 0 0 0 0 0 0 0 0 0 5 18 26 5 0 5 5 5 5 5 87 62 0
0 0 0 0 0 0 0 0 0 0 0 0 0 0 0 0 0 0 0 0 0 0 0 0 0 0 0 0 0 0 0 0 3 0 0 0 1 5 2 5 25 5 24 99 5
0 0 0 0 0 0 0 0 0 0 0 0 0 0 0 0 0 0 0 0 0 0 0 0 0 0 0 0 0 0 0 0 0 0 0 0 0 5 1 5 5 56 6 51 11
0 0 0 0 0 0 0 0 0 0 0 0 0 0 0 0 0 0 0 0 0 0 0 0 0 0 0 0 0 0 0 0 0 0 0 0 0 0 5 5 1 82 0 3 4
0 0 0 0 0 0 0 0 0 0 0 0 0 0 0 0 0 0 0 0 0 0 0 0 0 0 0 0 0 0 0 0 0 0 1 0 0 0 0 4 0 5 0 0 0
0 0 0 0 2 0 0 0 0 0 0 0 0 0 0 0 0 0 0 0 0 0 0 0 0 0 0 0 0 0 0 0 0 0 1 0 0 0 0 2 5 5 4 0 0
0 0 0 0 0 0 0 0 0 0 0 0 0 0 0 0 0 0 0 0 0 0 0 0 0 0 0 0 0 0 0 0 0 0 0 0 0 0 0 1 4 5 0 2 0
0 0 0 0 0 0 0 0 0 0 0 0 0 0 0 0 0 0 0 0 0 0 0 0 0 0 0 0 0 0 0 0 0 0 0 0 0 0 0 3 5 36 16 1 0
0 0 0 0 0 0 0 0 0 0 0 0 0 0 0 0 0 0 0 0 0 0 0 0 0 0 0 0 0 0 0 0 0 0 0 0 0 0 0 0 44 5 5 0 0
0 0 0 0 0 0 0 0 0 0 0 0 0 0 0 0 0 0 0 0 0 0 0 0 0 0 0 0 0 0 0 0 0 0 0 0 0 0 0 0 2 5 1 1 0
0 0 0 0 0 0 1 1 2 4 0 0 0 0 0 0 0 0 0 0 0 0 0 0 0 0 0 0 0 0 0 0 0 0 0 0 0 0 0 0 0 0 1 5 4
68 0 0 0 0 0 3 5 0 2 4 1 0 0 0 0 0 0 0 0 0 0 0 0 0 0 0 0 0 0 0 0 0 0 0 0 0 0 0 0 0 2 41 80 7
100 18 0 2 33 42 16 4 3 58 38 19 4 4 0 0 0 0 0 0 0 0 0 0 0 0 0 0 0 0 0 0 0 0 0 0 0 0 0 0 0 0 0 5 54
35 4 3 2 5 96 91 5 24 5 97 100 96 33 4 5 0 0 0 0 0 0 0 0 0 0 0 0 0 0 0 0 0 0 1 2 4 0 0 0 0 0 0 0 2
5 12 57 12 7 8 29 5 69 72 41 81 100 100 90 10 4 0 2 0 0 0 0 0 0 0 0 0 0 0 0 0 0 1 10 99 0 0 0 0 0 0 0 0 0
18 100 100 100 79 45 7 66 84 78 79 69 100 100 100 100 97 42 3 5 1 0 0 0 0 0 0 0 0 0 0 0 0 0 70 97 0 0 0 0 0 0 0 0 0
88 49 100 100 23 97 65 79 81 99 28 66 100 100 100 100 100 90 7 4 2 4 1 0 0 0 0 0 0 0 0 0 0 3 19 95 33 0 0 0 0 0 0 0 0

GFSSW_prec_cloud_024.txt.gz
Cloud_Cover
0 0 0 0 0 0 2 1 3 0 0 3 0 18 16 0 0 0 0 0 0 0 0 0 0 2 5 42 17 52 39 100 66 94 4 43 58 90 86 25 3 4 1 18 25
0 0 0 0 0 0 0 0 0 0 0 11 8 7 25 1 0 0 0 0 0 0 0 0 0 0 5 5 16 98 35 82 49 4 2 0 0 1 0 0 0 0 0 8 91
0 0 0 0 0 0 0 0 0 0 3 14 11 4 0 0 0 0 0 0 0 0 0 0 0 0 0 4 5 33 38 14 1 38 3 4 5 3 0 0 0 0 0 0 0
0 0 0 0 0 0 0 0 0 0 8 12 63 2 0 0 0 0 0 0 0 0 0 0 0 0 0 1 5 5 5 4 0 1 2 1 4 5 2 1 0 0 0 0 0
0 0 0 0 0 0 0 0 0 0 4 17 24 4 0 0 0 0 0 0 0 0 0 0 0 0 0 0 0 6 5 5 0 0 2 1 0 5 5 4 2 0 0 0 0
0 0 0 0 0 0 0 0 0 0 7 40 55 52 0 0 0 0 0 0 0 0 0 0 0 0 0 0 0 5 5 5 2 0 5 0 0 1 2 5 4 2 0 0 0
0 0 0 0 0 0 0 0 0 0 46 100 92 6 0 0 0 0 0 0 0 0 0 0 0 0 0 0 0 0 0 5 1 0 0 0 3 5 0 0 5 5 0 0 0
0 0 0 0 0 0 0 0 0 2 12 100 100 0 0 0 0 0 0 0 0 0 0 0 0 0 0 0 0 0 0 0 0 5 3 6 82 8 5 2 5 5 3 0 0
0 0 0 0 0 0 0 0 98 17 100 91 10 0 0 0 0 0 0 0 0 0 0 0 0 0 0 0 0 0 0 0 3 63 57 38 25 10 5 4 0 1 4 0 0
0 0 0 0 0 0 0 0 67 32 5 18 0 0 0 0 0 0 0 0 0 0 0 0 0 0 0 0 0 0 0 0 0 5 70 7 4 28 5 5 0 0 4 0 0
0 0 0 0 0 0 0 0 0 0 0 0 0 0 0 0 0 0 0 0 0 0 0 0 0 0 0 0 0 0 0 0 0 1 11 6 5 5 5 5 3 0 5 0 4
0 0 0 0 0 1 0 0 0 0 0 0 0 0 0 0 0 0 0 0 0 0 0 0 0 0 0 0 0 0 0 0 0 5 4 7 5 5 5 4 5 0 40 15 6
0 0 0 0 0 0 0 0 0 0 0 0 0 0 0 0 0 0 0 0 0 0 0 0 0 0 0 0 0 0 0 0 0 3 1 5 4 5 5 0 5 5 9 27 1
0 0 0 0 0 0 0 0 0 0 0 0 0 0 0 0 0 0 0 0 0 0 0 0 0 0 0 0 0 0 0 0 0 2 3 3 7 59 3 5 2 5 3 4 5
0 0 0 0 0 0 0 0 0 0 0 0 0 0 0 0 0 0 0 0 0 0 0 0 0 0 0 0 0 0 0 0 0 0 2 0 0 0 1 0 0 2 5 1 0
0 0 0 0 0 0 0 0 0 0 0 0 0 0 0 0 0 0 0 0 0 0 0 0 0 0 0 0 0 0 0 0 0 0 0 0 0 0 0 0 0 0 3 4 1
0 0 8 0 0 0 0 0 0 0 0 0 0 0 0 0 0 0 0 0 0 0 0 0 0 0 0 0 0 0 0 0 0 0 0 0 0 0 0 0 0 0 5 0 4
0 15 0 0 0 0 0 0 0 0 0 0 0 0 0 0 0 0 0 0 0 0 0 0 0 0 0 0 0 0 0 0 0 0 0 0 0 0 0 0 0 5 5 0 0
0 0 0 0 0 0 0 0 0 13 45 1 0 0 0 0 0 0 0 0 0 0 0 0 0 0 0 0 0 0 0 0 0 0 0 0 0 0 0 0 0 5 2 0 0
0 0 0 0 0 0 0 0 10 81 35 0 0 0 0 0 0 0 0 0 0 0 0 0 0 0 0 0 0 0 0 0 0 0 0 0 0 0 0 0 0 2 0 0 0
0 0 0 0 0 2 12 25 5 9 17 0 100 82 89 43 0 0 0 0 0 0 0 0 0 0 0 0 0 0 0 0 0 0 0 0 0 0 0 0 0 0 0 0 0
0 0 0 0 10 5 5 5 2 52 100 67 40 92 95 100 2 0 0 0 0 0 0 0 0 0 0 0 0 0 0 0 0 0 0 0 0 0 0 0 0 0 0 0 5
4 3 3 2 11 23 77 61 63 98 46 78 54 90 93 100 95 88 96 0 0 0 0 0 0 0 0 0 0 0 0 0 16 4 0 0 0 0 0 0 0 0 0 0 0
6 5 4 70 70 100 93 90 82 100 87 96 90 26 40 35 100 100 88 0 0 0 0 0 0 0 0 0 0 0 0 0 0 5 0 2 0 0 0 0 0 0 2 0 0
77 75 72 13 30 83 100 95 100 100 100 99 87 100 100 33 100 100 100 61 0 0 0 0 0 0 0 0 0 0 0 0 0 45 4 3 0 0 0 0 0 0 0 0 0
100 66 88 28 99 99 100 100 100 100 100 88 100 100 100 100 94 100 97 95 100 4 0 0 0 0 0 0 0 0 0 0 1 100 24 46 0 0 0 0 0 0 0 0 0
100 100 97 44 72 88 99 93 96 100 78 100 99 99 100 100 100 95 57 100 22 4 0 0 0 0 0 0 0 0 0 0 2 96 31 43 6 0 0 0 0 0 0 0 0

GFSSW_prec_cloud_030.txt.gz
Cloud_Cover
0 0 0 0 0 0 0 0 0 0 0 3 3 5 3 0 0 0 0 0 0 0 0 0 0 0 0 5 23 42 100 93 73 97 100 69 44 15 100 5 51 0 0 33 99
0 0 0 0 0 0 0 0 0 0 0 5 17 9 13 3 0 0 0 0 0 0 0 0 0 0 0 0 6 50 87 83 88 83 86 10 100 4 2 7 26 6 47 61 99
0 0 0 0 0 0 0 0 0 0 0 0 6 9 0 2 0 0 0 0 0 0 0 0 0 0 0 0 2 88 99 100 76 55 91 98 78 93 49 29 32 0 10 37 76
0 0 0 0 0 0 0 0 0 0 0 0 1 13 0 0 0 0 0 0 0 0 0 0 0 0 0 0 2 85 92 100 100 51 71 100 100 100 88 100 3 0 0 8 78
0 0 0 0 0 0 0 0 0 0 0 6 11 26 1 0 0 0 0 0 0 0 0 0 0 0 0 3 16 62 73 100 88 100 22 67 83 96 47 87 0 0 5 40 30
0 0 0 0 0 0 0 0 0 0 11 86 97 70 0 0 0 0 0 0 0 0 0 0 0 0 0 0 12 59 84 100 100 100 8 5 13 0 39 26 0 0 0 8 28
0 0 0 0 0 0 0 0 0 0 2 90 100 26 0 0 0 0 0 0 0 0 0 0 0 0 0 0 1 96 100 75 70 56 52 38 80 2 90 41 0 0 0 0 2
0 0 0 0 0 0 0 0 0 0 0 11 100 1 0 0 0 0 0 0 0 0 0 0 0 0 0 0 4 17 59 67 23 20 5 8 13 100 27 88 0 0 0 0 0
0 0 0 0 0 0 0 0 0 0 0 59 25 0 0 0 0 0 0 0 0 0 0 0 0 0 0 0 3 4 5 1 54 19 8 4 25 100 5 99 1 0 0 0 0
0 0 0 0 0 0 0 0 0 30 3 0 0 0 0 0 0 0 0 0 0 0 0 0 0 0 0 0 0 3 5 4 5 99 5 5 40 5 75 72 53 0 0 0 0
0 0 0 0 0 0 0 0 0 0 0 0 0 0 0 0 0 0 0 0 0 0 0 0 0 0 0 0 0 4 5 0 5 2 93 6 84 0 15 77 100 44 5 0 0
0 0 0 0 0 0 0 0 0 0 0 0 0 0 0 0 0 0 0 0 0 0 0 0 0 0 0 0 0 0 2 3 4 94 59 81 2 26 77 100 100 4 98 2 0
0 0 0 0 0 1 0 0 0 0 0 0 0 0 0 0 0 0 0 0 0 0 0 0 0 0 0 0 0 0 0 0 5 11 100 100 83 55 18 60 83 44 6 62 0
0 0 0 0 0 0 0 0 0 0 0 0 0 0 0 0 0 0 0 0 0 0 0 0 0 0 0 0 0 0 0 0 5 74 5 33 98 2 4 86 11 35 60 98 0
0 0 0 0 0 0 0 0 0 0 0 0 0 0 0 0 0 0 0 0 0 0 0 0 0 0 0 0 0 0 0 0 0 5 84 63 52 87 6 2 22 1 0 81 11
0 0 0 0 0 0 0 0 0 0 0 0 0 0 0 0 0 0 0 0 0 0 0 0 0 0 0 0 0 0 0 0 0 0 2 1 34 16 68 1 43 4 5 4 9
0 0 0 0 0 0 0 0 0 0 0 9 0 0 0 0 0 0 0 0 0 0 0 0 0 0 0 0 0 0 0 0 0 0 0 0 3 0 13 67 98 89 11 59 1
0 0 0 0 0 0 0 0 2 11 98 0 2 0 0 0 0 0 0 0 0 0 0 0 0 0 0 0 0 0 0 0 0 0 0 0 0 0 1 95 62 100 91 65 5
0 0 0 0 0 0 1 5 7 5 49 24 80 100 86 100 2 56 0 0 0 0 0 5 0 0 0 0 0 0 0 0 0 0 0 0 0 0 0 0 75 99 100 97 5
0 0 2 0 0 1 33 30 19 100 20 100 74 100 100 100 17 31 5 2 0 0 0 0 1 0 0 0 0 0 0 0 0 0 0 0 0 0 0 0 2 2 66 82 5
0 4 13 4 16 74 98 94 94 93 80 100 95 100 100 100 93 83 5 64 96 94 1 0 0 0 0 0 0 0 0 0 0 0 0 1 0 0 0 0 0 0 0 5 8
2 76 50 5 95 85 100 93 58 14 30 97 100 100 100 100 100 100 100 100 97 21 24 0 0 0 32 0 0 0 0 0 0 0 0 6 93 3 0 0 0 0 0 2 23
39 35 99 9 88 52 35 88 45 60 70 38 45 100 100 100 100 100 100 94 14 23 100 95 0 0 5 91 4 0 0 0 0 0 0 0 0 0 0 0 0 0 1 3 5
100 84 84 100 94 98 100 99 83 84 78 97 97 100 100 100 100 100 100 100 54 78 7 40 0 0 0 0 8 0 0 0 0 0 0 0 0 0 0 0 0 0 0 0 0
60 100 100 100 94 100 100 75 93 56 100 100 22 100 100 100 100 100 100 100 100 81 5 35 0 0 5 4 100 0 0 0 0 0 0 0 0 0 0 0 0 0 0 2 0
54 100 100 100 99 100 100 96 99 52 99 94 100 96 100 100 100 100 100 100 100 15 56 5 0 2 78 18 100 100 4 0 0 0 0 0 25 0 0 0 0 0 0 0 0
88 100 100 100 84 100 100 100 100 87 62 100 100 98 76 100 100 100 100 100 100 100 76 59 95 25 3 13 66 85 91 37 0 0 0 0 25 10 0 0 0 0 0 0 0

GFSSW_prec_cloud_033.txt.gz
Cloud_Cover
0 0 0 0 0 0 0 0 0 0 0 0 2 0 11 1 0 0 0 0 0 0 0 0 0 0 1 51 51 77 92 100 100 100 100 96 78 92 12 19 0 0 0 0 0
0 0 0 0 0 0 0 0 0 0 0 2 0 0 7 4 4 0 0 0 0 0 0 0 0 0 1 5 97 28 67 100 100 100 100 100 100 52 1 21 1 3 3 0 0
0 0 0 0 0 0 0 0 0 0 0 0 5 5 14 0 0 0 0 0 0 0 0 0 0 0 0 0 1 22 92 94 100 100 88 86 40 92 89 0 0 0 2 83 1
0 0 0 0 0 0 0 0 0 0 0 0 33 26 6 0 0 0 0 0 0 0 0 0 0 0 0 0 0 75 80 100 84 82 77 94 100 100 90 54 1 0 0 20 98
0 0 0 0 0 0 0 0 0 0 0 26 100 74 15 0 0 0 0 0 0 0 0 0 0 0 0 0 0 88 8 88 87 49 22 21 29 100 49 3 4 1 0 1 85
0 0 0 0 0 0 0 0 0 0 0 59 100 98 9 0 0 0 0 0 0 0 0 0 0 0 0 0 0 1 5 38 91 72 87 34 23 2 17 20 0 0 0 0 0
0 0 0 0 0 0 0 0 0 0 0 19 100 65 0 0 0 0 0 0 0 0 0 0 0 0 0 0 1 5 100 100 89 100 100 90 93 5 0 5 2 0 0 0 0
0 0 0 0 0 0 0 0 0 0 0 26 99 94 19 0 0 0 0 0 0 0 0 0 0 0 0 0 2 5 90 98 12 12 8 100 74 16 5 5 90 0 0 0 0
0 0 0 0 0 0 0 0 0 0 0 29 32 30 0 0 0 0 0 0 0 0 0 0 0 0 0 0 0 4 5 43 75 18 90 27 29 89 100 27 51 60 1 0 0
0 0 0 0 0 0 0 0 0 0 10 0 0 0 0 0 0 0 0 0 0 0 0 0 0 0 0 0 0 0 5 4 2 6 70 5 22 8 97 68 96 100 100 73 2
0 0 0 0 0 0 0 0 0 0 0 0 0 0 0 0 0 0 0 0 0 0 0 0 0 0 0 0 0 0 0 0 0 2 81 0 1 8 36 2 96 100 100 100 8
0 0 0 0 0 0 0 0 0 0 0 0 0 0 0 0 0 0 0 0 0 0 0 0 0 0 0 0 0 0 0 0 2 0 67 26 99 100 90 7 100 100 100 99 100
0 0 0 0 0 0 0 0 0 0 0 0 0 0 0 0 0 0 0 0 0 0 0 0 0 0 0 0 0 0 0 0 0 0 10 97 95 100 100 51 100 100 100 76 100
0 0 0 0 0 0 0 0 0 0 0 0 0 0 0 0 0 0 0 0 0 0 0 0 0 0 0 0 0 0 0 0 0 2 39 100 94 100 100 93 100 100 100 87 80
0 0 0 0 0 0 0 0 0 0 0 0 0 0 0 0 0 0 0 0 0 0 0 0 0 0 0 0 0 0 0 0 0 0 5 74 98 33 100 99 66 98 100 100 43
0 0 0 0 0 0 0 0 0 0 0 0 0 0 0 0 0 0 0 0 0 0 0 0 0 0 0 0 0 0 0 0 0 0 2 1 56 40 2 1 5 5 2 0 73
0 0 0 0 0 0 0 0 0 0 0 0 0 0 0 0 0 0 0 0 0 0 0 0 0 0 0 0 0 0 0 0 0 0 0 0 1 0 4 0 3 14 29 15 100
0 0 0 0 0 0 0 0 0 0 0 0 0 100 99 22 1 0 0 0 0 0 0 0 0 0 0 0 0 0 0 0 0 0 0 0 0 0 0 13 98 94 38 91 28
0 0 0 0 0 0 0 0 0 0 0 0 0 65 100 100 56 5 0 0 0 0 0 0 0 0 0 0 0 0 0 0 0 0 0 0 0 0 0 0 5 47 98 99 5
0 0 0 0 3 1 4 0 33 74 58 1 10 69 100 100 100 90 16 2 11 100 88 0 6 0 0 0 0 0 0 0 0 0 0 0 0 0 0 0 0 0 95 80 17
0 0 2 5 5 4 8 94 5 5 1 0 73 94 100 100 100 100 99 100 84 100 83 0 0 0 75 1 0 0 0 0 0 0 0 0 0 0 0 0 0 0 3 10 12
0 4 2 5 57 29 5 4 6 5 0 2 42 100 100 100 100 100 100 100 100 100 5 5 4 0 0 0 0 0 0 0 0 0 0 0 0 0 0 0 0 0 0 5 7
13 42 97 5 94 11 5 37 32 3 48 3 81 12 93 100 100 100 100 100 100 100 54 77 3 1 0 2 16 1 0 0 0 0 0 0 0 0 0 0 0 0 0 1 5
38 24 89 15 100 79 9 36 17 4 2 18 1 18 15 100 100 100 100 100 100 100 100 62 0 0 0 0 0 2 2 0 0 0 0 0 0 0 1 0 0 0 0 0 25
100 98 98 14 100 100 98 61 83 22 97 92 63 42 42 100 100 100 100 100 100 100 100 58 0 0 0 0 2 77 44 1 0 0 0 0 0 0 0 0 0 0 0 0 0
78 98 100 100 100 95 100 42 100 100 11 2 95 24 6 100 100 100 100 100 100 100 100 48 5 0 0 1 100 67 97 20 0 0 5 0 0 0 0 3 0 0 0 0 0
11 100 100 100 99 99 100 100 100 100 100 51 98 34 38 98 100 100 100 100 100 100 100 88 95 1 0 85 100 83 28 67 2 0 0 3 0 0 0 0 0 0 0 0 0

GFSSW_prec_cloud_036.txt.gz
Cloud_Cover
0 0 0 0 0 0 0 0 0 0 0 0 1 7 20 23 11 0 0 0 0 0 0 0 0 0 0 5 6 5 5 62 98 100 100 100 100 100 100 73 38 5 1 1 0
2 0 0 0 0 0 0 0 0 0 1 0 0 12 25 14 26 0 0 0 0 0 0 0 0 0 10 4 19 66 36 80 100 100 100 100 100 100 100 90 5 3 0 0 0
3 0 0 0 0 0 0 0 0 0 0 0 6 91 17 5 7 0 0 0 0 0 0 0 0 0 1 14 6 9 5 83 100 99 100 100 91 100 75 98 4 0 1 0 0
0 0 0 0 0 0 0 0 0 0 0 1 49 100 16 0 0 0 0 0 0 0 0 0 0 0 0 2 4 6 5 21 59 100 100 100 100 100 86 50 4 0 0 0 0
0 0 0 0 0 0 0 0 0 0 0 0 50 98 8 0 0 0 0 0 0 0 0 0 0 0 0 2 0 4 6 5 95 100 52 6 61 5 54 88 4 4 0 0 0
0 0 0 0 0 0 0 0 0 0 0 0 48 98 7 0 0 0 0 0 0 0 0 0 0 0 0 1 0 0 2 19 99 40 23 18 32 34 90 84 92 20 0 0 0
0 0 0 0 0 0 0 0 0 0 0 0 90 59 9 0 0 0 0 0 0 0 0 0 0 0 0 0 3 4 3 3 62 100 57 78 9 0 25 14 7 5 0 0 0
0 0 0 0 0 0 0 0 0 0 0 2 100 100 28 0 0 0 0 0 0 0 0 0 0 0 0 0 3 4 0 0 3 24 80 73 28 56 4 26 7 5 0 0 0
0 0 0 0 0 0 0 0 0 0 0 1 32 28 24 0 0 0 0 0 0 0 0 0 0 0 0 0 0 4 0 0 5 5 100 56 86 10 0 1 5 5 45 63 4
0 0 0 0 0 0 0 0 0 0 0 0 0 19 0 0 0 0 0 0 0 0 0 0 0 0 0 0 0 0 0 4 3 5 100 100 59 15 0 0 1 6 100 90 27
0 0 0 0 0 0 0 0 0 0 0 0 0 0 0 0 0 0 0 0 0 0 0 0 0 0 0 0 0 0 0 0 0 0 5 94 100 61 1 0 0 92 100 16 17
0 0 0 0 0 0 0 0 0 0 0 0 0 0 0 0 0 0 0 0 0 0 0 0 0 0 0 0 0 0 0 0 0 3 6 19 94 53 1 0 2 60 100 100 68
0 0 0 0 0 0 0 0 0 0 0 0 0 0 0 0 0 0 0 0 0 0 0 0 0 0 0 0 0 0 0 0 0 2 5 86 100 100 5 5 6 87 100 75 100
0 0 0 0 0 0 0 0 0 0 0 0 0 0 0 0 0 0 0 0 0 0 0 0 0 0 0 0 0 0 0 0 0 0 0 69 100 76 96 5 5 34 100 93 98
0 0 0 0 0 0 0 0 0 0 0 0 0 0 0 0 0 0 0 0 0 0 0 0 0 0 0 0 0 0 0 0 0 0 0 5 53 9 5 1 0 6 100 100 100
0 0 0 0 0 0 0 0 0 0 0 0 0 0 0 0 0 0 0 0 0 0 0 0 0 0 0 0 0 0 0 0 0 0 5 4 4 4 2 0 0 93 100 100 100
0 0 0 0 0 0 0 0 0 0 0 0 0 0 0 0 0 0 0 0 0 0 0 0 0 0 0 0 0 0 0 0 0 0 0 0 4 0 0 3 3 4 99 100 100
0 0 0 0 0 0 0 0 0 0 0 0 0 0 0 0 0 1 0 0 0 0 0 0 0 0 0 0 0 0 0 0 0 0 0 0 0 0 3 5 2 0 0 17 32
0 0 0 0 0 0 0 0 0 0 0 0 0 0 0 0 0 71 5 10 46 37 58 0 0 0 0 0 0 0 0 0 0 0 0 0 0 0 0 0 0 3 5 5 0
0 0 0 0 0 0 0 0 0 0 0 0 7 16 4 1 0 100 88 100 100 100 97 0 0 0 0 8 0 0 0 0 0 0 0 0 0 0 0 0 0 0 0 0 3
0 0 0 4 12 2 4 30 5 5 0 0 0 5 5 63 1 100 100 100 100 100 91 5 0 0 55 13 0 0 0 0 0 0 0 0 0 0 0 0 0 0 0 0 0
11 0 0 5 48 34 85 100 5 28 2 5 3 62 100 9 5 100 100 100 100 100 100 100 100 1 2 0 10 2 0 0 0 0 0 0 0 0 0 0 0 0 0 0 0
85 0 0 50 100 100 100 96 83 85 82 36 0 66 13 4 18 100 100 100 100 100 100 100 100 67 0 6 97 43 0 0 0 0 0 0 0 0 0 0 0 0 0 0 2
28 15 100 86 86 92 100 77 100 100 100 73 19 5 2 4 100 100 100 100 100 100 100 100 51 27 0 0 2 4 1 0 0 0 0 0 0 0 0 0 0 0 0 0 0
28 72 34 91 91 91 96 100 100 100 98 50 28 62 20 4 61 100 100 100 100 100 100 100 36 5 0 0 1 0 5 0 0 0 0 0 0 0 0 0 0 0 0 0 0
14 10 100 98 100 100 100 100 100 100 100 99 100 19 5 8 100 100 100 100 100 100 100 100 68 3 0 1 2 0 0 0 0 0 5 0 2 0 0 0 4 0 0 0 0
23 100 100 100 100 100 100 100 100 100 100 100 100 100 19 14 100 100 100 100 100 100 100 100 37 5 2 32 17 5 23 3 2 5 98 89 58 4 0 4 30 2 0 0 0

GFSSW_prec_cloud_039.txt.gz
Cloud_Cover
0 0 0 0 0 0 0 0 0 0 0 0 0 1 18 44 2 0 5 0 0 0 0 0 0 0 11 9 68 99 25 24 98 100 100 100 100 100 100 100 99 82 22 22 2
0 0 0 0 0 0 0 0 0 0 0 0 0 11 100 49 22 0 0 0 0 0 0 0 0 0 96 42 10 7 5 35 85 79 100 100 100 100 100 100 96 100 5 14 0
0 0 0 0 0 0 0 0 0 0 0 0 1 9 100 13 34 0 0 0 0 0 0 0 0 0 51 9 18 13 21 98 99 98 100 100 100 100 100 100 100 61 22 5 0
0 0 0 0 0 0 0 0 0 0 0 8 7 74 29 0 0 0 0 0 0 0 0 0 0 0 0 0 1 7 70 86 100 100 96 100 94 89 52 100 76 5 57 49 0
0 0 0 0 0 0 0 0 0 0 0 32 0 60 0 0 0 0 0 0 0 0 0 0 0 0 0 0 0 8 100 89 99 100 100 97 100 100 100 100 37 18 2 4 0
0 0 0 0 0 0 0 0 0 0 0 32 42 93 0 0 0 0 0 0 0 0 0 0 0 0 0 0 0 98 100 67 46 100 100 100 100 100 99 42 17 8 9 5 0
0 0 0 0 0 0 0 0 0 0 0 0 14 43 0 0 0 0 0 0 0 0 0 0 0 0 0 0 1 11 57 5 5 9 59 100 3 6 5 5 5 6 0 0 0
0 0 0 0 0 0 0 0 0 0 0 0 87 98 29 0 0 0 0 0 0 0 0 0 0 0 0 0 0 1 49 4 3 0 29 41 4 5 4 3 63 6 0 0 4
0 0 0 0 0 0 0 0 0 0 0 1 23 41 11 0 0 0 0 0 0 0 0 0 0 0 0 0 0 0 0 2 8 5 6 58 6 100 29 5 0 2 4 0 89
0 0 0 0 0 0 0 0 0 0 0 0 2 31 0 0 0 0 0 0 0 0 0 0 0 0 0 0 0 0 0 0 5 2 1 89 95 5 0 4 5 5 5 6 24
0 0 0 0 0 0 1 0 0 0 0 0 0 0 0 0 0 0 0 0 0 0 0 0 0 0 0 0 0 0 0 0 3 12 5 5 5 5 0 0 0 5 5 8 12
0 0 0 0 0 0 0 0 0 0 0 0 0 0 0 0 0 0 0 0 0 0 0 0 0 0 0 0 0 0 0 0 0 36 4 5 4 0 1 0 0 5 14 36 8
0 0 0 0 0 0 0 0 0 0 0 0 0 0 0 0 0 0 0 0 0 0 0 0 0 0 0 0 0 0 0 0 0 88 8 6 22 0 10 0 2 3 54 22 50
0 0 0 0 0 0 0 0 0 0 0 0 0 0 0 0 0 0 0 0 0 0 0 0 0 0 0 0 0 0 0 0 0 37 16 5 5 5 0 0 0 2 5 13 5
0 0 0 0 0 0 0 0 0 0 0 0 0 0 0 0 0 0 0 0 0 0 0 0 0 0 0 0 0 0 0 0 0 2 86 27 19 7 2 3 0 0 55 33 5
0 1 0 6 0 0 0 0 0 0 0 0 0 0 0 0 0 0 0 0 0 0 0 0 0 0 0 0 0 0 0 0 0 0 4 4 20 5 1 0 0 0 8 88 94
4 0 0 0 0 0 0 0 0 0 0 0 0 0 0 0 0 0 0 0 12 1 0 0 0 0 0 0 0 0 0 0 0 1 0 0 4 0 0 0 0 0 5 2 25
0 12 2 0 0 0 0 0 0 0 0 0 0 0 0 0 0 0 0 0 0 0 4 32 0 0 0 0 0 0 0 0 0 0 0 0 0 0 0 0 0 0 4 1 5
80 92 0 0 0 0 0 0 0 0 0 0 0 0 0 0 0 0 0 0 45 84 53 46 4 0 0 0 0 0 0 0 0 0 0 0 0 0 0 0 0 0 0 0 4
96 0 0 0 0 0 0 1 2 5 1 0 0 0 0 0 0 0 0 1 3 76 82 62 68 0 0 2 0 0 0 0 0 0 0 0 0 0 0 0 0 0 0 0 3
1 0 0 0 0 4 38 78 12 2 2 0 3 4 3 0 0 0 0 0 5 62 100 90 100 6 0 3 0 0 5 0 0 0 0 0 0 0 0 0 0 0 0 0 0
28 0 0 0 88 6 5 5 5 7 34 99 84 5 5 2 0 0 5 5 4 97 100 100 100 100 0 0 0 5 4 75 0 0 0 0 0 0 0 0 0 0 0 0 4
77 61 0 18 64 40 64 60 100 44 81 96 100 68 7 5 2 0 0 4 4 73 100 100 100 67 0 0 0 73 12 0 1 0 0 0 0 0 0 0 0 0 0 0 0
68 8 4 4 59 83 100 87 100 100 100 100 100 95 95 12 41 4 0 40 18 100 100 100 100 34 4 2 47 11 5 0 0 0 0 0 0 0 0 0 0 2 5 0 0
2 4 31 6 31 72 98 94 100 100 100 100 100 100 98 32 16 1 4 93 80 100 100 100 100 21 4 5 21 1 5 2 0 0 0 0 0 0 0 0 0 0 0 0 0
5 6 10 98 98 94 100 100 100 100 100 100 100 100 100 100 23 5 6 15 100 100 100 100 100 28 0 5 10 5 61 5 4 0 0 0 0 0 0 0 0 0 0 0 0
66 100 100 100 100 100 100 100 100 100 100 100 100 100 100 96 86 26 11 72 100 100 100 100 100 42 3 5 100 100 100 98 90 0 0 0 0 0 0 0 0 4 0 0 0

GFSSW_prec_cloud_042.txt.gz
Cloud_Cover
0 0 0 0 0 0 0 0 0 0 0 0 4 14 22 100 54 5 13 0 0 0 0 32 0 0 0 9 97 100 56 53 21 76 61 100 83 100 87 100 100 100 100 100 100
0 0 0 0 0 0 0 0 0 0 0 0 12 17 9 100 18 0 0 0 0 0 2 37 2 0 60 9 12 16 14 58 12 16 74 100 91 99 100 100 100 96 98 100 99
0 0 0 0 0 0 0 0 0 0 0 10 26 12 98 20 15 0 0 0 0 0 0 0 0 0 0 54 7 11 5 11 95 18 100 100 100 100 100 100 100 100 100 100 30
0 0 0 0 0 0 0 0 0 0 6 15 17 0 11 0 0 0 0 0 0 0 0 0 0 0 0 10 11 98 46 51 99 50 100 97 100 90 70 33 52 100 100 100 53
0 0 0 0 0 0 0 0 0 0 2 13 5 2 0 0 0 0 0 0 0 0 0 0 0 0 0 0 1 76 49 62 60 42 61 45 92 100 95 70 73 100 100 100 33
0 0 0 0 0 0 0 0 0 0 0 0 0 0 0 0 0 0 0 0 0 0 0 0 0 0 0 0 1 96 100 16 37 29 95 91 97 100 93 100 100 100 96 100 2
0 0 0 0 0 0 0 0 0 0 0 0 0 0 0 0 0 0 0 0 0 0 0 0 0 0 0 0 18 100 100 8 5 6 49 100 90 100 98 40 98 100 100 17 0
0 0 0 0 0 0 0 0 0 0 0 3 68 0 3 0 0 0 0 0 0 0 0 0 0 0 0 0 0 22 100 40 5 5 59 31 82 85 86 47 47 4 0 0 0
0 0 0 0 0 0 0 0 0 0 0 22 8 0 0 0 0 0 0 0 0 0 0 0 0 0 0 0 0 4 78 22 67 5 5 5 2 0 4 0 1 4 0 0 0
0 0 0 0 0 0 0 0 0 2 6 0 0 0 0 0 0 0 0 0 0 0 0 0 0 0 0 0 0 0 0 21 68 32 5 27 5 56 2 0 5 2 5 5 5
0 0 0 0 0 0 2 0 0 0 0 0 0 0 0 0 0 0 0 0 0 0 0 0 0 0 0 0 0 0 0 3 9 5 5 5 11 93 62 5 0 5 5 5 5
0 0 0 0 0 0 0 0 0 0 0 0 0 0 0 0 0 0 0 0 0 0 0 0 0 0 0 0 0 0 0 0 4 35 11 5 5 100 5 0 5 5 5 5 2
0 0 0 0 0 0 0 0 0 0 0 0 0 0 0 0 0 0 0 0 0 0 0 0 0 0 0 0 0 0 0 0 0 72 99 5 7 8 0 0 0 0 5 3 5
0 0 0 0 0 0 0 0 0 0 0 0 0 0 0 0 0 0 0 0 0 0 0 0 0 0 0 0 0 0 0 0 0 7 97 80 16 0 0 0 0 0 0 5 5
0 0 0 0 0 0 0 0 0 0 0 0 0 0 0 0 0 0 0 0 0 0 0 0 0 0 0 0 0 0 0 0 0 0 5 71 68 0 0 37 0 0 1 1 5
0 0 0 0 0 0 0 0 0 0 0 0 0 0 0 0 0 0 0 0 0 0 0 0 0 0 0 0 0 0 0 0 0 0 0 2 85 5 1 0 0 0 2 5 5
0 0 0 0 0 0 0 0 0 0 0 0 0 0 0 0 0 0 0 0 0 0 2 0 0 0 0 0 0 0 0 0 0 0 1 0 18 5 0 0 0 0 5 4 4
0 0 0 3 0 0 0 0 0 0 0 0 0 0 0 0 0 0 0 0 3 0 0 23 0 0 0 0 0 0 0 0 0 0 0 3 0 0 0 0 0 2 4 36 7
4 2 3 5 0 0 0 0 0 0 0 0 0 0 0 0 0 0 0 2 76 12 10 18 9 0 0 0 0 0 0 0 0 0 0 0 0 0 0 0 0 5 4 0 0
12 4 0 0 0 0 0 0 0 0 0 0 0 0 0 0 0 0 0 0 14 7 2 44 85 0 0 0 0 0 0 0 0 0 0 0 0 0 0 0 0 2 3 0 0
0 0 0 0 0 0 0 0 0 0 2 2 4 2 0 0 4 2 0 0 0 4 2 4 69 7 0 0 0 0 4 0 0 0 0 0 0 0 0 0 0 0 0 0 0
8 0 0 0 0 0 0 5 5 5 9 19 5 35 80 94 91 5 5 0 0 0 4 19 96 72 5 0 0 0 0 0 0 0 0 0 0 0 0 0 0 0 0 2 0
92 96 0 0 3 5 5 5 5 68 89 100 82 63 24 23 16 25 5 1 0 0 2 47 61 100 4 0 1 1 0 0 0 7 0 0 0 0 0 0 0 0 0 0 0
35 1 4 5 6 9 99 30 24 91 91 99 100 100 100 100 99 15 1 0 0 0 5 78 85 86 19 2 4 0 41 70 73 77 5 0 19 0 0 0 0 0 0 0 0
4 10 94 81 75 99 100 100 40 77 100 100 100 100 100 100 72 9 5 32 2 4 60 59 100 100 64 31 5 5 12 92 70 38 22 0 85 0 0 0 0 0 0 0 0
5 33 67 98 70 100 100 100 79 83 100 100 100 100 100 100 99 100 100 100 5 100 81 100 100 100 85 5 5 1 0 70 24 5 5 0 4 0 0 0 0 0 0 0 0
100 100 100 100 100 100 99 100 100 100 100 100 100 100 100 100 100 100 100 100 97 63 100 100 100 100 14 39 79 61 5 50 18 5 5 2 6 0 0 3 65 80 100 42 0

GFSSW_prec_cloud_045.txt.gz
Cloud_Cover
0 0 2 5 0 0 0 0 0 0 0 8 18 42 67 73 82 24 0 0 0 0 0 22 7 0 0 12 15 66 80 46 85 46 61 85 89 93 98 90 74 92 100 99 100
0 0 0 1 1 0 0 0 0 0 0 2 21 93 90 100 5 0 0 0 0 0 0 0 0 0 1 20 38 30 19 10 5 11 33 53 81 75 88 100 100 99 100 56 100
0 0 0 0 0 0 0 0 0 0 0 0 36 24 89 24 0 0 0 0 0 0 0 0 0 0 0 13 24 16 5 5 5 18 58 93 58 75 73 100 74 9 27 91 55
0 0 0 0 0 0 0 0 0 0 0 0 34 6 8 0 0 0 0 0 0 0 0 0 0 0 0 0 0 18 34 9 73 15 55 99 75 100 95 66 15 2 2 6 31
0 0 0 0 0 0 0 0 0 0 0 0 0 2 0 0 0 0 0 0 0 0 0 0 0 0 0 0 0 6 92 47 100 5 58 98 94 98 84 90 85 96 100 100 100
0 0 0 0 0 0 0 0 0 0 0 0 0 0 0 0 0 0 0 0 0 0 0 0 0 0 0 0 0 6 67 68 94 16 8 95 90 100 100 74 71 70 96 100 100
0 0 0 0 0 0 0 0 0 0 0 0 0 0 0 0 0 0 0 0 0 0 0 0 0 0 0 0 0 4 22 5 48 5 17 84 62 100 100 98 48 57 98 100 28
0 0 0 0 0 0 0 0 0 0 0 0 0 0 0 0 0 0 0 0 0 0 0 0 0 0 0 0 0 1 5 5 53 27 5 11 67 4 86 92 61 18 78 0 0
0 0 0 0 0 0 0 0 0 0 0 2 0 0 0 0 0 0 0 0 0 0 0 0 0 0 0 0 0 0 5 58 26 82 47 69 10 2 3 36 100 92 23 0 0
0 0 0 0 0 0 0 0 0 0 0 0 0 0 0 0 0 0 0 0 0 0 0 0 0 0 0 0 0 0 1 5 15 7 6 53 26 5 4 96 8 0 0 0 0
0 0 0 0 0 0 0 0 0 0 0 0 0 0 0 0 0 0 0 0 0 0 0 0 0 0 0 0 0 0 0 5 52 5 5 88 18 77 5 5 5 0 5 3 0
0 0 0 0 0 0 0 0 0 0 0 0 0 0 0 0 0 0 0 0 0 0 0 0 0 0 0 0 0 0 0 0 97 37 9 15 5 41 5 5 5 5 5 1 6
0 0 0 0 0 0 0 0 0 0 0 0 0 0 0 0 0 0 0 0 0 0 0 0 0 0 0 0 0 0 0 0 12 17 81 5 4 5 30 24 5 3 3 4 12
0 0 0 0 0 0 0 0 0 0 0 0 0 0 0 0 0 0 0 0 0 0 0 0 0 0 0 0 0 0 0 0 0 8 35 48 1 5 13 50 2 0 0 0 5
0 0 0 0 0 0 0 0 0 0 0 0 0 0 0 0 0 0 0 0 0 0 0 0 0 0 0 0 0 0 0 0 0 0 5 6 11 0 5 2 4 0 0 2 0
0 0 1 0 0 0 0 0 0 0 0 0 0 0 0 0 0 0 0 0 0 0 0 0 0 0 0 0 0 0 0 0 0 0 3 1 5 0 0 2 5 3 0 3 5
0 0 0 0 0 0 0 0 0 0 0 0 0 0 0 0 0 0 0 0 0 0 0 0 0 0 0 0 0 0 0 0 0 0 0 0 2 0 0 0 0 0 1 4 5
0 0 0 0 0 0 0 0 0 0 0 0 0 0 0 0 0 0 0 0 0 0 0 0 0 0 0 0 0 0 0 0 0 0 0 0 0 0 0 0 0 0 23 97 5
0 0 0 0 0 0 0 0 0 0 0 0 0 0 0 0 0 0 0 0 0 0 0 0 0 0 0 0 0 0 0 0 0 0 0 0 0 0 0 0 0 0 42 27 57
0 0 0 0 0 0 0 0 0 0 0 0 0 0 0 0 0 0 0 0 1 0 0 4 0 0 0 0 0 0 0 0 0 0 0 0 0 0 0 0 0 0 5 68 100
0 0 0 0 0 0 0 0 0 0 0 0 0 0 0 0 0 0 0 0 0 0 0 0 1 0 0 0 0 0 0 0 0 0 0 0 0 0 0 0 0 0 2 15 8
0 0 0 0 0 0 0 5 5 5 5 5 5 5 5 5 4 4 4 5 1 0 2 4 46 7 0 0 0 0 0 0 8 2 0 0 0 0 0 0 0 0 6 13 68
1 0 0 0 4 5 5 5 5 10 27 80 90 98 94 59 32 100 100 99 33 4 4 5 27 0 0 0 0 0 0 0 0 0 3 0 0 0 0 0 0 0 55 13 68
0 3 4 5 5 76 100 25 5 5 23 100 100 100 96 98 100 99 100 100 100 74 5 2 30 1 0 0 13 12 0 0 0 29 25 35 0 0 0 4 0 0 3 2 4
5 21 32 59 60 100 100 98 95 84 41 94 100 100 100 100 100 100 100 100 100 100 51 5 7 8 5 1 7 5 5 0 0 1 48 9 38 0 0 0 0 0 0 0 0
68 95 100 100 100 100 91 100 100 100 100 100 100 100 100 100 100 100 100 100 100 48 5 14 4 61 4 0 1 5 5 0 2 0 0 5 56 0 0 0 0 0 0 0 0
100 100 100 100 100 100 100 100 100 100 100 100 100 100 100 100 98 59 96 88 65 19 63 44 56 47 1 32 97 64 5 0 0 0 0 2 1 0 0 0 1 0 0 0 0

GFSSW_prec_cloud_048.txt.gz
Cloud_Cover
0 0 0 0 0 3 0 0 0 0 0 12 21 100 100 76 5 0 0 0 0 0 0 0 1 0 0 82 86 24 33 41 59 43 43 44 44 82 97 100 100 49 9 58 70
0 0 0 0 0 2 0 0 0 0 0 14 28 35 98 7 0 0 0 0 0 0 0 0 0 0 0 0 9 8 5 18 42 74 75 6 77 100 11 54 86 87 93 95 98
0 0 0 0 0 6 0 0 0 0 0 4 10 0 0 0 0 0 0 0 0 0 0 0 0 0 0 0 0 4 5 6 7 25 11 19 90 78 74 83 84 5 83 100 42
0 0 0 0 0 6 0 0 0 0 0 0 2 0 0 0 0 0 0 0 0 0 0 0 0 0 0 0 0 0 4 8 50 8 44 85 93 47 99 97 100 5 6 19 8
0 0 0 0 0 0 0 0 0 0 0 0 0 0 4 0 0 0 0 0 0 0 0 0 0 0 0 0 0 0 32 41 17 99 58 43 90 100 100 72 93 9 5 5 98
0 0 0 0 0 0 0 0 0 0 0 0 0 0 0 0 0 0 0 0 0 0 0 0 0 0 0 0 0 0 6 85 18 100 100 100 100 100 84 99 66 16 6 13 1
0 0 0 0 0 0 0 0 0 0 0 0 0 1 0 0 0 0 0 0 0 0 0 0 0 0 0 0 0 0 3 6 8 70 84 88 21 99 91 70 56 80 76 28 61
0 0 0 0 0 0 0 0 0 0 0 0 0 0 0 0 0 0 0 0 0 0 0 0 0 0 0 0 0 0 0 5 7 88 20 5 100 20 94 100 100 66 56 69 21
0 0 0 0 0 0 0 0 0 0 0 0 0 0 0 0 0 0 0 0 0 0 0 0 0 0 0 0 0 0 0 0 5 5 23 5 100 5 11 100 100 100 100 22 67
0 0 0 0 0 0 0 0 0 10 0 0 0 0 0 0 0 0 0 0 0 0 0 0 0 0 0 0 0 0 0 0 5 5 7 44 77 5 2 0 6 72 69 57 2
0 0 0 0 0 0 5 0 0 0 0 0 0 0 0 0 0 0 0 0 0 0 0 0 0 0 0 0 0 0 0 0 5 84 100 91 100 8 3 0 0 0 0 3 0
0 0 0 0 0 0 0 0 0 0 0 0 0 0 0 0 0 0 0 0 0 0 0 0 0 0 0 0 0 0 0 0 5 99 11 100 42 56 5 5 0 0 0 0 0
0 0 0 0 0 1 0 0 0 0 0 0 0 0 0 0 0 0 0 0 0 0 0 0 0 0 0 0 0 0 0 0 18 5 5 42 100 100 10 5 2 1 0 0 0
0 0 0 19 7 0 0 0 0 0 0 0 0 0 0 0 0 0 0 0 0 0 0 0 0 0 0 0 0 0 0 0 0 5 6 3 33 7 34 5 5 1 0 0 0
0 0 0 12 0 0 0 0 0 0 0 0 0 0 0 0 0 0 0 0 0 0 0 0 0 0 0 0 0 0 0 0 0 4 51 55 31 92 26 5 5 2 0 0 1
0 0 8 27 0 0 0 0 0 0 0 0 0 0 0 0 0 0 0 0 0 0 0 0 0 0 0 0 0 0 0 0 0 0 25 4 55 5 63 20 5 5 4 0 0
0 0 15 0 0 0 0 0 0 0 0 0 0 0 0 0 0 0 0 0 0 0 0 0 0 0 0 0 0 0 0 0 0 0 0 0 4 5 63 57 5 5 5 2 5
0 36 0 0 0 0 0 0 0 0 0 0 0 0 0 0 0 0 0 0 0 0 0 0 0 0 0 0 0 0 0 0 0 0 0 0 0 0 0 1 5 59 5 5 5
14 0 0 0 0 0 0 0 0 0 0 0 0 0 0 0 0 0 0 0 0 0 0 0 0 0 0 0 0 0 0 0 2 5 0 0 0 0 0 0 0 5 5 1 0
0 0 0 0 0 0 0 0 0 0 0 0 0 0 0 3 0 0 0 0 0 0 0 0 0 0 0 0 0 0 0 21 1 20 0 0 0 0 0 0 0 4 18 4 0
0 0 0 0 0 0 4 4 0 0 0 0 0 4 3 5 5 5 4 2 0 0 0 0 0 0 0 0 0 0 0 28 52 1 0 2 0 0 0 0 0 0 0 0 0
0 0 0 0 5 0 5 3 0 5 5 4 4 5 14 59 84 91 86 5 0 0 0 2 0 0 0 0 0 0 0 0 7 6 0 17 45 3 0 0 0 0 0 0 3
0 0 0 0 46 64 9 12 5 23 81 92 92 87 96 99 100 100 100 36 5 0 2 5 0 0 0 0 0 0 0 0 1 18 77 43 4 0 3 0 0 0 0 0 4
4 30 26 16 26 14 12 10 58 5 66 63 76 99 100 100 100 100 100 100 90 49 4 5 0 0 0 0 6 0 0 0 5 4 0 32 100 81 1 0 0 0 0 0 4
100 29 26 64 78 99 91 67 67 74 78 71 80 100 100 93 100 100 100 100 100 100 100 58 18 5 1 0 0 0 0 0 4 5 1 3 98 28 43 0 0 0 0 0 0
99 96 100 100 91 45 16 45 88 98 98 87 86 85 50 94 100 100 100 100 100 100 100 100 55 100 33 5 1 0 0 0 0 5 0 0 0 9 37 0 0 0 0 0 0
100 100 100 100 72 92 83 100 98 100 100 100 100 100 100 93 58 93 94 68 95 82 100 94 88 98 11 8 0 1 0 0 0 0 0 0 0 0 0 5 0 0 0 0 0

GFSSW_prec_cloud_051.txt.gz
Cloud_Cover
0 0 0 0 0 0 0 0 0 1 13 20 22 0 0 0 0 0 0 0 0 0 0 0 0 0 0 0 21 39 93 66 100 100 93 7 14 24 66 100 100 100 100 11 95
0 0 0 0 0 0 2 11 0 0 0 11 4 4 0 0 0 0 0 0 0 0 0 0 0 0 0 0 0 8 61 100 100 96 100 41 6 44 72 74 91 100 99 35 100
0 0 0 0 0 0 0 1 0 0 0 0 1 0 0 0 0 0 0 0 0 0 0 0 0 0 0 0 0 2 57 96 99 99 100 69 5 99 98 71 8 34 53 85 99
0 0 0 0 0 0 0 0 0 0 0 0 18 0 0 0 0 0 0 0 0 0 0 0 0 0 0 0 0 14 42 5 100 26 94 95 59 90 98 100 11 14 12 67 73
0 0 0 0 0 0 0 0 0 0 0 1 15 0 20 0 0 0 0 0 0 0 0 0 0 0 0 0 0 0 75 44 27 78 89 84 74 98 25 98 59 6 19 54 98
0 0 0 0 0 0 0 0 0 0 0 0 0 0 0 0 0 0 0 0 0 0 0 0 0 0 0 0 0 0 0 90 53 7 91 5 9 18 68 62 5 5 9 15 72
0 0 0 0 0 0 0 0 0 0 0 0 0 0 0 0 0 0 0 0 0 0 0 0 0 0 0 0 0 0 0 11 57 88 100 74 100 82 100 87 8 17 85 44 96
0 0 0 0 0 0 0 0 0 0 0 0 0 0 0 0 0 0 0 0 0 0 0 0 0 0 0 0 0 0 0 11 49 44 55 90 100 92 20 5 11 94 40 51 81
0 0 0 0 0 0 0 0 0 0 0 0 0 0 0 0 0 0 0 0 0 0 0 0 0 0 0 0 0 0 0 0 5 5 31 98 100 100 39 48 29 82 99 75 70
0 0 0 0 0 0 0 5 0 11 16 0 0 0 0 0 0 0 0 0 0 0 0 0 0 0 0 0 0 0 0 0 3 6 41 90 100 100 40 39 30 97 39 42 69
0 0 0 0 0 0 12 0 0 0 0 0 0 0 0 0 0 0 0 0 0 0 0 0 0 0 0 0 0 0 0 0 4 23 15 10 100 100 100 72 0 2 33 97 5
0 0 0 0 0 0 9 0 0 0 0 0 0 0 0 0 0 0 0 0 0 0 0 0 0 0 0 0 0 0 0 0 0 56 43 55 99 100 66 1 0 0 0 0 1
0 0 0 0 4 0 0 0 0 0 0 0 0 0 0 0 0 0 0 0 0 0 0 0 0 0 0 0 0 0 0 0 1 5 6 45 28 86 100 3 2 0 0 0 0
5 0 0 14 9 0 0 0 0 0 0 0 0 0 0 0 0 0 0 0 0 0 0 0 0 0 0 0 0 0 0 0 0 9 5 6 59 5 94 97 0 0 0 0 0
0 5 2 26 0 0 0 0 0 0 0 0 0 0 0 0 0 0 0 0 0 0 0 0 0 0 0 0 0 0 0 0 0 0 1 41 55 99 12 59 86 2 0 0 0
0 0 4 0 0 0 0 0 0 0 0 0 0 0 0 0 0 0 0 0 0 0 0 0 3 0 0 0 0 0 0 0 0 0 0 0 37 5 100 63 97 25 19 0 0
0 0 22 0 0 0 0 0 0 0 0 0 0 0 0 0 0 0 0 0 0 0 0 0 0 0 0 0 0 0 0 0 0 0 0 0 0 2 79 39 100 57 5 1 0
0 30 0 0 0 0 0 0 0 0 0 0 0 0 0 0 0 0 0 0 0 0 0 0 0 0 0 0 0 0 0 0 0 0 0 0 0 0 5 71 77 100 14 13 0
16 0 0 0 0 0 0 0 2 2 0 0 0 0 0 0 0 0 0 0 0 0 0 0 0 0 0 0 0 5 26 0 0 4 0 0 0 0 0 3 83 98 83 99 21
0 0 0 0 0 0 0 0 0 0 0 0 3 0 0 4 0 0 0 0 0 0 0 0 0 0 0 0 0 0 0 16 2 10 2 12 1 0 0 0 0 12 7 20 100
0 18 0 0 0 1 38 80 5 1 0 0 4 5 41 5 49 12 5 2 0 0 0 0 0 0 0 0 0 0 0 2 94 26 2 6 5 5 4 0 0 0 1 2 35
1 50 5 1 67 28 97 0 0 5 5 4 5 6 81 100 100 100 82 99 52 5 0 0 0 0 0 0 0 0 0 0 4 5 5 2 5 53 88 20 0 0 5 4 6
8 14 13 4 100 98 27 17 3 5 89 38 41 91 95 92 72 75 100 100 88 48 4 8 0 0 0 0 0 0 0 0 2 16 69 13 3 49 100 31 1 0 0 2 6
100 100 21 13 5 5 22 36 81 29 48 85 79 71 94 97 100 100 100 100 8 85 12 4 6 5 0 46 0 0 0 0 0 14 27 100 100 97 98 95 76 0 0 1 5
94 100 100 78 41 86 89 62 82 66 71 63 94 93 90 51 92 76 100 100 58 100 41 39 12 3 1 2 0 0 0 0 0 0 32 36 97 28 100 100 91 4 2 0 3
100 99 97 89 100 100 32 25 100 85 38 56 22 49 74 49 70 74 87 92 95 100 100 100 100 100 99 72 2 0 0 0 0 0 0 2 22 41 100 68 42 26 100 6 0
100 100 100 100 96 89 91 98 76 99 42 42 25 44 61 84 38 72 86 37 13 78 61 99 100 100 79 100 97 39 0 0 0 0 0 0 0 0 5 8 70 54 28 71 7

GFSSW_prec_cloud_054.txt.gz
Cloud_Cover
0 0 0 0 0 0 0 0 4 8 5 5 16 22 0 0 0 0 0 0 0 0 0 0 0 0 0 17 87 1 11 60 100 80 100 90 33 32 10 93 100 100 100 99 100
0 0 0 0 0 0 1 0 0 0 0 0 0 1 11 0 0 0 0 0 0 0 0 0 0 0 0 2 54 0 100 93 67 98 74 100 18 24 76 100 69 100 100 100 100
0 0 0 0 0 0 5 0 0 0 0 0 0 2 0 0 0 0 0 0 0 0 0 0 0 0 0 2 0 0 20 100 100 100 85 22 14 5 82 100 100 100 100 49 3
0 0 0 0 0 0 0 0 0 0 0 0 6 0 0 0 0 0 0 0 0 0 0 0 0 0 0 1 2 4 40 99 62 28 71 86 96 100 100 100 100 100 100 97 38
0 0 0 0 0 0 0 0 0 0 0 0 17 0 16 0 0 0 0 0 0 0 0 0 0 0 0 0 0 6 18 34 37 99 50 5 43 100 100 50 69 100 98 100 64
0 0 0 0 0 0 0 0 0 0 0 2 15 0 0 0 0 0 0 0 0 0 0 0 0 0 0 0 0 36 7 42 46 78 100 20 74 100 97 39 54 53 41 57 100
0 0 0 0 0 0 0 0 0 0 0 0 0 0 0 0 0 0 0 0 0 0 0 0 0 0 0 0 0 0 5 1 4 95 9 89 51 78 58 97 57 34 52 92 97
0 0 0 0 0 0 0 0 0 0 0 0 1 0 0 0 0 0 0 0 0 0 0 0 0 0 0 0 0 0 0 0 2 5 24 7 69 100 81 100 100 100 36 100 9
0 0 0 0 0 0 0 0 0 0 0 0 0 0 0 0 0 0 0 0 0 0 0 0 0 0 0 0 0 0 0 0 3 32 28 59 73 100 100 100 100 100 85 93 99
0 0 0 0 0 0 7 0 0 0 0 0 0 0 0 0 0 0 0 0 0 0 0 0 0 0 0 0 0 0 0 0 0 3 62 9 59 100 100 100 80 57 50 89 78
0 0 0 0 0 0 3 0 0 0 0 0 0 0 0 0 0 0 0 0 0 0 0 0 0 0 0 0 0 0 0 0 0 2 68 5 22 71 63 100 100 100 100 58 46
0 0 0 0 0 3 8 0 0 0 0 0 0 0 0 0 0 0 0 0 0 0 0 0 0 0 0 0 0 0 0 0 0 12 54 98 16 97 96 100 100 100 30 18 37
0 0 0 0 4 3 0 0 0 0 0 0 0 0 0 0 0 0 0 0 0 0 0 0 0 0 0 0 0 0 0 0 0 5 60 69 83 47 75 95 100 38 2 24 0
0 0 0 17 3 3 0 0 0 0 0 0 0 0 0 0 0 0 0 0 0 0 0 0 0 0 0 0 0 0 0 0 0 1 5 8 28 21 74 100 100 100 100 0 1
0 0 0 0 0 0 5 0 0 0 0 0 0 0 0 0 0 0 0 0 0 0 0 0 0 0 0 0 0 0 0 0 0 0 5 61 3 4 98 64 100 100 90 2 0
0 0 4 0 0 0 0 0 0 0 0 0 0 0 0 0 0 0 0 0 0 0 0 0 0 0 0 0 0 0 0 0 0 0 0 0 0 1 85 98 100 100 100 95 0
0 0 18 0 0 0 0 0 0 0 0 0 0 0 0 0 0 0 0 0 0 0 0 0 0 1 1 0 0 0 0 0 0 0 0 0 0 0 11 99 96 100 100 100 14
0 23 0 0 0 0 0 0 0 52 98 0 0 0 0 0 0 0 0 0 0 0 0 0 0 0 0 0 0 0 0 0 0 0 0 0 0 0 0 10 46 100 100 54 58
13 0 0 0 0 0 0 0 96 97 64 9 0 0 0 0 0 0 0 0 0 0 0 0 0 0 0 0 0 0 25 0 0 0 0 0 0 0 0 3 84 100 35 99 88
0 0 0 0 0 0 0 12 79 0 0 0 0 0 5 58 23 0 0 0 0 0 0 0 0 0 2 0 0 0 0 56 1 0 0 1 0 0 0 0 3 27 5 96 100
0 27 0 0 0 0 63 100 5 4 0 0 0 4 5 5 81 98 64 31 0 0 0 0 0 0 11 0 0 0 0 5 15 44 0 1 0 0 53 1 0 0 32 94 100
7 97 32 5 43 95 98 38 0 5 16 19 0 5 18 6 60 82 100 99 28 5 5 0 0 0 0 0 0 0 0 0 5 5 6 2 1 0 95 77 0 1 100 72 22
100 98 66 30 100 92 32 17 5 5 70 50 61 43 5 8 3 2 37 84 91 5 98 3 0 0 0 0 0 0 0 0 0 0 4 1 7 0 96 85 100 82 100 92 6
5 87 94 43 36 13 33 76 100 17 35 6 13 0 5 3 5 5 2 44 16 100 6 5 0 2 3 8 10 4 0 0 0 0 0 2 56 0 100 100 87 70 7 3 92
18 6 40 87 100 100 31 62 100 100 10 2 21 15 8 5 40 65 97 30 3 38 17 5 1 2 0 0 34 0 0 0 0 0 2 0 6 0 100 94 99 5 5 4 3
99 100 100 100 100 100 100 100 95 5 2 34 80 26 6 77 77 72 97 93 65 26 21 69 25 62 78 38 5 4 0 0 0 0 0 0 0 0 100 0 91 52 5 4 0
100 30 94 100 100 100 20 4 5 5 23 82 98 97 65 94 80 92 14 43 89 5 84 100 72 78 51 89 74 46 22 0 0 0 0 0 0 5 100 30 73 100 100 33 0

GFSSW_prec_cloud_057.txt.gz
Cloud_Cover
0 0 0 0 0 0 0 3 18 10 13 4 3 1 1 0 0 0 0 0 0 0 0 0 0 0 0 0 8 30 0 89 93 93 100 100 100 100 42 77 98 100 100 100 100
0 0 0 0 0 0 0 0 7 2 0 2 0 7 1 0 0 0 0 0 0 0 0 0 0 0 0 0 22 100 30 67 100 82 100 100 100 100 6 100 100 100 100 100 100
0 0 0 0 0 0 1 1 0 0 0 0 1 0 0 0 0 0 0 0 0 0 0 0 0 0 0 0 13 84 13 86 96 82 100 100 100 100 80 100 100 100 100 100 100
0 0 0 0 0 0 0 3 0 0 0 0 0 0 0 0 0 0 0 0 0 0 0 0 0 0 0 0 0 0 3 10 100 100 100 100 100 100 90 96 100 100 100 100 49
0 0 0 0 0 0 0 0 0 0 24 2 5 0 3 0 0 0 0 0 0 0 0 0 0 0 0 0 0 0 2 92 100 43 100 84 88 65 100 100 100 100 65 52 97
0 0 0 0 0 0 0 0 0 0 36 0 9 0 0 0 0 0 0 0 0 0 0 0 0 0 0 0 0 0 0 19 98 100 26 62 91 93 80 100 100 96 76 77 8
0 0 0 0 0 0 0 0 0 0 2 0 0 0 0 0 0 0 0 0 0 0 0 0 0 0 0 0 0 0 0 14 29 85 36 18 16 7 95 100 98 100 100 100 100
0 0 0 0 0 0 0 0 0 0 0 0 0 0 0 0 0 0 0 0 0 0 0 0 0 0 0 0 0 0 0 0 0 2 5 5 19 8 80 100 100 100 100 100 97
0 0 0 0 0 0 0 0 0 0 0 0 0 0 0 0 0 0 0 0 0 0 0 0 0 0 0 0 0 0 0 0 0 0 5 8 46 68 85 100 98 100 100 99 100
0 0 9 1 0 0 0 0 0 0 0 0 0 0 0 0 0 0 0 0 0 0 0 0 0 0 0 0 0 0 0 0 0 3 5 55 50 57 89 12 97 100 100 100 95
0 0 0 0 0 0 4 0 0 0 0 0 0 0 0 0 0 0 0 0 0 0 0 0 0 0 0 0 0 0 0 0 0 17 5 4 54 16 77 42 100 100 100 93 13
0 0 0 0 0 0 5 0 0 0 0 0 0 0 0 0 0 0 0 0 0 0 0 0 0 0 0 0 0 0 0 0 0 0 5 72 25 100 26 24 84 100 100 100 99
0 0 0 0 0 0 0 0 0 0 0 0 0 0 0 0 0 0 0 0 0 0 0 0 0 0 0 0 0 0 0 0 0 0 2 6 57 63 24 35 61 100 100 100 100
0 0 0 4 0 0 0 0 0 0 0 0 0 0 0 0 0 0 0 0 0 0 0 0 0 0 0 0 0 0 0 0 0 0 0 4 96 97 5 55 40 100 100 100 100
0 0 0 48 0 0 0 0 0 0 0 0 0 0 0 0 0 0 0 0 0 0 0 0 0 0 0 0 0 0 0 0 0 0 0 0 16 76 55 88 100 100 100 100 100
0 0 13 0 0 0 0 0 0 0 0 0 0 0 0 0 0 0 0 0 0 0 0 0 0 0 0 0 0 0 0 0 0 0 0 0 0 4 88 15 80 100 100 100 100
0 0 46 0 0 0 0 0 0 4 3 0 0 0 0 0 0 0 0 0 0 0 0 0 0 0 0 0 0 0 0 0 0 0 0 0 0 0 0 1 18 100 100 100 100
0 0 0 0 0 0 0 0 20 100 71 5 0 0 0 0 0 0 0 0 0 0 0 0 0 0 0 0 0 0 0 0 0 0 0 0 0 0 0 0 5 100 100 100 100
0 0 0 0 0 0 0 0 99 65 99 41 81 4 20 5 0 0 0 0 5 0 0 0 0 0 0 0 0 0 0 0 0 0 0 0 0 0 0 0 0 30 100 100 100
0 1 1 0 0 0 2 53 56 3 7 20 0 0 0 28 69 5 1 0 0 0 0 0 0 0 0 0 0 0 0 0 0 0 0 0 0 0 1 0 0 0 98 100 100
12 10 71 3 5 0 71 100 100 42 0 0 0 0 4 4 5 46 93 18 0 0 0 0 0 0 0 0 0 0 0 1 0 0 0 0 0 0 4 88 100 82 100 79 77
100 24 62 19 31 89 66 5 92 54 5 3 0 0 5 2 0 4 7 5 0 0 0 0 0 1 0 0 0 0 0 2 5 0 0 0 0 0 92 100 27 60 100 100 97
80 100 100 100 53 100 100 70 5 5 5 2 3 4 4 0 0 0 0 1 0 0 0 0 0 0 4 0 2 0 0 0 0 1 0 11 0 0 50 100 93 100 100 92 100
84 100 100 100 100 100 98 14 5 24 4 0 0 0 0 3 4 2 0 0 0 2 0 0 0 0 0 0 10 0 0 0 0 4 0 5 0 0 74 100 100 100 98 31 44
41 100 100 98 100 100 100 100 83 93 87 100 99 79 4 0 2 5 14 5 5 0 4 3 2 0 0 0 0 0 0 0 0 0 0 0 0 0 100 100 97 100 100 100 100
14 100 100 100 100 100 100 100 100 100 62 20 3 5 5 2 4 5 5 28 5 3 5 5 0 1 0 0 0 0 0 0 0 0 0 0 0 0 3 96 86 81 99 100 100
10 72 100 98 98 100 100 80 33 24 3 1 2 5 6 6 6 2 1 1 2 5 4 4 5 3 1 3 4 1 0 0 0 0 0 0 0 0 0 1 13 97 100 100 100

GFSSW_prec_cloud_060.txt.gz
Cloud_Cover
0 0 0 0 0 0 0 3 7 12 4 17 19 18 4 0 0 0 0 0 0 0 0 0 0 0 0 0 0 98 88 51 70 6 86 99 100 100 100 100 100 100 98 48 100
0 0 0 0 0 0 0 0 14 5 5 12 13 12 0 0 0 0 0 0 0 0 0 0 0 0 3 0 0 4 10 12 50 75 100 98 100 100 100 100 100 100 98 100 100
0 0 0 0 0 0 0 0 0 5 5 21 10 5 0 0 0 0 0 0 0 0 0 0 0 0 0 1 0 0 12 26 100 100 100 100 100 100 100 100 100 100 100 100 100
0 0 0 0 0 0 1 0 0 0 11 40 18 2 0 0 0 0 0 0 0 0 0 0 0 0 0 0 0 0 0 2 62 68 100 100 100 100 100 100 100 61 42 75 100
0 0 1 3 9 1 0 0 0 0 1 91 10 9 0 0 0 0 0 0 0 0 0 0 0 0 0 0 0 0 34 5 5 27 100 99 100 100 100 100 100 100 100 100 100
0 0 0 5 0 1 0 0 0 0 0 31 10 13 0 0 0 0 0 0 0 0 0 0 0 0 0 0 0 0 9 12 8 7 45 100 100 100 100 100 100 96 100 100 100
0 0 2 7 0 1 2 0 0 0 0 2 1 0 0 0 0 0 0 0 0 0 0 0 0 0 0 0 0 0 3 5 67 5 5 12 97 100 100 84 62 100 100 100 100
0 2 3 7 3 0 0 0 0 0 0 0 0 0 0 0 0 0 0 0 0 0 0 0 0 0 0 0 0 0 0 0 54 5 5 55 68 67 50 100 90 99 100 100 100
0 0 4 4 0 0 0 0 0 0 0 0 0 0 0 0 0 0 0 0 0 0 0 0 0 0 0 0 0 0 0 0 0 5 0 3 71 91 77 100 100 100 96 92 98
0 0 0 0 0 0 0 0 0 0 0 0 0 0 0 0 0 0 0 0 0 0 0 0 0 0 0 0 0 0 0 0 1 44 40 5 4 92 47 68 86 100 42 78 95
5 0 0 0 0 0 15 0 0 0 0 0 0 0 0 0 0 0 0 0 0 0 0 0 0 0 0 0 0 0 0 0 0 5 54 11 12 27 25 100 40 87 7 100 100
6 0 0 0 0 0 55 0 0 0 0 0 0 0 0 0 0 0 0 0 0 0 0 0 0 0 0 0 0 0 0 0 0 0 0 0 25 38 7 62 99 42 15 100 100
15 0 0 0 5 0 0 0 0 0 0 0 0 0 0 0 0 0 0 0 0 0 0 0 0 0 0 0 0 0 0 0 0 0 0 0 47 67 84 5 18 6 67 100 100
0 0 0 23 0 0 0 0 0 0 0 0 0 0 0 0 0 0 0 0 0 0 0 0 0 0 0 0 0 0 0 0 0 0 0 0 2 65 48 56 17 9 96 100 100
0 0 0 2 1 0 0 0 0 0 0 0 0 0 0 0 0 0 0 0 0 0 0 0 0 0 0 0 0 0 0 0 0 0 0 0 18 80 8 54 76 66 100 100 100
0 0 38 0 1 0 0 0 0 0 0 0 0 0 0 0 0 0 0 0 0 0 0 0 0 0 0 0 0 0 0 0 0 0 0 0 0 32 7 2 19 7 100 100 100
0 0 54 0 0 0 0 0 5 2 0 1 0 0 0 0 0 0 0 0 0 0 0 0 0 0 0 0 0 0 0 0 0 0 0 0 0 0 1 2 1 19 29 100 96
0 0 0 0 0 0 0 2 0 5 51 5 19 0 0 0 0 0 0 0 0 0 0 0 0 0 0 0 0 0 0 0 0 0 0 0 0 0 1 9 4 5 32 100 94
0 0 0 0 0 0 0 5 2 43 100 97 5 5 0 0 0 0 0 0 0 0 0 0 0 0 0 0 0 0 0 0 0 0 0 0 0 0 5 5 1 0 24 89 99
1 0 0 0 0 0 3 3 4 61 27 95 100 12 0 0 2 5 1 0 0 0 0 0 0 0 0 0 0 0 0 0 0 0 0 0 0 0 0 0 0 0 0 2 77
34 93 4 5 19 4 5 38 16 4 5 4 5 12 5 3 0 0 5 3 0 0 0 0 0 0 0 0 0 0 0 0 0 0 0 0 0 0 0 0 0 0 0 0 81
69 100 98 98 98 100 82 5 3 2 3 3 1 5 4 4 4 3 0 3 5 0 0 0 4 5 1 0 0 0 0 0 0 0 0 0 0 0 0 1 0 0 0 0 100
90 30 94 100 100 76 52 26 44 5 5 4 0 0 0 2 1 3 1 0 0 5 1 0 0 0 0 1 0 0 0 0 0 0 0 2 0 0 0 4 5 0 0 0 52
3 100 57 100 100 100 100 96 62 5 4 0 2 3 0 0 0 0 0 1 5 0 4 23 0 0 2 1 4 0 0 0 0 0 0 3 73 0 0 5 3 3 0 0 2
4 52 100 88 100 100 100 100 100 100 41 40 23 8 2 0 0 0 0 0 0 0 0 2 30 4 0 0 3 92 13 0 0 0 0 0 51 2 0 5 3 28 0 0 0
5 15 100 100 90 100 100 100 100 100 100 100 92 8 9 5 5 1 0 0 0 0 0 1 0 5 5 0 0 1 70 60 0 0 0 0 1 0 4 0 1 2 4 0 0
98 95 37 100 100 100 100 100 80 45 52 18 5 0 0 0 0 0 0 0 0 0 0 0 0 5 3 0 0 0 0 95 7 1 0 0 0 0 4 0 2 2 77 5 3

GFSSW_prec_cloud_063.txt.gz
Cloud_Cover
0 0 0 2 2 1 3 2 3 14 8 6 10 17 17 26 0 0 0 0 0 0 0 0 0 0 0 0 6 6 100 17 98 100 100 100 100 100 98 100 100 100 100 99 94
0 0 0 1 3 2 10 2 1 1 9 20 14 9 27 16 0 0 0 0 0 0 0 0 0 0 7 0 0 18 68 40 60 69 98 93 100 100 100 100 100 100 100 100 22
0 0 0 6 2 3 8 10 4 1 4 19 27 22 26 0 0 0 0 0 0 0 0 0 0 0 10 0 0 10 62 5 99 90 82 75 86 100 100 100 100 70 88 100 100
0 0 8 6 0 2 1 5 4 6 4 34 43 2 3 0 0 0 0 0 0 0 0 0 0 0 0 0 0 0 100 1 16 52 59 100 100 100 100 100 100 100 6 91 100
1 6 16 14 7 2 2 8 4 16 9 27 22 10 0 0 0 0 0 0 0 0 0 0 0 0 0 0 0 33 98 2 0 2 100 100 100 100 99 100 100 100 66 96 20
4 12 10 14 17 10 8 3 6 11 2 14 38 4 0 0 0 0 0 0 0 0 0 0 0 0 0 0 0 96 73 1 0 0 27 100 100 100 99 100 100 100 84 32 87
7 15 18 14 12 1 2 0 1 0 0 1 3 0 0 0 0 0 0 0 0 0 0 0 0 0 0 0 0 51 6 0 0 0 0 94 100 100 100 100 100 100 100 100 100
16 23 25 6 1 1 1 0 0 0 0 0 15 0 0 0 0 0 0 0 0 0 0 0 0 0 0 0 0 0 0 0 0 0 0 2 31 89 100 87 99 99 100 100 60
6 29 15 0 0 4 0 0 0 0 0 0 2 0 0 0 0 0 0 0 0 0 0 0 0 0 0 0 0 0 0 3 0 0 0 2 8 99 100 79 98 99 100 100 27
2 96 16 76 100 12 16 0 0 0 0 0 0 0 0 0 0 0 0 0 0 0 0 0 0 0 0 0 0 0 0 4 0 0 1 4 5 7 95 100 100 54 5 79 54
2 100 100 100 18 50 73 0 0 0 0 0 0 0 0 0 0 0 0 0 0 0 0 0 0 0 0 0 0 0 0 0 4 4 0 0 2 5 23 84 100 92 65 60 5
36 10 0 0 33 39 71 0 0 0 0 0 0 0 0 0 0 0 0 0 0 0 0 0 0 0 0 0 0 0 0 0 4 86 5 0 0 0 5 75 68 64 6 5 5
96 100 100 27 10 3 0 0 0 0 0 0 0 3 1 0 0 0 0 0 0 0 0 0 0 0 0 0 0 0 0 0 25 91 18 0 7 81 7 0 2 8 17 47 6
100 99 28 79 0 0 0 0 0 0 0 0 0 0 5 4 0 0 0 0 0 0 0 0 0 0 0 0 0 0 0 4 14 12 0 0 0 97 15 12 100 97 5 58 89
100 52 2 67 6 0 0 0 0 4 0 0 0 0 0 62 3 0 0 0 0 0 0 0 0 0 0 0 0 0 0 1 5 0 0 0 0 0 48 64 100 19 5 5 94
8 46 90 14 2 0 0 0 1 28 14 0 0 0 0 0 3 2 0 0 0 0 0 0 0 0 0 0 0 0 0 0 0 0 0 0 0 0 79 4 89 3 92 78 39
11 8 89 0 0 0 0 0 32 99 12 5 4 3 0 0 0 0 1 0 0 0 0 0 0 0 0 0 0 0 0 0 0 0 0 0 0 0 3 0 1 2 9 23 100
0 0 4 0 0 0 0 0 42 99 67 5 5 4 0 0 0 0 0 0 0 0 0 0 0 0 0 0 0 0 0 0 0 0 0 0 0 0 0 0 0 9 6 7 100
0 0 0 0 0 0 1 64 7 100 56 8 0 4 0 0 0 0 0 0 0 0 0 0 0 0 0 0 0 0 0 0 0 0 0 0 0 0 0 0 0 1 0 21 97
0 4 3 3 1 0 4 97 100 50 92 60 5 1 0 0 0 0 0 0 0 0 0 0 0 0 0 0 0 0 0 0 0 0 0 0 0 0 0 0 0 0 0 4 51
0 0 5 44 11 8 31 26 20 100 100 71 100 74 2 0 0 0 0 4 2 5 5 4 4 2 0 0 0 0 0 0 0 0 0 0 0 0 0 0 0 0 0 0 0
0 80 95 99 84 90 12 0 8 81 100 32 57 19 5 5 0 0 0 0 5 2 0 2 81 100 55 3 0 0 0 0 0 0 0 0 0 0 0 0 0 0 0 0 0
0 6 94 100 100 22 100 60 9 6 0 2 3 5 5 5 0 0 0 0 0 10 5 0 0 5 5 5 0 0 0 0 0 0 0 0 0 0 0 0 0 0 0 1 0
2 5 100 99 100 99 95 100 5 2 5 5 0 0 0 3 5 2 0 0 0 0 23 5 2 5 3 3 4 0 0 0 3 0 0 0 0 0 0 0 0 0 0 9 78
2 5 58 33 99 100 62 44 91 100 87 3 0 0 0 0 0 1 2 5 4 0 0 1 7 5 5 0 0 4 5 1 0 0 0 0 0 2 0 0 0 0 0 0 49
0 99 68 100 100 80 91 100 82 100 100 100 32 5 5 1 0 0 0 0 0 5 5 5 0 5 64 10 0 0 2 4 5 1 0 0 0 3 4 0 0 0 0 0 0
0 11 87 16 100 100 100 96 43 38 12 52 31 91 54 4 0 0 0 0 0 0 0 0 0 2 4 59 11 3 0 14 65 5 0 0 0 0 3 1 0 0 0 0 0

GFSSW_prec_cloud_066.txt.gz
Cloud_Cover
0 0 5 1 3 7 4 7 8 5 10 4 12 21 22 88 0 9 0 0 0 0 0 0 0 0 0 3 4 21 82 39 97 100 80 100 100 100 94 100 100 100 100 100 41
0 0 4 8 32 5 7 7 14 4 4 13 30 16 61 74 4 0 0 0 0 0 0 0 0 0 11 24 8 28 63 4 93 100 99 100 100 100 96 98 88 100 100 98 78
6 0 5 8 6 12 8 12 11 7 11 14 84 50 22 3 0 0 0 0 0 0 0 0 0 0 5 28 0 31 7 5 44 29 100 74 89 100 99 95 100 100 100 100 97
5 11 20 10 1 8 8 6 7 14 14 15 89 20 3 0 0 0 0 0 0 0 0 0 0 0 0 0 0 41 0 3 5 5 69 97 5 91 94 53 87 26 88 98 96
5 10 4 10 14 8 11 11 11 6 20 15 97 13 0 0 0 0 0 0 0 0 0 0 0 0 0 0 0 0 0 0 2 5 4 5 28 100 100 97 41 43 10 58 51
9 25 55 28 21 10 9 11 14 16 8 17 100 30 0 0 0 0 0 0 0 0 0 0 0 0 0 0 0 1 0 0 0 5 5 5 30 100 100 95 87 49 7 8 74
93 84 15 22 12 3 4 10 11 19 11 0 69 11 0 0 0 0 0 0 0 0 0 0 0 0 0 0 0 0 0 0 0 0 0 0 35 100 100 100 100 100 53 98 100
66 75 15 15 7 11 15 58 26 22 14 0 28 1 0 0 0 0 0 0 0 0 0 0 0 0 0 0 0 0 0 0 0 0 0 0 13 22 100 100 100 100 79 100 89
25 10 2 3 47 94 87 45 1 2 0 18 5 0 0 0 0 0 0 0 0 0 0 0 0 0 0 0 0 0 0 0 2 0 0 2 46 38 100 100 100 96 98 20 5
12 9 2 20 70 99 79 2 64 10 2 1 0 0 0 0 0 0 0 0 0 0 0 0 0 0 0 0 0 0 0 1 1 0 0 2 5 64 90 100 96 70 100 18 1
0 9 14 30 98 100 57 59 3 0 0 0 0 0 0 0 0 0 0 0 0 0 0 0 0 0 0 0 0 0 0 0 0 0 0 0 4 5 86 93 100 90 63 5 4
5 6 99 30 61 87 21 12 78 23 0 0 0 0 0 0 0 0 0 0 0 0 0 0 0 0 0 0 0 0 0 0 9 2 0 0 0 5 93 100 100 85 99 56 65
33 100 92 100 12 4 86 76 80 5 0 0 0 0 0 0 0 0 0 0 0 0 0 0 0 0 0 0 0 0 0 0 19 5 0 0 0 31 75 7 6 11 100 4 15
51 48 100 100 99 100 100 57 1 0 0 0 0 0 0 0 0 0 0 0 0 0 0 0 0 0 0 0 0 0 0 0 0 5 4 0 0 0 86 82 50 4 5 4 5
77 100 100 100 98 8 1 0 0 0 0 0 0 0 0 4 3 5 0 0 0 0 0 0 0 0 0 0 0 0 0 0 0 5 4 0 0 0 13 32 3 2 3 11 5
100 98 100 42 10 0 0 0 0 3 13 0 0 0 4 5 5 100 77 0 0 0 0 0 0 0 0 0 0 0 0 0 0 4 0 0 0 0 6 0 6 74 51 41 9
98 46 89 0 0 0 0 0 0 64 6 5 4 87 78 30 94 100 100 49 1 0 0 0 0 0 0 0 0 0 0 0 0 0 0 0 0 0 0 0 5 1 2 40 99
58 1 20 0 0 0 0 0 14 99 99 98 5 48 16 96 37 68 96 95 5 0 0 0 0 0 0 0 0 0 0 0 0 0 0 0 0 0 0 0 0 0 2 46 69
0 0 2 0 0 0 0 0 42 100 100 100 86 48 98 18 50 5 3 98 25 5 4 0 0 0 0 0 0 0 0 0 0 0 0 0 0 0 0 0 0 0 0 0 65
0 0 86 15 5 0 0 3 46 100 100 100 100 100 100 60 5 4 0 2 8 5 3 4 0 0 0 0 0 0 0 0 0 0 0 0 0 0 0 0 0 4 0 0 71
0 0 71 100 5 4 5 5 6 97 100 100 100 100 100 100 91 5 0 1 60 60 5 41 97 17 0 0 0 0 0 0 0 0 0 0 0 0 0 0 0 100 28 0 67
0 0 69 100 97 5 33 43 40 11 8 71 24 97 73 4 0 0 0 0 62 27 5 25 100 100 82 3 0 0 0 0 0 0 0 0 0 0 0 0 0 100 100 67 20
0 0 4 100 100 96 30 17 50 56 6 39 99 97 9 5 0 0 0 0 0 20 66 4 10 33 5 24 2 0 0 0 0 0 0 0 0 0 0 0 46 100 100 78 21
0 3 5 81 100 100 100 54 12 37 50 4 4 32 75 17 5 2 2 0 0 0 3 5 5 5 3 0 0 0 0 0 0 0 0 0 0 0 0 0 0 43 100 100 100
0 5 1 6 37 100 100 100 98 80 5 5 5 5 5 84 98 39 5 5 0 0 0 0 4 5 5 1 1 5 5 1 0 0 0 0 0 0 0 0 0 0 74 100 100
0 0 0 5 13 96 100 100 90 76 55 100 84 0 0 3 6 91 47 5 5 5 5 0 0 26 100 82 5 5 5 5 5 5 0 0 0 0 0 0 0 0 0 0 41
0 0 0 0 2 5 21 10 6 88 13 33 84 100 87 2 0 0 3 5 5 5 4 5 5 2 14 52 12 5 0 0 2 5 4 0 0 0 0 0 0 0 0 0 0

GFSSW_prec_cloud_069.txt.gz
Cloud_Cover
0 6 1 0 7 8 10 8 3 6 8 15 22 46 15 80 32 2 0 0 0 0 0 0 0 0 0 5 10 92 27 42 100 6 100 100 100 92 84 98 94 6 99 89 6
4 12 12 6 2 10 8 12 15 13 8 6 33 25 20 96 0 0 0 0 0 0 0 0 0 0 23 8 30 65 40 5 81 100 100 100 100 100 70 98 76 66 48 90 6
4 0 5 9 24 14 8 4 11 14 18 8 21 26 16 19 0 0 0 0 0 0 0 0 0 0 10 36 25 40 10 4 5 40 100 100 86 100 73 72 84 72 53 19 5
11 10 12 4 2 6 31 11 16 8 17 26 18 19 6 0 0 0 0 0 0 0 0 0 0 0 0 0 0 71 13 0 5 5 5 89 22 100 9 85 100 62 0 5 5
6 33 46 95 100 17 10 11 20 18 16 26 22 1 0 0 0 0 0 0 0 0 0 0 0 0 0 0 0 60 11 0 0 5 5 43 21 45 78 73 96 34 5 22 75
99 99 22 60 18 13 15 17 15 11 22 21 81 0 0 0 0 0 0 0 0 0 0 0 0 0 0 0 0 0 0 0 0 2 10 100 97 56 29 94 94 5 5 39 100
100 70 20 97 5 30 89 100 96 7 17 22 100 4 0 0 0 0 0 0 0 0 0 0 0 0 0 0 0 0 0 0 0 0 3 17 4 75 68 89 100 34 6 29 44
100 100 40 37 30 100 100 100 67 100 56 1 92 2 0 0 0 0 0 0 0 0 0 0 0 0 0 0 0 0 0 0 0 0 0 0 3 5 17 94 99 100 40 16 25
100 45 92 100 100 100 100 8 37 0 1 32 6 0 0 0 0 0 0 0 0 0 0 0 0 0 0 0 0 0 0 0 2 0 0 0 2 16 47 94 100 100 97 86 92
63 0 37 100 100 100 23 4 13 2 18 5 0 0 0 0 0 0 0 0 0 0 0 0 0 0 0 0 0 0 0 0 0 0 0 0 26 38 40 72 100 100 100 99 98
5 15 95 100 100 100 14 0 0 0 0 0 0 0 0 0 0 0 0 0 0 0 0 0 0 0 0 0 0 0 0 0 0 0 0 2 11 96 10 43 74 90 43 100 8
46 82 100 100 100 75 3 1 1 5 0 0 0 0 79 18 0 0 0 0 0 0 0 0 0 0 0 0 0 0 0 0 0 0 0 0 4 76 24 91 100 28 22 5 5
48 100 100 100 12 8 40 84 59 5 5 0 0 0 0 0 0 0 0 0 0 0 0 0 0 0 0 0 0 0 0 0 0 0 2 0 1 5 5 100 100 64 82 9 11
100 100 100 98 6 6 64 12 5 7 69 1 0 0 0 0 0 0 0 0 0 0 0 0 0 0 0 0 0 0 0 0 0 5 5 0 0 5 5 91 100 90 85 58 100
100 100 100 98 0 0 2 7 5 9 52 29 21 4 5 3 0 0 0 0 0 0 0 0 0 0 0 0 0 0 0 0 0 5 0 0 0 0 5 74 99 80 75 59 12
100 100 98 31 0 0 0 0 0 0 0 0 4 2 5 14 5 0 1 0 0 0 0 0 0 0 0 0 0 0 0 0 0 0 0 0 0 0 0 6 7 6 23 28 5
100 88 10 0 0 0 0 0 0 1 0 0 7 8 100 100 100 11 5 5 2 0 0 0 0 0 0 0 0 0 0 0 0 0 0 0 0 0 0 0 1 5 5 5 1
32 0 0 0 0 0 0 0 0 2 27 52 99 100 100 100 100 100 32 29 57 14 0 0 0 0 0 0 0 0 0 0 0 0 0 0 0 0 0 0 3 5 5 21 36
0 0 2 1 3 0 1 0 5 71 100 100 100 100 100 100 98 99 84 100 100 100 95 0 0 0 0 0 0 0 0 0 0 0 0 0 0 0 0 0 1 23 4 4 5
0 2 38 57 17 46 5 20 16 100 100 100 100 100 100 99 88 98 100 100 100 100 100 67 0 0 0 0 0 0 0 0 0 0 0 0 0 0 0 0 36 100 41 0 5
0 0 67 67 65 100 16 97 5 99 100 100 100 100 100 100 100 100 100 100 100 100 100 100 68 0 0 0 0 0 0 0 0 0 0 0 0 0 0 66 78 66 100 88 56
0 0 5 94 97 100 82 6 43 59 43 78 100 100 100 100 100 100 100 100 100 100 100 100 100 88 5 1 0 0 0 0 0 0 0 0 0 0 0 64 100 100 100 100 100
0 0 2 100 66 48 100 100 40 5 62 97 27 40 100 100 100 100 100 100 100 98 100 100 100 100 71 14 4 0 0 0 0 0 0 0 0 0 0 0 34 100 100 100 100
0 0 0 99 99 15 19 100 100 68 63 72 100 100 100 98 100 100 86 80 90 43 86 87 100 100 100 58 5 5 0 0 0 0 0 0 0 0 0 0 0 2 100 100 100
0 0 0 2 48 100 17 5 76 100 88 88 97 100 100 100 91 78 10 1 0 0 0 1 22 75 66 22 5 0 2 0 0 0 0 0 0 0 0 0 0 0 0 87 100
0 0 0 0 0 6 82 100 96 52 77 90 70 94 66 100 100 100 6 4 0 0 0 0 0 4 71 74 16 5 21 0 5 3 0 0 0 0 0 0 0 0 0 0 0
0 0 0 0 0 0 0 4 5 5 5 13 14 45 92 99 93 100 100 62 5 4 4 0 0 0 5 5 5 0 0 2 4 5 5 3 0 0 0 0 0 0 0 0 0

GFSSW_prec_cloud_072.txt.gz
Cloud_Cover
11 10 15 12 11 14 15 18 19 4 13 18 22 4 0 0 4 0 0 0 0 0 0 0 0 0 35 27 85 32 73 100 100 53 100 82 100 43 47 48 50 44 100 10 72
12 15 32 16 13 15 17 12 14 16 10 21 25 7 4 1 0 0 0 0 0 0 0 0 0 0 0 5 70 99 73 86 98 100 100 100 100 100 88 19 20 27 42 4 9
1 10 16 11 12 10 15 21 14 17 16 18 21 15 0 12 0 0 0 0 0 0 0 0 0 0 0 4 64 69 95 88 75 66 100 98 100 100 100 27 30 9 6 0 1
26 65 81 94 9 20 18 15 17 21 20 18 19 6 0 0 0 0 0 0 0 0 0 0 0 0 0 0 38 13 3 31 26 78 100 100 25 81 100 100 97 59 19 1 1
77 57 18 5 13 10 0 14 18 17 19 23 2 0 14 0 0 0 0 0 0 0 0 0 0 0 0 0 11 46 0 0 4 5 47 96 100 97 98 95 100 14 9 3 5
100 100 28 14 15 14 26 86 100 90 21 18 0 0 0 0 0 0 0 0 0 0 0 0 0 0 0 0 9 49 18 0 0 2 78 100 88 90 97 100 41 63 5 3 70
100 100 100 100 91 98 100 100 96 100 46 19 0 0 0 0 0 0 0 0 0 0 0 0 0 0 0 0 0 0 7 0 0 2 33 100 21 53 18 100 64 94 40 5 14
100 100 99 99 100 100 100 90 47 76 100 11 11 0 0 0 0 0 0 0 0 0 0 0 0 0 0 0 0 0 0 2 0 0 2 34 27 9 100 100 95 100 21 15 5
100 27 100 100 100 84 73 85 58 11 18 66 3 0 0 0 0 0 0 0 0 0 0 0 0 0 0 0 0 0 3 5 0 0 0 14 31 50 45 94 100 100 83 43 5
15 39 98 100 100 96 13 10 14 8 0 0 0 0 0 0 0 0 0 0 0 0 0 0 0 0 0 0 0 0 4 40 3 0 0 0 32 5 20 28 65 100 99 100 18
4 99 100 100 100 100 2 0 0 0 0 0 0 0 0 0 0 0 0 0 0 0 0 0 0 0 0 0 0 0 2 9 0 1 2 8 0 52 19 23 77 100 99 100 97
100 100 100 95 100 10 11 0 0 0 0 0 0 0 0 0 0 0 0 0 0 0 0 0 0 0 0 0 0 0 0 4 0 0 3 4 1 24 71 44 35 100 100 97 100
100 98 100 100 29 29 5 4 0 1 4 0 0 0 0 0 0 0 0 0 0 0 0 0 0 0 0 0 0 0 0 4 3 1 0 0 2 5 97 27 77 86 86 97 100
100 100 100 8 48 0 5 0 1 5 36 4 0 0 0 0 0 0 0 0 0 0 0 0 0 0 0 0 0 0 0 0 0 0 0 0 96 0 50 86 98 98 72 99 92
100 100 96 52 0 0 0 0 0 2 0 8 56 83 6 5 0 0 0 0 0 0 0 0 0 0 0 0 0 29 0 0 0 0 3 0 15 10 12 90 100 100 98 88 99
100 100 96 30 0 0 0 0 0 0 2 5 5 24 88 27 5 0 0 0 0 0 0 1 0 0 0 0 0 16 0 0 0 0 0 0 1 8 3 7 100 89 70 65 98
100 88 49 0 0 0 0 0 0 2 0 0 5 5 17 5 6 5 0 0 1 1 1 0 0 0 0 0 0 0 0 0 0 0 0 1 0 4 0 6 87 91 30 35 67
52 15 1 0 0 0 0 0 33 0 0 0 0 74 49 26 70 74 2 2 4 2 42 0 0 0 0 0 0 0 2 0 0 0 0 0 0 0 0 0 1 73 6 5 36
37 0 0 0 24 3 2 53 0 4 5 5 49 100 49 100 99 82 32 6 5 10 62 8 6 0 0 0 0 0 3 19 2 2 0 0 0 0 0 0 0 8 3 63 100
0 0 0 5 44 43 5 5 41 55 95 75 99 89 100 100 95 100 97 36 99 100 100 64 31 0 0 0 0 0 0 1 0 1 0 1 1 0 0 0 0 77 95 94 100
0 4 0 100 84 100 20 5 6 99 100 100 100 100 100 99 100 96 100 97 100 100 100 100 42 0 0 0 0 0 0 0 2 1 0 4 23 0 0 23 37 90 100 100 76
0 1 4 17 99 100 49 5 2 5 100 100 100 100 100 100 100 100 100 100 76 100 99 98 86 76 3 0 0 0 0 0 0 4 0 6 9 0 0 62 100 100 100 100 100
0 0 2 99 36 99 100 48 5 18 20 60 75 100 99 100 100 100 100 99 100 71 100 98 77 100 100 2 0 0 0 0 0 0 7 0 1 0 0 8 100 100 100 100 100
0 0 0 2 10 30 100 100 65 5 52 76 33 56 77 99 100 100 100 100 97 100 5 65 100 100 76 100 3 0 0 0 0 0 34 18 0 0 0 0 35 100 100 100 100
0 0 0 0 0 54 7 97 100 100 96 26 100 100 94 96 40 50 65 100 100 100 99 5 89 100 100 98 100 16 0 0 0 0 2 46 0 0 0 0 0 2 98 100 100
0 0 0 0 0 0 0 8 52 74 99 100 50 100 100 100 100 100 73 5 5 18 5 5 3 5 99 100 100 100 54 0 0 0 0 0 0 0 0 0 0 0 0 1 98
3 0 0 0 0 0 0 0 0 5 15 5 67 82 100 100 100 100 100 52 3 0 0 0 2 5 6 100 100 100 100 100 100 100 4 1 0 0 0 0 0 0 0 0 0

GFSSW_prec_cloud_075.txt.gz
Cloud_Cover
16 18 21 19 13 16 20 15 15 18 19 5 8 0 0 0 0 0 0 0 0 0 5 0 0 4 5 75 53 52 91 94 99 89 99 100 100 94 74 99 100 100 46 7 73
14 7 18 17 23 15 18 19 19 17 13 16 0 0 0 0 0 0 0 0 0 0 0 0 0 0 6 43 90 63 100 95 100 15 100 98 100 99 80 100 100 82 98 8 3
11 12 12 17 18 18 11 18 16 16 19 15 12 0 0 6 0 0 0 0 0 0 0 0 0 0 3 71 68 99 100 100 96 89 100 100 100 100 99 100 100 100 79 5 5
89 19 12 4 12 14 4 21 22 24 17 17 5 0 0 0 0 0 0 0 0 0 0 0 0 0 4 39 37 94 90 98 88 74 97 100 100 85 100 92 96 100 56 6 5
100 100 100 55 12 5 20 22 50 44 78 15 2 0 5 0 0 0 0 0 0 0 0 0 0 0 0 21 64 97 100 26 5 5 44 99 95 97 100 100 96 85 48 10 5
100 100 100 91 87 65 30 64 100 45 18 14 0 0 0 0 0 0 0 0 0 0 0 0 0 0 0 0 40 81 82 65 17 28 41 100 100 99 95 100 100 50 88 13 19
100 100 100 100 100 100 100 100 32 97 99 24 0 0 0 0 0 0 0 0 0 0 0 0 0 0 0 0 1 25 84 2 4 0 84 88 100 100 98 93 70 99 84 43 95
100 100 100 100 100 100 100 63 0 39 39 24 2 0 0 0 0 0 0 0 0 0 0 0 0 0 0 0 0 0 1 79 26 0 5 61 82 100 97 16 100 94 57 82 100
7 13 100 100 100 100 92 0 22 1 0 0 3 0 0 0 0 0 0 0 0 0 0 0 0 0 0 0 0 0 5 43 76 1 18 34 91 98 21 21 99 100 100 100 100
24 30 100 100 100 100 9 3 14 44 0 0 0 0 0 0 0 0 0 0 0 0 0 0 0 0 0 0 0 0 3 60 100 3 5 30 94 94 32 22 99 96 100 100 100
100 100 72 100 100 68 25 5 2 4 0 0 0 0 0 0 0 0 0 0 0 0 0 0 0 0 0 0 0 4 2 100 100 16 39 95 80 10 60 25 100 99 100 100 100
100 100 100 100 96 61 16 5 5 4 2 0 0 0 0 0 0 0 0 0 0 0 0 0 0 0 0 0 0 0 5 55 59 52 62 75 16 1 18 98 24 84 100 93 100
100 100 100 88 6 35 5 59 39 86 26 0 0 0 0 0 0 0 0 0 0 0 0 0 0 0 0 0 0 0 5 74 70 0 2 52 69 4 8 11 99 60 84 100 100
100 99 18 0 52 0 0 1 10 5 5 2 0 0 0 0 0 0 0 0 0 0 0 0 0 0 0 0 4 4 1 67 59 7 5 1 72 48 8 16 29 36 100 100 100
100 92 0 82 0 0 0 0 0 0 14 3 3 2 0 0 0 0 0 0 0 0 0 0 0 0 0 0 2 5 0 7 99 4 7 62 4 76 89 63 23 37 95 100 100
79 97 29 0 0 0 0 0 0 0 74 12 5 5 5 5 1 1 0 0 0 0 1 0 0 0 0 0 1 24 74 5 5 5 3 32 0 26 100 54 41 5 22 94 98
0 0 40 0 0 0 0 0 1 71 81 10 4 5 5 94 5 3 0 0 0 4 1 0 4 0 0 0 3 31 53 5 5 5 2 5 3 85 72 0 5 22 92 89 100
0 39 0 0 0 0 0 9 100 71 82 2 0 5 5 20 90 9 5 0 2 19 85 0 0 0 0 3 57 5 6 1 3 2 4 90 69 0 1 4 0 5 95 88 100
38 0 0 0 5 3 20 100 94 2 1 0 0 98 100 100 100 100 93 77 99 13 51 100 78 6 4 26 92 21 5 4 100 66 52 98 12 5 7 0 0 1 58 50 97
0 5 2 2 5 7 85 43 1 0 0 16 69 100 100 100 91 100 100 100 92 6 4 94 100 0 0 4 45 65 61 12 88 98 100 100 1 18 7 11 0 0 8 24 28
0 48 0 2 77 78 98 19 4 26 36 83 97 98 12 100 100 100 100 7 92 100 63 88 100 47 2 0 0 1 4 5 99 45 100 100 89 0 0 0 0 32 0 5 87
0 97 4 0 41 100 88 2 4 99 100 100 93 98 95 77 93 71 100 10 7 83 100 92 90 82 1 4 0 0 4 4 5 3 42 100 100 44 37 0 0 100 66 80 100
0 0 0 0 100 6 97 44 2 22 4 75 88 100 100 100 100 96 94 5 73 5 22 70 100 100 18 1 0 0 0 1 5 73 71 51 53 78 20 36 1 88 100 56 84
5 4 0 0 0 1 10 100 49 5 20 4 34 100 75 100 100 100 100 68 98 91 5 87 88 96 100 98 37 4 0 0 4 6 29 52 20 8 7 13 58 100 100 99 100
5 0 0 0 0 0 4 1 100 19 89 11 62 20 66 100 100 93 100 100 98 100 83 44 53 88 54 5 21 88 4 0 0 0 100 100 20 1 1 0 14 96 92 100 95
16 2 0 0 0 0 0 0 4 53 33 71 54 99 78 63 93 100 62 84 100 99 100 19 100 100 79 10 89 73 1 0 0 2 4 100 100 61 0 0 0 1 97 94 89
25 2 0 0 0 0 0 0 0 0 5 5 33 90 100 100 100 62 5 5 7 99 100 90 67 94 100 100 100 86 100 78 0 0 58 96 33 0 0 0 0 0 0 0 82

GFSSW_prec_cloud_078.txt.gz
Cloud_Cover
4 0 10 21 22 14 14 4 11 17 12 11 8 0 0 0 0 0 0 0 0 0 0 0 0 2 30 43 37 54 74 100 100 100 95 100 99 89 83 80 60 97 64 0 5
17 15 10 3 8 17 20 17 12 13 10 13 10 0 0 0 0 0 0 0 0 0 0 0 0 0 27 14 30 100 100 100 62 100 100 100 100 100 91 99 100 100 43 15 5
47 12 25 13 6 9 9 22 17 11 11 16 11 0 0 0 0 0 0 0 0 0 0 0 0 0 38 42 46 100 98 99 60 97 100 100 98 100 100 100 48 58 11 4 4
100 100 100 88 31 11 9 16 18 14 14 13 11 0 0 0 0 0 0 0 0 0 0 0 0 0 26 98 36 94 21 59 95 41 45 74 96 100 100 100 100 98 6 5 17
100 100 100 100 99 48 21 16 25 35 9 7 4 1 0 0 0 0 0 0 0 0 0 0 0 0 1 98 78 91 96 95 35 49 28 61 8 100 91 100 100 99 39 2 57
100 100 100 100 100 100 100 100 93 18 18 8 2 0 0 0 0 0 0 0 0 0 0 0 0 0 3 100 40 37 32 92 43 100 68 97 99 53 95 98 95 100 62 19 91
100 25 100 100 100 100 100 100 16 34 100 41 11 0 0 0 0 0 0 0 0 0 0 0 0 0 0 3 86 2 82 59 19 32 6 44 100 6 69 100 96 100 100 24 100
3 55 93 100 100 90 65 21 0 65 64 63 2 0 0 0 0 0 0 0 0 0 0 0 0 0 0 0 3 59 25 91 36 4 5 3 81 96 76 81 83 96 35 57 100
2 23 95 100 100 41 0 0 0 82 0 20 0 0 0 0 0 0 0 0 0 0 0 0 0 0 0 0 0 0 5 10 96 71 4 7 5 100 100 100 68 80 87 6 41
99 100 100 100 100 36 0 0 0 35 2 0 0 0 0 0 0 0 0 0 0 0 0 0 0 0 0 0 0 0 0 91 10 81 78 10 12 100 100 18 100 92 93 62 36
98 78 98 98 100 59 2 0 0 0 0 0 0 0 0 0 0 0 0 0 0 0 0 0 0 0 0 0 0 4 1 72 36 27 68 11 27 100 100 97 5 89 100 27 98
96 99 88 13 6 1 9 3 0 0 0 0 0 0 0 0 0 0 0 0 0 0 0 0 0 0 0 0 0 0 73 79 76 100 100 11 52 98 98 100 72 100 100 95 100
100 86 45 0 8 37 0 15 7 0 0 0 0 0 0 0 0 0 0 0 0 0 0 0 0 0 0 0 0 0 0 54 69 100 100 98 66 100 100 100 91 58 74 91 97
100 100 15 1 22 0 0 0 18 40 1 5 0 0 0 0 0 0 0 0 0 0 0 0 0 0 0 0 0 0 0 65 44 100 36 26 83 60 32 6 43 59 4 79 86
79 97 40 82 0 0 0 0 0 0 61 19 5 2 0 0 2 0 0 0 0 0 0 0 0 0 0 0 0 0 3 64 8 98 5 0 22 13 11 99 16 2 29 83 66
4 2 36 11 0 0 0 0 0 0 97 84 17 6 18 5 2 3 0 0 0 2 0 0 0 0 0 0 4 5 5 40 100 100 23 35 73 35 5 95 88 62 6 85 38
5 0 51 0 0 0 0 0 32 69 100 98 35 19 6 25 81 12 3 0 0 4 10 4 0 0 0 0 1 4 5 4 35 90 31 31 100 94 1 54 100 100 57 44 100
6 44 2 0 0 0 0 42 100 76 65 93 81 12 30 10 57 52 5 1 0 5 70 25 1 3 0 0 0 5 5 33 5 5 5 8 15 3 32 99 100 100 80 71 99
32 1 0 0 0 1 43 100 100 100 100 18 0 72 64 89 96 37 97 85 16 22 100 92 39 10 0 0 0 27 9 63 100 3 16 47 34 14 78 66 100 100 100 16 74
2 0 1 0 0 91 71 55 100 100 10 5 86 95 100 100 99 99 100 100 100 100 1 67 25 97 2 0 8 82 18 23 89 88 21 100 0 3 8 0 36 60 2 49 100
5 28 16 0 9 63 79 67 18 1 3 33 29 37 99 100 98 93 100 80 88 39 3 44 45 92 90 0 0 24 90 7 61 95 62 100 94 8 84 5 0 0 0 65 82
28 91 2 0 77 52 73 5 0 96 31 4 5 66 100 64 0 6 84 96 97 98 100 99 76 100 78 4 0 95 93 56 0 3 48 100 100 91 98 3 0 2 8 99 99
100 5 2 1 90 100 3 100 10 44 58 100 58 76 42 2 77 100 100 38 100 100 100 20 31 88 98 66 0 0 0 5 65 80 27 100 31 5 58 98 20 38 70 92 100
98 100 3 0 0 2 2 3 97 28 22 6 26 100 100 18 87 97 82 29 10 82 100 100 100 100 41 93 64 0 0 0 0 26 93 96 80 7 5 8 69 100 88 60 53
99 5 2 6 0 0 0 0 1 45 43 20 2 40 91 85 100 100 100 0 62 38 5 100 100 100 100 100 62 58 2 1 0 0 100 100 33 2 40 16 23 23 91 59 24
98 11 0 5 0 4 0 0 4 0 5 17 59 18 99 100 86 55 77 92 100 34 5 76 92 100 100 100 68 82 100 87 4 0 100 22 34 44 0 0 9 24 0 0 0
91 54 0 5 3 2 0 0 0 0 0 5 8 100 58 56 37 100 93 92 100 100 62 100 99 41 89 100 100 100 32 16 5 21 100 39 54 66 2 14 8 0 0 0 0

GFSSW_prec_cloud_081.txt.gz
Cloud_Cover
19 20 20 20 23 18 18 16 10 9 14 16 15 20 0 0 0 0 0 0 0 0 0 0 0 5 10 5 61 100 100 100 100 100 99 84 56 63 100 40 100 88 5 6 96
16 17 18 19 12 11 17 17 12 13 20 22 16 17 3 0 0 0 0 0 0 0 0 0 0 4 56 10 100 100 57 100 100 100 100 82 100 94 100 24 98 24 5 29 100
100 100 100 100 88 13 15 5 12 18 21 20 16 17 0 0 0 0 0 0 0 0 0 0 0 0 7 28 71 100 100 100 100 100 100 100 72 100 100 68 30 89 5 27 94
100 100 100 100 100 58 47 12 26 36 22 18 24 0 0 0 0 0 0 0 0 0 0 0 0 0 0 60 76 100 100 100 100 100 66 98 38 100 100 75 26 37 5 2 99
100 100 100 100 100 60 100 95 89 77 19 20 24 0 0 0 0 0 0 0 0 0 0 0 0 0 1 9 64 10 100 100 100 96 48 57 61 25 92 98 96 32 5 5 100
100 100 100 100 100 93 98 100 100 34 40 86 22 0 0 0 0 0 0 0 0 0 0 0 0 0 0 93 98 54 100 100 100 100 6 7 31 40 90 18 12 99 11 5 5
8 22 100 100 100 100 100 69 14 28 100 100 64 7 0 0 0 0 0 0 0 0 0 0 0 0 1 79 100 100 99 100 100 80 22 13 23 7 98 96 100 99 5 82 97
53 100 100 100 100 100 96 0 0 27 100 94 56 0 0 0 0 0 0 0 0 0 0 0 0 0 0 5 58 100 67 92 23 29 5 4 74 100 31 43 100 100 17 99 100
100 100 100 100 100 99 19 0 0 11 48 36 3 0 0 0 0 0 0 0 0 0 0 0 0 0 0 0 2 43 28 20 94 100 18 0 4 100 100 39 93 100 98 83 98
100 100 100 100 98 53 0 0 0 0 4 0 0 0 0 0 0 0 0 0 0 0 0 0 0 0 0 0 0 0 0 16 97 100 97 4 52 95 100 100 100 100 100 35 63
100 100 100 72 1 0 0 0 0 0 0 0 0 0 0 0 0 0 0 0 0 0 0 0 0 0 0 0 0 0 4 54 100 100 100 23 87 34 100 100 100 100 100 45 19
100 100 100 84 0 1 16 0 0 0 0 0 0 0 0 0 0 0 0 0 0 0 0 0 0 0 0 0 0 0 5 94 100 100 11 89 85 29 100 100 96 100 98 42 64
100 100 100 7 20 38 0 0 0 0 0 0 0 0 0 0 0 0 0 0 0 0 0 0 0 0 0 0 0 0 0 92 47 60 27 98 88 5 75 100 100 76 89 34 94
39 100 100 41 15 0 0 0 0 0 2 0 0 0 0 0 0 0 0 0 0 0 0 0 0 0 0 0 0 0 0 80 33 50 100 100 90 3 10 100 100 100 41 26 98
20 23 22 82 0 0 0 0 0 0 66 3 0 0 0 0 0 0 0 0 0 0 0 0 0 0 0 0 0 0 4 99 89 67 100 41 54 5 16 99 100 100 85 24 48
26 6 52 2 2 0 0 0 0 97 59 92 3 0 0 4 2 4 2 0 0 0 0 0 0 0 0 0 0 0 7 98 28 100 74 5 31 5 0 5 76 100 100 90 11
5 39 85 0 0 0 0 2 42 45 74 62 58 3 0 0 5 11 12 0 0 0 0 0 0 0 0 0 0 0 15 53 82 100 11 79 89 98 12 4 31 100 100 86 100
5 64 97 89 0 0 4 20 95 94 100 97 56 24 4 1 56 100 8 4 4 0 4 0 0 0 0 0 0 0 5 46 98 18 88 98 91 7 7 94 60 37 100 100 100
5 51 100 4 0 0 2 100 100 100 100 98 100 100 3 42 26 98 100 61 76 58 31 98 2 0 0 0 0 0 0 11 100 5 88 23 0 0 1 2 0 22 100 100 95
31 100 100 0 0 60 3 36 100 100 100 100 62 6 72 100 98 94 100 100 100 100 48 5 5 4 5 0 0 0 0 2 5 34 100 14 4 11 64 82 26 30 100 100 100
84 98 100 0 0 84 52 8 94 48 100 100 8 39 96 100 51 96 82 100 40 2 2 5 44 18 28 0 0 3 9 0 2 5 64 98 10 20 91 21 1 0 100 100 100
100 100 97 4 49 98 50 90 2 38 13 88 6 32 73 44 51 66 8 100 99 20 5 8 26 3 50 67 0 86 18 21 0 5 100 100 26 92 100 87 10 0 99 100 100
100 100 55 7 51 83 77 1 55 0 5 6 62 4 6 97 36 5 8 92 58 17 81 76 98 100 97 88 5 8 97 68 2 38 100 96 36 40 78 100 38 5 42 100 100
100 100 82 50 4 33 1 11 5 36 5 7 94 20 40 57 100 100 62 31 95 100 100 100 100 100 71 76 9 5 33 4 4 42 100 69 6 8 72 66 5 5 48 100 100
100 100 10 12 3 0 0 0 2 49 8 15 5 4 93 8 62 80 10 7 83 100 100 100 100 100 100 99 11 4 5 5 0 74 83 70 5 4 5 5 40 21 59 100 100
100 100 78 1 56 5 0 0 0 0 47 99 4 0 69 100 5 100 30 50 94 96 100 100 100 100 100 88 5 5 0 13 89 100 99 30 2 0 5 17 100 100 100 100 81
100 100 100 1 38 1 0 0 0 0 0 18 24 46 74 99 100 87 11 36 24 0 3 97 47 78 100 100 100 21 95 99 54 100 20 0 0 1 0 3 67 100 100 28 52

GFSSW_prec_cloud_084.txt.gz
Cloud_Cover
48 19 83 94 28 14 16 12 11 20 16 14 23 16 11 0 0 0 0 0 0 0 0 0 5 5 3 67 100 100 100 100 100 81 92 73 100 92 100 95 84 47 88 0 0
100 100 100 100 100 100 18 15 16 18 15 16 23 18 17 0 6 0 0 0 0 0 0 0 4 9 5 5 15 28 100 100 100 100 66 62 100 100 80 96 68 92 66 3 0
100 100 100 100 100 100 100 89 16 32 22 21 22 20 17 0 0 0 0 0 0 0 0 0 0 56 5 29 5 25 86 100 100 100 91 37 65 88 60 96 27 100 48 5 5
100 100 100 100 100 100 99 100 99 40 25 23 18 16 0 0 0 0 0 0 0 0 0 0 0 2 0 4 1 11 95 100 100 100 100 72 100 100 100 74 93 80 58 14 70
5 22 21 100 11 93 100 100 100 100 68 37 45 12 0 0 0 0 0 0 0 0 0 0 0 0 0 3 4 11 100 99 88 100 100 100 89 100 98 93 67 30 29 5 14
27 62 100 100 100 100 100 100 100 100 48 100 100 5 1 0 0 0 0 0 0 0 0 0 0 0 0 2 12 68 100 87 100 97 100 87 41 87 93 100 94 97 16 6 98
99 100 100 100 100 100 100 100 100 70 97 100 100 0 0 0 0 0 0 0 0 0 0 0 0 0 0 1 5 96 92 89 100 100 100 100 90 75 99 50 91 100 74 98 100
100 100 100 100 100 100 100 82 6 24 100 100 95 0 0 0 0 0 0 0 0 0 0 0 0 0 0 0 2 21 87 98 100 92 99 100 100 100 26 82 64 100 67 74 9
100 100 100 100 100 100 32 0 0 3 98 57 1 0 0 0 0 0 0 0 0 0 0 0 0 0 0 0 0 43 76 93 99 95 100 100 96 100 100 82 80 100 83 100 97
100 100 100 100 99 20 0 0 0 0 6 1 0 0 0 0 0 0 0 0 0 0 0 0 0 0 0 0 0 0 15 61 100 100 100 100 100 100 100 100 100 100 67 100 100
100 100 100 100 91 0 4 0 0 0 0 0 1 0 0 0 0 0 0 0 0 0 0 0 0 0 0 0 0 0 0 96 100 100 100 100 100 98 100 100 88 100 100 100 100
100 100 100 100 89 23 20 0 0 0 0 0 0 0 0 0 0 0 0 0 0 0 0 0 0 0 0 0 0 0 4 98 96 78 100 97 98 91 100 100 100 100 95 100 100
98 74 100 100 100 48 0 0 0 0 0 0 0 0 0 0 0 0 0 0 0 0 0 0 0 0 0 0 0 0 4 38 34 75 43 94 46 91 8 79 100 91 100 100 100
100 95 54 74 17 14 30 0 0 0 0 0 0 0 0 49 0 0 0 0 0 0 0 0 0 0 0 0 0 0 4 5 11 81 66 91 94 66 5 24 100 99 100 95 77
65 19 12 91 13 73 64 0 0 0 0 0 0 0 0 6 77 0 0 0 0 0 0 0 0 0 0 0 0 0 5 95 5 5 26 79 13 98 71 97 100 98 100 88 45
27 1 43 5 95 100 51 0 0 3 1 3 4 0 0 0 5 5 0 0 0 0 0 0 0 0 0 0 0 0 71 88 26 5 9 27 88 82 92 41 78 100 93 82 100
7 13 82 64 100 100 0 0 1 98 43 79 92 3 0 0 5 5 12 0 0 0 0 0 0 0 0 0 0 0 53 28 4 30 56 92 47 73 30 39 87 88 100 94 100
97 99 19 98 100 27 0 19 36 72 100 86 8 0 0 0 40 40 99 50 0 0 0 0 0 0 0 0 0 0 12 8 5 96 11 100 37 97 7 5 9 100 98 100 100
100 100 98 100 99 0 0 2 47 92 100 44 51 98 97 90 100 84 85 100 100 87 0 0 0 0 0 0 0 0 0 12 98 72 82 42 68 8 19 10 49 73 61 100 89
95 100 97 100 99 4 0 0 73 86 100 88 53 5 56 50 87 32 46 73 100 15 2 0 0 0 0 0 0 0 0 54 64 5 1 7 3 8 43 8 19 42 99 100 100
98 100 100 100 100 3 13 73 5 100 100 80 31 63 28 66 38 100 6 4 5 5 5 0 0 0 0 0 0 0 0 3 71 6 4 2 30 43 0 0 98 63 87 100 100
99 100 100 100 84 5 52 1 6 22 7 14 59 18 8 95 100 100 91 5 5 5 5 5 5 1 1 5 0 0 6 79 100 94 5 75 86 92 5 6 5 85 42 100 100
100 100 97 100 6 14 4 5 0 5 0 5 14 96 87 61 100 92 91 19 100 100 63 59 97 43 21 100 2 1 8 87 69 5 20 9 73 56 28 61 55 27 46 100 100
100 100 100 40 63 8 5 2 1 1 2 5 5 5 20 98 96 100 10 12 28 93 100 82 100 100 100 89 14 5 5 86 95 83 24 4 98 81 14 5 100 72 94 100 100
100 100 100 100 71 19 0 0 0 0 1 2 8 10 5 2 100 100 95 12 5 5 76 100 99 86 100 94 10 4 100 2 0 5 5 0 4 2 8 5 5 41 65 98 100
100 100 92 100 100 4 0 0 0 0 0 0 6 5 69 51 21 100 100 83 34 2 5 32 100 100 100 100 91 44 3 80 66 49 0 0 16 0 0 5 5 29 11 85 100
100 100 14 100 75 8 0 0 0 0 0 3 94 5 0 16 14 96 90 32 8 21 4 85 8 98 100 100 100 100 86 24 8 62 1 3 0 0 0 5 28 41 100 99 100

GFSSW_prec_cloud_087.txt.gz
Cloud_Cover
100 100 100 100 100 100 100 6 29 89 74 98 52 20 21 16 0 0 0 1 1 0 0 0 4 34 78 100 95 100 100 96 95 82 91 100 100 100 86 47 100 5 5 1 0
100 100 100 100 100 100 100 100 100 100 85 100 94 25 23 19 15 0 0 1 3 0 0 0 5 4 62 100 100 100 100 100 100 96 92 100 100 100 97 9 98 6 10 4 3
100 100 100 100 100 100 100 100 100 100 100 100 100 21 22 12 0 0 0 1 5 2 0 0 3 5 3 26 72 70 100 100 100 100 99 96 100 100 42 46 21 99 91 76 62
28 30 43 90 100 100 100 100 100 100 100 100 42 17 0 19 0 0 0 0 5 5 0 0 0 4 5 5 5 5 100 100 100 100 100 96 100 100 100 100 7 29 51 8 53
100 100 100 100 100 100 100 100 100 100 100 100 89 81 0 0 0 0 0 0 5 5 4 0 0 1 4 6 5 5 78 83 100 99 100 100 100 100 100 100 22 5 5 38 15
100 100 100 100 100 100 100 100 100 100 100 100 100 65 0 0 0 0 0 0 3 5 5 5 0 0 4 4 20 6 45 97 100 100 100 100 100 100 100 100 100 36 5 41 30
100 100 100 100 100 100 100 100 100 100 100 100 100 11 0 0 0 0 0 0 0 5 60 5 0 0 2 4 5 9 67 87 98 100 100 100 100 100 100 100 100 100 5 22 94
100 75 96 100 100 100 100 93 12 96 100 100 95 0 0 0 0 0 0 0 0 0 4 0 0 0 0 2 3 1 27 100 100 100 100 100 100 100 100 100 100 55 75 12 100
100 100 100 100 100 100 19 0 17 22 100 100 6 0 0 0 0 0 0 0 0 0 0 0 0 22 0 0 3 0 6 26 100 100 100 100 100 100 100 100 100 66 92 100 48
100 100 100 100 100 100 0 0 0 0 1 1 0 2 0 0 0 0 0 0 0 0 0 0 0 0 0 0 1 2 12 89 100 96 100 100 100 100 100 100 100 100 100 66 100
100 100 100 100 100 95 5 0 0 0 0 0 0 0 0 0 0 0 0 0 0 0 0 0 0 0 0 2 0 4 5 5 33 100 100 100 100 100 100 100 100 100 100 100 100
100 100 100 100 100 100 55 0 0 0 0 0 0 0 0 0 0 0 0 0 0 0 0 0 0 0 0 0 0 3 5 9 5 99 100 100 100 100 100 91 97 100 100 100 100
100 100 100 100 100 57 3 0 4 0 0 0 0 0 0 6 0 0 0 0 0 0 0 0 0 0 0 0 0 0 5 20 19 68 100 100 100 100 100 100 100 100 100 100 51
100 75 33 54 17 2 5 1 10 86 0 0 0 0 0 0 22 0 0 0 0 0 0 0 0 0 0 0 0 0 10 89 47 57 78 100 100 100 100 100 100 99 100 100 63
37 23 24 96 45 5 5 67 86 22 3 0 0 0 0 0 37 35 1 0 0 0 0 0 0 0 0 0 0 0 5 100 6 5 5 44 100 68 100 100 100 94 100 55 100
14 77 85 51 45 43 4 10 5 0 0 1 0 0 0 0 5 64 5 0 0 0 0 0 0 0 0 0 0 0 2 96 60 5 2 15 19 97 88 98 90 75 100 100 100
59 76 90 60 25 3 5 89 0 2 0 5 3 24 5 0 5 5 95 2 0 0 0 0 0 0 0 0 0 0 4 86 79 7 0 0 4 5 6 5 34 86 100 80 86
99 100 100 98 14 2 99 6 0 0 4 5 0 0 0 2 100 5 83 99 2 0 0 0 0 0 0 0 0 0 2 5 37 5 0 0 1 5 90 7 84 100 97 100 94
80 100 99 100 6 14 64 0 0 2 47 7 100 13 59 13 82 69 37 100 100 3 0 0 0 0 0 0 0 0 0 4 40 5 0 0 8 4 52 76 80 97 92 100 99
97 90 82 9 67 98 2 0 0 22 95 31 14 45 99 100 73 100 90 60 77 44 1 0 0 0 0 0 0 0 0 2 10 10 4 1 3 5 31 100 100 100 97 100 100
98 89 45 2 87 68 3 2 1 5 96 22 54 99 83 100 100 96 98 20 6 99 65 3 0 0 0 0 0 0 0 5 5 5 5 6 0 2 5 45 41 100 97 100 100
80 100 98 6 100 1 3 0 2 5 5 97 74 81 100 100 86 41 7 49 100 63 100 99 6 0 0 0 0 0 0 3 5 5 5 4 0 70 6 0 1 100 90 100 100
80 90 100 100 80 5 0 0 0 0 12 5 14 95 100 14 9 36 59 69 100 100 100 100 100 49 4 4 6 0 0 0 4 5 5 5 0 71 47 0 6 1 11 91 100
97 68 76 100 2 5 0 0 0 0 6 4 5 100 60 20 98 100 88 46 72 100 100 100 100 100 99 100 8 0 0 0 0 0 5 4 19 100 12 0 0 3 36 61 100
84 100 100 11 91 0 0 0 0 0 4 7 4 5 62 70 100 96 93 87 5 93 100 100 100 100 100 99 5 1 0 0 0 1 1 0 3 11 3 0 0 0 37 95 72
100 100 100 52 25 4 0 0 0 0 0 48 5 5 0 4 100 100 100 80 14 72 89 100 100 100 100 100 84 84 1 0 0 2 5 5 5 5 0 0 3 3 3 79 100
95 100 93 96 44 10 0 0 0 0 0 5 6 75 1 4 29 99 92 100 40 56 75 71 96 100 100 100 100 100 19 2 0 0 5 5 4 5 2 0 0 1 5 95 87

GFSSW_prec_cloud_090.txt.gz
Cloud_Cover
100 100 100 100 100 100 100 100 100 100 100 44 100 60 73 41 0 8 0 0 0 0 2 0 2 72 100 23 88 99 89 100 100 90 95 79 100 76 15 88 27 8 4 0 10
100 100 100 100 100 100 100 100 100 100 100 100 91 45 68 37 33 0 0 0 0 4 5 0 3 93 100 22 27 20 31 100 100 100 100 94 75 100 79 20 14 16 5 4 0
100 100 100 100 100 100 100 100 100 100 100 100 95 22 39 28 3 0 0 0 0 5 0 0 4 40 38 65 33 8 12 100 100 95 100 100 71 100 100 25 8 40 8 4 5
100 100 100 100 100 100 100 100 100 100 100 100 94 24 10 47 0 0 0 0 0 5 0 0 1 7 10 24 32 5 74 100 100 100 100 100 96 100 99 100 5 7 5 0 5
100 100 100 100 100 100 100 100 100 100 100 100 100 65 3 0 0 0 0 0 0 5 5 4 1 11 26 30 82 93 82 100 100 100 100 100 100 100 100 98 100 5 5 3 0
100 100 100 100 100 100 100 100 100 100 100 100 95 36 0 0 0 0 0 0 0 5 5 5 3 6 80 79 21 56 18 68 100 100 93 99 100 100 100 100 100 85 24 1 5
100 100 100 100 100 100 100 100 100 100 100 100 85 20 0 0 0 0 0 0 0 3 48 5 0 3 45 92 96 37 43 96 100 100 100 100 98 100 77 93 38 8 38 4 0
100 90 100 100 77 100 100 99 56 100 100 100 0 0 0 0 0 0 0 0 0 0 35 5 0 0 5 100 99 56 7 100 100 100 100 100 100 100 100 95 5 5 82 1 1
100 100 100 100 100 100 98 24 27 96 100 88 2 0 0 0 0 0 0 0 0 0 2 5 5 4 0 12 44 99 32 68 97 97 100 100 100 100 100 100 22 6 5 28 99
100 100 100 100 100 100 39 5 0 3 33 1 0 0 0 0 0 0 0 0 0 0 0 1 5 5 2 1 5 100 12 99 95 91 100 100 100 100 100 100 100 68 67 87 64
100 100 100 100 100 100 17 0 0 0 0 0 0 0 0 0 0 0 0 0 0 0 0 0 0 5 5 4 0 0 9 94 100 100 100 100 100 100 100 100 94 68 30 99 92
100 100 100 100 100 97 52 1 0 0 0 0 0 0 0 0 0 0 0 0 0 0 0 0 0 0 5 5 0 0 3 5 85 100 100 100 100 100 100 100 89 52 24 79 84
100 100 100 100 100 63 100 5 5 5 3 0 0 0 0 0 0 0 0 0 0 0 0 0 0 0 0 0 0 0 1 1 48 100 100 100 100 100 100 100 100 98 80 50 74
25 100 100 96 35 100 100 100 100 51 5 4 0 0 0 0 0 0 0 0 0 0 0 0 0 0 0 0 0 0 7 67 92 100 98 100 100 100 100 100 100 100 100 58 5
12 36 100 96 98 100 100 100 100 82 5 25 93 2 0 0 0 5 5 0 0 0 0 0 0 0 0 0 0 0 6 84 83 40 100 100 100 100 100 100 97 100 100 83 16
27 57 100 31 88 100 100 84 95 100 100 100 96 5 0 0 0 4 3 5 0 0 0 0 0 0 0 0 0 0 66 41 95 69 33 83 99 100 89 71 100 100 100 100 100
45 95 88 30 36 100 42 78 9 5 16 10 2 0 4 0 23 0 5 5 1 0 0 0 0 0 0 0 0 0 76 92 46 85 52 26 100 100 100 100 93 100 100 100 100
42 38 17 5 86 10 66 5 6 6 4 1 0 0 0 0 40 84 17 56 71 2 0 0 0 0 0 0 0 0 5 18 12 5 5 2 82 100 98 98 99 100 100 100 99
5 20 5 5 5 8 41 3 0 0 1 10 0 5 3 0 4 17 71 63 72 81 5 0 0 0 0 0 0 0 0 4 5 5 5 2 24 100 53 100 100 100 100 100 100
5 60 5 5 2 5 5 0 0 0 5 37 23 6 14 9 40 84 57 64 100 100 72 2 0 0 0 0 0 0 0 0 4 5 5 4 0 30 83 98 100 100 100 100 100
16 5 22 5 5 4 0 0 0 0 16 85 99 78 83 86 86 100 100 100 100 100 100 46 0 0 0 0 0 0 0 0 0 0 5 4 0 0 0 26 99 100 100 93 100
6 5 5 5 3 4 0 0 0 2 4 54 74 58 99 100 52 96 100 100 100 100 100 100 65 0 0 0 0 0 0 0 0 0 0 5 1 0 0 14 84 100 98 100 97
84 74 54 5 0 2 0 0 0 0 0 4 69 88 100 100 82 99 91 99 100 100 100 100 100 87 1 0 0 0 0 0 0 0 0 3 2 35 25 20 77 100 100 100 100
65 100 82 40 5 0 0 0 0 0 0 5 5 4 95 100 100 100 100 93 91 100 100 100 100 100 99 7 0 0 0 0 0 0 0 0 16 89 40 7 45 45 82 98 100
12 46 5 10 17 10 3 0 0 0 0 5 5 0 68 100 100 100 100 57 94 100 100 100 100 100 100 95 5 0 0 0 0 0 0 0 0 2 22 0 0 9 90 95 99
36 5 5 38 83 31 1 0 0 0 0 15 9 5 45 100 100 75 100 100 98 56 100 100 100 100 100 90 88 42 5 0 0 0 0 0 0 0 5 5 5 7 49 100 100
5 4 15 60 66 19 1 0 1 0 0 3 7 5 2 36 95 100 97 100 99 99 99 100 100 100 99 49 98 56 40 5 0 0 0 0 0 0 4 5 2 0 0 16 42

GFSSW_prec_cloud_093.txt.gz
Cloud_Cover
100 100 100 100 100 100 100 100 100 100 100 100 98 22 96 40 9 0 0 0 0 0 2 0 0 0 85 67 95 90 99 100 93 100 50 45 99 13 1 3 15 1 3 0 39
68 100 100 100 100 100 100 100 100 100 100 97 99 32 98 82 0 0 0 0 0 0 5 0 5 12 68 28 20 3 53 99 97 73 98 17 84 84 6 1 15 5 1 19 24
100 100 100 100 100 100 100 100 100 100 100 79 100 30 8 30 0 0 0 0 0 0 5 0 1 8 87 8 5 9 37 14 100 79 55 45 29 5 90 5 3 5 3 1 0
100 100 100 100 100 100 100 100 100 100 100 100 100 18 11 19 0 0 0 0 0 0 5 0 0 4 28 10 5 46 7 5 88 99 84 100 77 5 85 13 68 5 4 0 0
100 100 100 100 100 100 100 100 100 100 100 100 7 6 0 0 0 0 0 0 0 0 5 5 1 33 10 25 7 5 22 5 10 100 100 100 100 91 48 24 98 5 5 1 0
100 100 100 100 100 100 100 100 100 100 100 100 19 7 0 0 0 0 0 0 0 0 5 5 5 5 2 99 42 6 28 6 19 100 75 70 99 99 42 96 64 39 19 4 0
100 100 100 100 100 99 100 98 100 100 100 100 16 4 0 0 0 0 0 0 0 0 5 5 5 3 5 75 100 83 7 40 42 100 100 100 100 100 100 5 6 79 6 4 0
100 100 100 100 100 100 58 97 100 100 100 99 12 0 0 0 0 0 0 0 0 0 2 5 5 5 5 100 93 99 46 47 17 100 100 100 92 99 100 98 98 5 5 5 0
99 100 100 100 100 42 59 82 78 100 70 13 0 0 0 0 0 0 0 0 0 0 0 5 5 4 5 99 99 100 99 66 100 100 100 100 100 84 100 95 84 49 5 5 5
100 100 100 100 100 100 1 0 13 59 11 0 0 0 0 0 0 0 0 0 0 0 0 1 44 11 5 94 100 100 99 75 100 79 100 100 100 100 100 97 89 96 83 5 5
100 100 100 100 100 100 3 0 0 0 0 0 0 0 0 0 0 0 0 0 0 0 0 0 5 80 97 5 96 100 96 14 95 100 100 100 100 100 100 100 100 100 56 71 93
6 100 100 100 100 100 15 20 14 9 6 4 0 0 0 0 0 0 0 0 0 0 0 0 0 80 36 5 5 89 100 71 75 96 100 100 100 100 100 100 100 97 48 72 45
16 100 100 100 100 25 5 98 99 100 100 99 14 3 0 0 0 0 0 0 0 0 0 0 0 1 78 55 70 10 25 89 61 100 100 100 100 100 100 100 100 88 100 92 8
12 100 100 100 9 1 59 100 100 100 100 100 52 49 3 0 0 0 0 0 0 0 0 0 0 0 1 99 98 96 5 43 76 100 100 97 100 100 100 100 100 87 58 16 50
15 100 100 96 0 1 5 100 100 100 100 100 100 95 5 0 0 0 3 2 0 0 0 0 0 0 0 1 100 100 12 5 6 100 100 100 100 100 100 100 100 100 83 5 6
59 100 99 30 2 0 14 98 100 100 100 100 100 100 24 2 0 0 0 2 2 0 0 0 0 0 0 6 34 30 78 78 71 100 100 100 100 100 100 100 100 100 79 62 54
69 100 75 0 0 0 3 5 27 100 100 100 100 99 21 5 4 0 0 0 3 3 0 0 0 0 0 2 88 96 100 73 74 82 100 100 100 100 100 100 100 100 100 100 24
100 12 10 0 0 0 0 5 75 11 52 100 100 100 100 98 73 0 0 0 5 3 2 0 0 0 0 0 0 48 100 100 23 38 100 100 100 100 100 100 100 100 100 100 93
5 0 5 0 0 0 0 0 4 5 5 10 7 8 94 5 13 5 5 3 6 6 32 0 0 0 0 0 0 0 0 42 89 6 2 97 100 100 100 100 100 100 100 98 89
5 2 5 0 0 0 0 3 3 3 4 86 54 5 9 0 0 5 15 4 66 100 24 15 0 0 0 0 0 0 0 4 92 80 5 4 100 100 100 100 100 100 100 100 100
5 4 5 0 0 0 0 0 0 0 0 24 88 73 15 4 0 38 89 70 75 91 100 100 6 0 0 0 0 0 0 0 10 5 5 5 0 34 100 100 100 100 100 100 100
5 5 5 3 0 0 0 0 0 0 0 4 38 100 10 5 5 5 77 15 71 100 100 100 99 5 0 0 0 0 0 0 0 2 4 1 1 0 1 52 99 100 99 100 100
4 5 2 0 0 0 0 0 0 0 0 0 5 14 96 100 40 90 63 53 74 100 100 100 100 56 4 0 0 0 0 0 0 0 0 0 4 9 48 66 82 100 99 100 100
4 11 5 0 0 5 0 0 0 0 0 0 0 5 90 100 100 100 100 25 100 98 100 100 100 100 60 1 0 0 0 0 0 0 0 0 0 49 53 51 99 100 97 100 100
5 5 2 0 14 13 0 0 0 0 0 0 0 5 34 82 100 100 100 100 39 66 100 100 100 100 100 69 0 0 0 0 0 0 0 0 0 0 6 30 23 88 100 100 100
5 5 0 0 2 8 1 5 0 0 0 0 2 0 0 9 78 100 100 100 100 100 73 100 100 100 100 100 100 0 0 0 0 0 0 0 0 0 14 22 6 57 100 100 100
5 5 5 5 58 5 5 5 0 0 0 0 5 3 2 91 60 100 100 100 100 100 100 96 100 100 100 99 100 100 4 0 0 0 0 0 0 0 18 0 0 10 83 100 100

GFSSW_prec_cloud_096.txt.gz
Cloud_Cover
19 45 31 100 100 100 100 100 100 100 100 37 20 29 24 0 0 0 0 0 0 0 0 0 0 0 6 51 37 70 100 99 62 25 74 9 28 36 70 18 15 0 0 0 7
100 100 84 77 83 100 100 100 100 53 99 46 6 21 19 0 0 0 0 0 0 0 0 0 0 0 52 56 60 86 97 98 90 29 61 40 51 18 16 63 6 0 0 0 4
100 92 99 100 100 100 100 100 100 100 100 51 17 22 1 0 0 0 0 0 0 0 0 0 0 18 29 15 71 88 79 66 100 70 6 5 32 5 46 21 5 0 0 0 0
93 100 100 59 34 100 100 100 100 100 100 62 23 0 0 0 0 0 0 0 0 0 0 0 0 0 13 61 43 88 55 91 94 36 10 31 19 9 13 17 6 5 4 0 0
100 63 100 100 100 100 100 100 100 62 100 64 15 0 0 0 0 0 0 0 0 0 0 0 0 7 89 16 5 79 100 98 100 99 56 76 22 5 61 3 3 2 5 0 0
100 100 99 72 95 100 100 100 100 100 95 7 6 0 0 0 0 0 0 0 0 0 0 0 0 5 36 15 33 79 100 96 100 47 100 98 68 5 10 0 6 1 4 0 0
100 100 100 100 100 100 100 92 68 100 66 74 9 0 0 0 0 0 0 0 0 0 0 0 1 2 6 82 22 88 85 100 100 43 93 96 88 60 4 5 5 6 7 0 0
100 100 100 100 100 100 26 0 86 77 53 5 0 0 0 0 0 0 0 0 0 0 0 2 0 10 5 90 97 100 98 91 79 86 78 81 83 82 86 67 5 4 56 1 0
94 85 60 42 100 100 18 8 95 93 9 0 0 0 0 0 0 0 0 0 0 0 0 4 5 3 0 88 99 100 87 88 98 88 97 100 100 100 99 95 32 0 5 4 0
5 21 30 93 100 100 0 7 26 6 0 0 0 0 0 0 0 0 0 0 0 0 0 1 5 5 2 52 99 100 100 98 62 86 100 100 100 100 100 95 89 12 5 7 4
5 40 100 91 100 82 3 0 4 5 6 5 3 0 0 0 0 0 0 0 0 0 0 0 5 14 60 5 100 100 73 100 100 100 100 100 100 100 100 100 97 62 1 15 6
5 100 100 100 100 32 9 0 0 35 94 100 100 86 6 0 0 0 0 0 0 0 0 0 0 83 39 5 65 100 100 98 93 99 87 100 100 100 100 100 100 88 20 53 62
3 100 100 100 83 22 0 0 2 68 87 100 100 100 52 0 0 0 0 0 0 0 0 0 0 4 78 92 100 100 100 98 80 93 100 100 100 100 100 100 98 99 70 90 51
6 100 100 83 47 0 0 0 1 5 30 100 100 100 92 16 2 0 0 0 0 0 0 0 0 0 16 100 100 100 90 82 89 58 100 100 100 100 100 100 99 81 100 100 100
47 100 100 95 0 0 0 0 5 6 88 87 100 100 100 97 5 0 0 0 0 0 0 0 0 0 0 82 100 97 94 89 21 99 100 100 100 100 100 100 100 98 97 100 94
66 100 99 28 0 0 0 0 2 43 89 10 96 100 100 27 5 0 0 0 0 0 0 0 0 0 0 0 94 58 98 100 55 100 100 100 100 100 100 100 100 96 100 100 100
100 100 58 0 0 0 0 0 3 72 78 68 31 100 100 88 5 3 0 0 0 0 0 0 0 0 0 0 1 81 75 79 91 87 100 100 100 100 100 100 100 100 100 100 97
100 18 5 0 0 0 0 0 0 24 100 100 72 99 100 100 52 5 5 0 0 0 2 0 0 0 0 0 0 3 8 92 98 86 100 100 100 100 100 100 100 100 100 100 100
35 5 1 0 0 0 0 2 0 0 5 36 99 86 100 100 88 5 5 6 3 5 10 5 0 0 0 0 0 0 46 26 80 100 100 100 100 100 100 100 100 100 100 100 100
2 13 0 0 0 0 1 0 0 0 0 1 44 14 100 100 100 98 97 69 100 5 5 31 7 0 0 0 0 0 0 63 29 100 94 100 100 100 100 100 100 100 91 100 100
5 0 0 0 0 0 5 3 0 0 0 1 5 54 10 45 53 100 98 88 12 30 26 15 100 9 0 0 0 0 0 0 5 5 92 98 100 100 100 100 100 99 72 83 99
3 2 0 0 3 0 4 0 0 0 0 1 13 82 5 4 8 100 100 100 10 2 12 96 100 71 0 0 0 0 0 0 0 5 5 97 100 100 100 100 100 100 100 100 94
5 0 0 0 5 1 0 0 0 0 0 2 5 15 18 5 49 44 64 91 8 93 20 82 100 100 53 0 0 0 0 0 2 5 41 27 99 100 100 100 100 100 100 100 100
0 1 0 0 0 0 0 0 0 0 0 0 0 4 100 42 99 70 21 45 86 96 42 85 72 88 100 43 2 0 0 0 0 0 21 99 97 99 100 100 100 100 100 100 100
0 0 0 0 0 0 0 0 0 0 0 0 0 64 87 95 80 95 83 100 97 34 100 99 76 98 100 28 1 4 0 0 0 1 54 99 94 46 6 82 100 100 100 100 100
2 5 0 0 0 1 2 0 5 0 0 0 3 40 32 86 44 95 97 99 100 100 100 100 100 97 100 75 81 0 0 0 0 0 0 1 64 4 0 0 15 37 48 100 100
1 5 5 5 0 3 1 2 0 0 0 0 0 3 1 3 26 80 100 100 100 100 100 91 91 100 99 100 100 90 0 1 0 0 0 2 0 0 0 0 2 36 50 77 100

GFSSW_prec_cloud_099.txt.gz
Cloud_Cover
84 96 96 56 18 16 99 100 100 78 32 6 26 3 3 0 0 0 0 0 0 0 0 0 0 0 38 93 100 100 100 97 100 82 64 19 99 98 42 73 95 79 3 1 1
100 46 50 100 44 37 45 100 100 100 50 27 24 10 8 0 0 0 0 0 0 0 0 0 0 2 92 90 100 100 100 100 94 93 65 33 80 100 62 100 72 22 6 1 0
100 100 100 100 97 93 70 79 100 100 100 12 21 3 0 0 0 0 0 0 0 0 0 0 0 34 81 91 100 59 100 100 100 98 18 17 100 24 98 75 29 3 0 0 6
100 91 100 100 100 100 82 67 98 17 29 17 22 3 0 0 0 0 0 0 0 0 0 0 0 28 19 100 100 100 98 100 100 54 39 100 59 100 40 80 14 7 0 0 2
93 100 100 100 100 100 100 96 22 35 15 8 0 0 0 0 0 0 0 0 0 0 0 0 0 0 100 91 52 100 100 100 100 98 100 94 36 82 100 16 4 8 1 0 20
97 59 74 100 90 78 15 34 10 0 0 0 0 0 0 0 0 0 0 0 0 0 0 0 0 3 100 96 76 92 100 100 100 100 88 95 85 62 60 38 0 5 37 24 44
100 90 74 99 68 81 29 0 4 0 21 5 0 0 0 0 0 0 0 0 0 0 0 0 0 4 80 60 6 5 78 100 100 21 70 99 70 100 5 0 5 16 33 46 69
5 59 30 31 27 96 58 0 0 8 22 0 0 0 0 0 0 0 0 0 0 0 0 0 0 0 98 16 5 16 100 96 100 54 19 100 95 99 13 0 27 37 69 38 38
0 0 5 24 42 21 5 0 9 21 7 0 1 0 0 0 0 0 0 0 0 0 0 0 0 0 13 10 97 95 97 100 100 12 74 96 95 94 84 68 74 74 98 76 54
0 4 2 26 18 0 0 3 2 49 11 0 0 3 0 0 0 0 0 0 0 0 0 0 0 0 15 73 88 87 91 99 94 100 41 98 100 57 80 49 100 92 92 100 29
0 0 13 53 26 0 38 0 0 0 0 0 2 5 94 5 0 0 0 0 0 0 0 0 0 0 5 6 100 79 88 100 100 84 91 100 100 100 100 100 86 100 100 100 100
0 2 40 77 55 2 1 0 0 0 0 2 53 68 92 99 2 0 0 0 0 0 0 0 0 4 63 97 92 100 100 100 100 99 100 100 100 100 100 100 100 100 100 100 100
0 55 70 11 2 33 0 0 0 0 0 0 100 73 45 49 73 1 0 0 0 0 0 0 0 5 80 88 1 94 100 100 100 100 100 94 100 100 100 100 100 100 100 92 100
4 47 69 11 54 0 0 0 0 0 17 19 36 66 100 100 98 83 0 0 0 0 0 0 0 3 72 21 5 95 78 100 100 100 69 100 100 100 100 100 100 100 100 99 88
29 44 56 89 0 0 0 0 0 0 96 7 100 100 9 100 60 100 6 0 0 0 0 0 0 0 0 70 59 98 100 100 100 100 6 100 100 100 100 100 100 100 100 100 98
100 69 31 16 0 0 0 0 0 19 96 32 17 100 100 78 100 98 6 0 0 0 0 0 0 0 0 27 32 92 100 100 100 100 38 57 100 100 100 100 100 100 100 42 100
100 100 49 0 0 0 0 0 60 99 2 56 94 93 100 100 100 100 5 3 0 0 0 0 0 0 0 0 1 19 100 100 100 100 100 95 100 100 100 100 100 100 100 100 100
0 71 1 0 0 0 0 0 97 0 54 3 6 68 100 100 100 100 5 5 0 1 5 0 0 0 0 1 3 0 96 100 100 94 97 100 100 100 100 100 100 100 100 100 100
33 0 2 0 0 0 0 61 74 5 1 2 76 26 100 100 100 100 80 6 5 5 9 64 0 3 0 0 1 2 3 99 100 98 31 96 100 100 100 100 100 100 100 100 100
21 5 5 0 0 0 0 26 3 0 0 1 50 100 97 100 100 100 100 86 100 8 38 100 92 11 2 0 0 1 6 53 100 100 89 100 100 100 100 100 100 100 100 97 100
42 41 2 0 0 0 88 64 0 0 0 0 6 99 91 100 100 100 100 77 100 85 5 100 79 99 9 0 0 0 0 6 99 100 100 100 100 100 100 100 100 100 100 97 100
100 94 0 0 3 5 91 0 0 0 0 0 0 6 100 56 98 100 100 99 6 98 98 11 100 64 64 4 0 0 0 0 5 94 100 100 100 100 100 100 100 100 100 100 100
100 54 0 0 59 61 14 3 0 0 0 0 8 5 49 88 90 100 100 100 99 19 58 91 6 62 100 91 3 0 0 0 4 5 97 100 100 100 100 100 100 100 97 94 100
57 4 0 0 3 5 5 5 2 0 0 0 3 5 98 85 24 26 81 95 100 36 100 85 95 65 89 99 41 0 0 0 1 6 5 86 98 98 97 28 100 100 100 91 97
5 60 14 1 5 5 7 1 0 3 0 0 4 5 66 100 100 74 98 87 67 100 29 100 62 79 100 74 59 44 0 4 5 15 100 100 100 53 90 99 99 100 100 100 100
5 5 2 5 6 5 5 5 0 0 0 1 2 5 5 92 92 75 100 99 99 28 51 100 89 6 99 100 100 100 79 6 4 0 3 100 14 100 34 62 100 100 100 100 100
26 5 5 5 13 5 53 2 0 0 0 0 0 4 71 47 4 16 30 54 100 100 10 5 5 98 79 92 100 98 100 98 100 99 36 91 100 5 13 4 81 100 100 99 100

GFSSW_prec_cloud_102.txt.gz
Cloud_Cover
100 100 100 90 100 70 100 100 99 21 27 24 7 16 1 2 0 0 0 0 0 0 0 0 0 10 97 100 100 100 100 100 100 83 100 54 16 29 29 41 30 94 22 14 1
100 100 100 100 100 92 7 43 100 88 25 27 16 16 0 0 0 0 0 0 0 0 0 0 0 0 91 100 100 100 100 100 100 97 87 86 2 78 79 80 93 87 89 1 60
100 100 95 100 100 82 13 8 16 12 4 3 0 0 0 0 0 0 0 0 0 0 0 0 0 40 100 100 100 100 100 100 95 97 99 87 86 2 93 68 88 0 0 0 54
100 100 100 38 34 76 87 21 13 17 16 0 0 0 0 0 0 0 0 0 0 0 0 0 0 43 100 100 100 100 100 100 99 94 87 47 13 24 6 7 8 8 1 0 37
23 11 2 40 52 26 14 0 1 0 12 8 9 0 0 0 0 0 0 0 0 0 0 0 0 4 100 100 91 100 100 100 100 100 14 55 59 6 32 100 21 3 3 6 52
18 27 14 36 23 12 11 1 0 0 13 3 2 0 0 0 0 0 0 0 0 0 0 0 0 0 73 25 100 78 43 97 100 97 67 88 48 100 100 100 6 5 6 31 79
0 1 13 23 18 21 7 7 13 18 0 1 12 0 0 0 0 0 0 0 0 0 0 0 0 0 0 70 86 10 97 97 11 99 85 5 87 53 4 62 5 6 53 73 84
4 3 4 18 22 3 0 0 4 12 5 9 8 0 0 0 0 0 0 0 0 0 0 0 0 0 14 28 50 43 92 0 18 19 88 100 100 96 7 94 5 32 59 58 76
1 5 28 5 14 0 0 0 0 2 6 0 0 0 0 0 0 0 0 0 0 0 0 0 0 0 0 63 53 44 15 3 13 99 66 40 94 98 37 26 43 96 90 98 98
0 0 0 1 0 0 0 0 0 18 17 0 0 0 0 0 0 0 0 0 0 0 0 0 0 0 0 98 80 97 90 8 4 77 11 58 99 100 80 100 87 99 98 98 54
0 0 0 0 0 0 4 0 0 0 0 0 0 0 0 0 5 1 0 0 0 0 0 0 0 0 0 27 95 47 100 91 62 84 29 12 100 100 69 62 97 100 8 14 99
0 0 1 0 0 0 5 0 0 0 0 0 0 0 72 10 64 10 0 0 0 0 0 0 0 0 5 98 26 38 100 100 100 100 100 100 100 100 100 100 99 19 100 98 93
0 0 0 0 4 33 0 0 0 0 0 2 0 0 91 96 98 97 5 0 0 0 0 0 0 2 5 92 87 100 92 100 100 100 100 100 100 100 100 100 100 100 100 100 85
0 0 0 1 15 0 0 0 0 0 5 75 5 2 94 76 99 100 90 1 0 0 0 0 0 2 92 99 24 100 100 100 100 100 100 100 100 100 100 100 100 100 100 100 100
0 81 1 32 0 0 0 0 0 0 96 3 1 64 100 69 37 69 92 5 0 0 0 0 0 0 12 99 100 98 5 100 100 100 100 100 100 100 100 100 100 100 100 100 77
0 5 98 2 0 0 0 0 0 59 89 81 5 6 100 100 100 79 5 19 2 0 0 0 0 0 0 87 77 100 98 100 100 100 100 100 100 100 100 100 100 100 100 99 100
0 3 73 0 0 0 0 0 70 88 4 100 54 47 99 100 46 100 95 62 3 0 0 0 0 0 0 28 46 100 100 100 100 100 100 100 100 100 100 100 100 100 100 100 99
0 72 0 4 4 0 0 5 100 47 99 2 10 5 72 100 100 100 100 75 30 5 2 0 0 0 0 0 12 100 97 100 100 100 100 100 100 100 100 100 100 100 100 100 100
24 0 4 5 39 0 0 90 62 99 2 0 52 99 100 100 100 100 99 100 64 16 3 93 10 0 0 0 3 100 11 100 100 100 100 100 100 100 100 100 100 100 100 100 100
0 0 6 100 62 0 0 27 97 0 0 0 10 18 100 100 100 100 100 100 100 93 5 97 22 0 3 1 1 23 97 93 100 100 100 100 99 100 100 100 100 100 100 100 100
1 0 100 100 0 0 39 49 16 0 0 0 0 4 17 96 100 100 100 100 52 44 6 72 87 5 72 4 0 0 0 7 86 100 100 100 100 100 100 100 100 100 100 100 100
0 10 83 2 0 0 93 47 0 5 0 0 0 0 1 4 63 100 100 100 98 49 5 27 97 100 77 74 0 0 3 5 5 99 100 100 100 40 100 100 100 100 100 100 100
5 29 8 0 1 98 89 41 0 0 0 0 0 10 4 41 99 100 100 100 100 100 84 0 0 5 44 92 74 0 0 5 3 96 100 100 100 100 100 100 100 100 100 100 100
5 54 23 5 10 76 65 5 5 5 0 0 0 2 0 88 99 100 100 81 99 41 53 9 0 4 87 88 69 66 0 5 5 28 100 100 92 10 100 100 66 27 100 100 100
5 92 94 100 38 13 5 18 13 5 2 0 0 1 5 100 85 100 85 19 52 39 67 47 4 5 97 34 82 10 58 0 5 0 30 93 98 3 46 99 95 95 100 100 100
100 93 100 100 100 73 5 5 5 8 0 5 2 5 1 12 57 98 88 100 96 4 22 68 5 39 0 4 4 6 70 2 3 5 81 4 1 5 3 100 98 100 100 100 100
100 100 100 100 100 74 92 99 42 48 2 0 0 0 7 52 38 100 76 100 30 69 69 20 81 21 17 81 74 100 100 100 44 0 18 100 16 5 2 100 100 98 42 100 100

GFSSW_prec_cloud_105.txt.gz
Cloud_Cover
100 100 100 100 100 100 35 17 14 12 29 19 22 4 1 0 0 0 0 0 0 0 0 8 100 100 100 100 100 100 100 100 100 100 100 52 100 26 62 71 0 5 7 0 0
82 41 22 8 33 100 86 46 21 10 20 20 12 4 2 0 0 0 0 0 0 0 0 0 38 92 100 100 100 97 100 100 100 100 98 100 100 13 17 97 99 67 0 0 0
100 99 85 97 39 5 3 20 33 27 27 33 27 27 0 0 0 0 0 0 0 0 0 0 19 98 100 100 100 100 100 100 100 100 100 77 7 29 99 45 100 41 0 0 0
30 8 8 10 19 27 22 13 6 14 7 30 24 16 0 0 0 0 0 0 0 0 0 0 0 5 100 100 100 97 100 100 100 100 100 90 6 93 17 63 4 0 0 99 30
19 26 29 24 22 18 19 20 2 0 14 27 26 2 0 0 0 0 0 0 0 0 0 0 0 0 100 100 100 100 100 100 100 100 100 99 9 0 97 6 24 0 34 10 27
0 2 12 24 26 31 32 0 0 8 23 26 23 0 0 0 0 0 0 0 0 0 0 0 0 0 81 99 100 100 83 100 100 100 100 100 81 20 98 87 12 0 0 83 95
0 8 17 26 31 28 13 0 0 21 19 13 21 0 0 0 0 0 0 0 0 0 0 0 0 0 0 47 99 100 100 100 100 100 100 100 42 40 13 28 56 3 2 100 94
0 0 10 20 33 21 0 0 0 0 24 24 22 0 0 0 0 0 0 0 0 0 0 0 0 0 0 74 63 27 6 94 100 100 100 100 100 50 34 100 66 17 9 100 16
0 0 0 7 0 0 0 0 0 0 14 0 0 0 0 0 0 0 0 0 0 0 0 0 0 0 0 0 86 80 4 13 96 100 100 100 100 100 91 8 5 42 4 100 11
0 0 0 0 0 0 0 0 0 0 0 0 0 0 0 0 0 0 0 0 0 0 0 0 0 0 0 4 5 34 45 67 98 100 100 100 100 100 99 100 97 6 28 88 6
0 0 0 0 0 0 0 0 0 0 0 0 0 0 0 0 0 0 0 0 0 0 0 0 0 0 0 4 5 5 87 100 98 100 100 100 100 100 92 80 38 5 5 100 45
0 0 0 0 0 3 50 0 0 0 0 0 0 0 0 0 0 1 0 0 0 0 0 0 0 0 0 65 100 34 71 100 90 100 100 100 100 100 100 97 100 100 89 96 56
0 0 14 0 9 33 0 0 0 0 0 0 0 0 0 0 0 25 4 5 0 0 0 0 0 0 2 85 75 100 89 89 100 100 100 100 100 100 100 100 99 81 80 28 100
0 0 0 83 9 0 0 0 0 0 0 1 0 0 0 0 19 66 90 99 5 0 0 0 0 0 13 64 56 100 100 96 100 100 100 100 100 100 100 100 100 99 100 100 33
0 0 0 72 0 0 0 0 0 0 0 0 0 0 0 2 68 99 87 100 26 0 0 0 0 0 1 100 6 99 100 100 100 91 100 100 100 100 100 100 100 100 85 100 99
0 0 38 0 1 0 0 0 0 3 0 85 5 0 0 61 73 100 100 100 80 2 0 0 0 0 4 95 80 9 100 100 100 94 100 100 100 100 100 100 100 100 90 100 100
0 0 85 0 0 0 0 24 1 3 61 76 1 18 1 32 92 100 50 100 82 1 0 0 0 0 11 89 96 5 90 100 100 100 100 100 100 100 100 100 100 100 100 100 100
0 8 0 0 0 1 98 6 91 2 86 94 0 19 97 92 100 100 100 100 100 5 0 0 0 0 0 2 40 0 60 100 100 100 100 100 100 100 100 100 100 99 46 86 100
1 0 0 0 0 96 21 5 5 2 6 0 0 60 38 39 100 100 100 100 100 100 8 8 49 16 0 0 0 1 4 100 100 100 100 100 100 100 100 100 100 99 96 96 100
0 0 0 0 1 4 0 0 6 12 0 0 0 44 61 97 100 100 100 100 98 71 99 5 1 5 0 1 0 8 12 14 100 100 100 100 100 100 100 100 100 100 100 100 100
2 0 0 0 0 0 0 32 28 14 0 0 1 0 48 7 54 100 100 95 100 98 80 12 6 52 5 28 0 5 0 5 100 100 100 100 100 100 100 100 100 100 100 100 100
0 0 0 0 3 3 9 68 43 5 0 0 5 0 0 63 21 100 100 100 90 100 5 2 5 7 9 97 6 0 1 2 6 100 100 100 100 100 100 98 95 100 100 100 100
5 5 3 2 4 16 96 84 99 26 0 6 66 2 0 5 73 3 100 100 100 100 94 5 16 8 31 54 100 16 0 0 0 100 100 100 100 100 100 68 80 100 100 100 100
5 20 14 9 39 96 58 100 100 8 39 83 99 5 0 29 4 0 14 100 81 86 100 89 14 64 76 56 11 39 18 1 0 71 100 100 100 87 60 6 18 100 100 100 96
54 20 92 100 100 88 100 100 98 38 75 94 91 23 60 86 53 41 100 100 100 92 100 100 99 99 100 99 100 12 11 80 2 0 100 100 100 82 88 79 6 100 100 100 100
100 100 100 100 100 65 96 100 91 5 94 16 100 43 36 64 16 100 100 100 100 99 100 100 100 62 5 50 72 20 100 35 2 0 100 100 100 100 100 98 83 100 100 100 100
100 100 100 100 100 62 94 77 93 100 100 25 100 15 8 31 5 98 100 100 100 91 100 95 12 6 7 6 8 100 32 80 5 2 84 69 99 76 100 100 100 100 100 100 100

GFSSW_prec_cloud_108.txt.gz
Cloud_Cover
98 45 13 18 49 11 92 100 74 37 58 58 44 48 27 2 0 0 0 0 0 0 0 39 100 100 100 100 100 100 100 100 100 100 100 100 100 82 36 93 23 66 0 0 0
88 76 96 67 100 45 23 11 26 84 76 33 87 48 22 0 3 0 0 0 0 0 0 3 98 100 100 100 100 100 100 100 100 100 100 100 100 43 17 10 0 95 0 0 0
44 80 54 78 53 13 51 34 29 32 28 44 31 24 11 0 0 0 0 0 0 0 0 2 73 100 58 100 100 99 100 100 100 100 100 100 100 62 28 10 60 87 0 0 1
17 12 34 74 97 55 46 22 60 37 27 34 27 9 0 0 0 0 0 0 0 0 0 0 59 96 55 100 100 100 100 100 100 100 100 100 100 45 54 87 36 8 0 0 0
12 10 18 20 70 89 99 50 23 20 25 19 22 6 2 0 0 0 0 0 0 0 0 0 2 71 77 100 100 100 100 100 100 100 85 100 100 100 78 26 18 1 0 0 0
4 17 17 34 94 59 69 26 5 20 27 18 14 3 2 0 0 0 0 0 0 0 0 0 2 33 67 70 100 100 83 100 100 100 100 100 100 100 25 8 5 2 0 0 0
0 0 0 20 18 20 18 3 0 1 28 32 2 0 0 0 0 0 0 0 0 0 0 0 0 5 5 74 100 100 100 100 100 100 100 100 100 100 86 54 7 5 0 31 30
0 0 0 14 18 0 0 0 0 2 19 33 9 0 0 0 0 0 0 0 0 0 0 0 0 25 1 4 100 100 100 100 100 100 100 100 100 100 52 45 69 39 5 15 2
0 0 0 3 11 0 0 0 4 0 14 0 1 0 0 0 0 0 0 0 0 0 0 0 0 0 5 4 82 100 73 100 100 100 100 100 100 89 94 76 93 50 38 85 30
0 0 0 0 3 0 0 0 0 0 0 0 0 0 0 0 0 0 0 0 0 0 0 0 0 0 0 0 3 48 76 100 100 100 100 100 100 100 100 100 100 85 25 85 100
0 0 0 18 11 0 2 0 0 0 0 0 0 0 0 0 0 0 0 0 0 0 0 0 0 0 0 0 80 94 30 31 100 100 100 100 100 100 100 90 100 5 60 100 100
0 0 0 0 0 82 80 0 0 0 0 0 0 0 0 0 0 0 0 0 0 0 0 0 0 0 0 0 87 58 8 73 100 100 100 100 100 100 100 100 100 100 64 5 87
0 0 0 0 0 34 0 0 0 0 0 0 0 0 0 0 0 0 0 0 0 0 0 0 0 0 0 1 3 5 100 97 75 97 100 100 100 100 100 100 100 100 72 5 7
0 0 0 79 0 0 0 0 0 0 0 0 0 0 0 0 0 0 0 0 0 2 2 0 0 0 1 6 30 13 52 66 100 93 100 100 100 100 100 100 100 100 79 73 100
0 0 0 54 11 0 0 0 0 0 0 0 0 0 0 0 0 0 0 6 44 49 6 3 0 0 1 14 85 8 20 72 68 92 100 100 100 100 100 100 100 100 99 88 94
0 0 14 1 8 0 0 0 0 4 2 2 0 0 0 0 0 0 5 95 84 45 100 52 0 0 0 5 74 5 5 75 100 94 83 100 100 100 100 100 100 100 100 100 94
0 0 69 0 0 0 0 0 3 3 2 2 1 0 1 4 1 1 68 100 100 100 100 98 0 0 2 5 5 18 5 81 100 84 87 99 100 100 100 100 100 100 100 100 100
0 14 2 0 4 0 0 0 2 0 0 0 2 0 94 5 46 76 99 100 100 100 100 100 1 16 5 4 4 5 38 75 100 64 89 100 100 100 100 100 100 97 100 100 100
3 0 0 0 0 0 0 2 5 0 5 6 4 0 0 5 41 30 100 100 100 100 100 100 12 58 65 5 2 0 3 74 100 32 100 100 100 100 100 100 90 60 99 100 100
6 0 0 0 2 0 4 5 8 5 3 99 9 0 5 57 23 17 97 100 100 76 5 90 5 0 3 69 1 0 0 3 100 90 100 100 100 100 100 100 100 92 99 100 100
0 0 3 3 3 5 5 5 11 39 63 100 1 0 18 5 13 99 62 100 100 100 18 56 0 2 2 0 0 0 0 4 5 50 100 100 100 100 100 93 100 100 100 100 100
5 5 5 5 5 5 80 98 100 100 100 100 2 0 11 11 9 3 37 100 100 100 100 92 1 100 15 79 0 0 0 87 32 52 100 100 100 100 100 100 6 97 98 100 100
5 5 7 5 5 83 100 100 100 100 100 100 3 3 96 5 3 0 0 81 100 100 100 82 52 96 100 100 45 14 22 96 26 18 100 100 100 100 100 77 44 96 97 79 98
71 57 83 100 100 89 100 100 100 100 100 98 5 5 2 5 0 0 0 1 75 100 100 100 100 65 100 62 7 4 0 23 48 5 29 100 100 100 100 100 84 80 100 96 100
5 8 95 100 100 100 100 100 100 100 90 98 74 96 51 0 2 0 0 4 2 18 100 100 100 63 25 9 59 83 53 0 1 0 100 100 100 100 100 98 100 100 100 100 100
90 42 100 100 100 100 100 100 100 100 24 5 14 100 100 41 0 0 9 5 17 100 100 57 100 98 100 89 64 53 4 0 0 0 100 100 100 100 100 100 100 100 100 100 100
100 15 40 100 100 100 100 100 100 100 99 68 94 100 100 22 1 0 96 11 69 100 100 56 100 94 100 100 100 70 99 78 46 0 10 100 100 100 100 100 100 100 100 100 100

GFSSW_prec_cloud_111.txt.gz
Cloud_Cover
20 28 19 100 95 100 100 81 97 100 100 100 96 66 66 15 0 0 0 0 0 0 0 20 100 100 100 100 90 99 40 100 100 100 77 100 100 99 39 55 0 0 0 0 0
92 81 100 100 100 97 97 100 100 100 100 98 81 58 38 14 3 0 0 0 0 0 0 6 51 51 100 100 100 100 100 100 100 100 100 100 100 100 16 5 0 0 0 0 0
19 26 71 72 100 100 100 100 99 54 100 91 68 98 7 17 0 0 0 0 0 0 0 4 85 6 100 100 100 100 99 100 100 100 98 100 100 35 76 5 5 15 0 0 0
15 19 47 94 100 100 100 100 100 100 34 21 24 26 0 4 0 0 0 0 0 0 0 1 65 6 7 100 100 100 100 99 100 100 100 100 100 100 84 88 5 35 0 0 0
0 6 46 82 86 92 83 100 91 70 90 20 24 22 1 0 0 0 0 0 0 0 0 0 4 95 5 19 100 100 100 98 100 100 99 100 100 100 98 100 14 68 1 0 0
0 1 15 22 23 26 45 14 20 5 22 65 23 10 0 0 0 0 0 0 0 0 0 0 0 10 7 63 99 100 100 74 100 100 100 100 100 100 100 50 78 5 5 0 0
0 0 0 24 22 10 19 1 4 21 25 76 22 4 0 0 0 0 0 0 0 0 0 0 0 2 5 6 79 100 100 99 100 100 100 100 100 100 100 100 82 54 6 3 0
0 0 0 17 21 18 0 0 7 20 31 46 8 0 0 0 0 0 0 0 0 0 0 0 0 0 6 10 74 94 100 100 100 100 100 100 100 100 100 94 99 97 18 2 0
0 0 0 16 18 4 3 16 9 10 14 2 0 0 0 0 0 0 0 0 0 0 0 0 0 0 7 5 10 8 100 100 93 100 100 100 100 100 100 28 100 100 100 57 5
0 0 0 0 4 10 64 0 0 0 2 2 0 0 0 0 0 0 0 0 0 0 0 0 0 0 0 0 2 8 100 100 100 100 100 100 100 100 100 100 94 100 60 14 12
0 0 0 0 0 43 15 0 0 0 0 0 0 0 0 0 0 0 0 0 0 0 0 0 0 0 0 0 0 86 100 100 100 100 100 100 100 100 100 100 85 100 30 6 5
0 0 0 0 3 99 41 0 0 0 0 0 0 0 0 0 0 0 0 0 0 0 0 0 0 0 0 0 0 54 100 93 100 100 100 100 100 100 100 100 100 100 100 100 5
0 0 0 0 0 18 0 0 0 0 0 0 0 0 0 0 0 0 0 0 0 0 0 0 0 0 0 0 4 8 20 95 100 100 100 100 100 100 100 100 100 84 97 98 10
0 0 0 34 0 0 0 0 0 0 0 0 0 0 0 0 0 0 0 0 0 0 0 0 0 0 0 0 6 10 56 100 84 100 100 100 100 100 100 100 100 100 100 100 16
3 0 0 26 0 0 0 0 0 0 0 0 0 0 0 0 0 0 0 0 0 0 0 0 0 0 0 0 67 10 88 94 88 100 100 100 100 100 100 100 100 100 100 80 94
10 29 48 6 0 0 0 0 0 0 0 0 0 0 0 0 0 1 0 0 0 0 20 40 11 0 1 68 5 11 6 58 15 96 100 100 100 100 100 100 96 100 98 96 91
11 47 87 0 0 0 0 0 0 0 0 0 0 0 1 5 0 3 5 0 0 28 100 100 89 88 26 13 5 2 2 4 2 59 100 100 100 100 100 100 85 100 98 100 69
38 48 4 4 0 0 0 0 0 0 0 0 0 0 78 75 0 0 11 69 2 30 98 82 85 100 100 53 5 5 0 4 5 100 48 100 100 100 100 100 100 87 100 100 96
10 0 0 0 0 0 0 0 0 0 0 0 2 10 49 92 2 0 5 5 5 75 100 100 95 83 98 30 4 24 2 31 5 77 67 100 100 100 100 100 100 100 100 100 100
3 4 5 1 0 0 2 5 0 3 4 19 10 100 14 96 5 5 2 20 14 98 100 100 99 56 42 5 0 3 100 44 5 98 64 100 100 100 100 100 100 100 100 100 100
5 5 0 5 5 3 3 5 5 58 75 100 12 6 100 94 1 8 5 4 5 70 100 100 100 98 53 4 0 0 0 0 0 18 99 96 100 100 100 100 100 100 100 41 63
5 8 5 5 5 5 5 5 75 100 100 36 5 30 100 85 71 99 99 92 55 87 100 100 100 85 100 68 0 0 2 3 4 11 67 32 100 100 100 100 100 100 100 70 37
5 16 5 5 11 17 91 95 97 100 100 94 100 33 11 4 27 100 100 86 27 100 87 100 100 100 100 65 55 43 5 0 0 5 4 10 100 100 100 100 100 72 100 85 72
34 67 95 44 100 63 100 100 100 100 100 6 100 100 12 5 57 100 69 0 83 57 100 100 100 100 100 76 41 4 5 3 1 5 0 11 93 100 100 100 100 100 100 99 98
87 22 41 97 100 16 88 100 100 100 100 98 93 27 5 5 69 42 0 0 3 2 46 100 100 100 100 100 92 76 5 4 0 5 0 0 72 100 100 100 100 100 100 100 100
98 100 58 100 100 28 91 100 80 99 100 100 100 100 34 28 72 29 0 0 0 5 99 100 100 100 100 100 99 97 3 0 0 0 0 0 84 100 100 100 100 90 100 100 97
100 100 70 42 64 96 100 100 91 56 100 75 83 81 55 76 94 0 0 0 4 100 87 80 100 100 100 100 98 19 1 0 0 83 64 20 92 100 100 100 100 100 100 98 93

GFSSW_prec_cloud_114.txt.gz
Cloud_Cover
51 83 81 100 100 100 99 100 100 93 60 100 92 90 100 15 0 0 0 0 0 0 0 0 0 37 100 100 100 100 100 80 100 100 99 100 100 6 1 2 5 5 1 0 1
89 46 99 79 100 100 100 100 95 28 6 32 67 69 14 41 10 0 0 0 0 0 0 0 0 5 93 98 100 100 98 95 100 100 100 100 100 100 9 0 0 2 2 0 0
20 27 93 100 100 100 65 83 97 100 25 20 22 28 30 27 0 0 0 0 0 0 0 0 0 5 30 98 100 97 100 100 100 100 100 100 100 100 100 4 23 2 5 0 0
10 15 24 72 27 22 21 7 28 85 100 24 20 16 17 8 0 0 0 0 0 0 0 0 0 5 83 100 100 100 100 100 100 100 100 96 100 100 68 76 1 0 5 0 0
2 7 17 30 19 15 22 40 9 98 46 28 22 24 4 0 0 0 0 0 0 0 0 0 0 5 5 22 97 100 100 100 100 100 100 92 100 100 100 95 72 0 2 1 3
0 0 2 22 26 17 21 28 28 28 28 31 24 8 0 0 0 0 0 0 0 0 0 0 0 0 5 20 72 98 100 100 100 100 100 97 100 100 100 36 100 4 73 0 5
0 0 0 12 2 14 1 21 29 33 30 33 11 1 0 0 0 0 0 0 0 0 0 0 0 0 3 21 5 6 100 100 100 100 100 99 100 100 100 94 99 7 100 10 5
0 0 0 0 0 7 11 74 68 56 24 25 0 0 0 0 0 0 0 0 0 0 0 0 0 0 0 5 2 5 100 100 100 100 100 100 100 100 100 95 50 1 92 22 4
0 0 0 0 7 12 60 49 15 28 17 0 0 0 0 0 0 0 0 0 0 0 0 0 0 0 0 1 5 25 100 100 100 100 100 100 100 100 72 96 92 4 8 1 0
0 0 0 0 0 26 67 0 0 0 2 0 0 0 0 0 0 0 0 0 0 0 0 0 0 0 0 0 0 1 100 100 100 100 100 100 100 96 56 100 100 96 42 0 0
8 0 0 0 0 78 13 0 0 0 0 0 0 0 0 0 0 0 0 0 0 0 0 0 0 0 0 0 0 0 95 100 100 100 100 100 100 100 100 100 100 100 9 5 0
15 4 0 0 0 0 1 0 0 0 0 0 0 0 0 0 0 0 0 0 0 0 0 0 0 0 0 0 0 0 60 100 100 100 100 100 100 100 100 100 100 100 42 63 7
26 35 17 0 0 0 0 0 0 0 0 0 0 0 0 0 0 0 0 0 0 0 0 0 0 0 0 0 0 0 46 100 100 100 100 100 100 100 100 100 100 87 67 8 5
38 46 45 45 0 0 0 0 0 0 0 0 0 0 0 0 0 0 0 0 0 0 0 0 0 0 0 0 0 0 0 100 100 100 100 100 100 100 100 100 100 98 100 75 5
12 53 78 45 0 0 0 0 0 0 0 0 0 0 0 0 0 0 0 0 0 0 0 0 0 0 0 0 0 0 4 58 100 100 100 100 100 100 100 100 100 88 16 79 49
15 84 98 18 0 0 0 0 0 0 0 0 0 0 0 0 1 4 0 0 0 0 0 0 0 0 0 0 0 1 5 4 100 100 100 100 100 100 100 100 100 95 44 91 83
18 100 98 0 0 0 0 0 0 0 0 0 0 0 0 0 0 0 0 0 0 0 0 0 0 0 0 2 3 4 5 3 1 100 100 100 100 47 100 100 100 100 96 100 99
89 100 8 5 0 0 0 0 0 0 0 0 0 0 0 0 0 1 0 4 0 0 0 0 0 1 5 48 31 43 3 0 0 59 100 100 100 100 100 100 100 100 90 81 100
33 0 0 0 0 0 0 0 0 0 0 0 0 3 8 21 5 0 5 0 0 2 0 0 5 4 15 90 67 5 0 1 2 5 100 100 100 100 100 100 100 100 96 100 100
0 0 0 0 3 2 3 0 0 0 0 0 7 83 100 100 5 2 0 2 1 3 0 0 5 94 72 93 14 87 11 16 5 3 100 100 100 100 100 100 100 100 98 100 99
0 0 0 0 3 5 5 5 0 1 4 5 14 100 100 29 5 5 5 2 5 9 0 0 4 90 91 98 44 100 5 82 32 20 26 100 100 100 100 100 100 100 100 100 100
5 5 5 5 15 6 72 30 7 81 96 5 5 6 74 93 5 5 5 5 21 100 5 1 7 99 100 35 84 98 89 4 74 6 5 81 100 100 100 100 100 100 100 100 100
58 22 44 5 84 75 95 86 100 100 100 43 52 17 95 55 9 65 5 3 36 63 9 5 5 99 87 36 85 41 98 0 80 57 0 5 89 100 100 100 100 100 100 100 100
82 69 53 5 94 82 100 100 100 100 100 100 99 16 100 100 6 5 5 6 41 4 1 3 6 85 100 27 99 100 100 15 92 54 1 33 72 99 100 100 100 100 100 100 100
47 98 49 7 68 100 100 100 100 79 100 100 54 28 100 84 86 5 5 5 49 2 0 1 100 100 100 100 100 100 100 46 13 50 6 93 94 97 100 100 100 100 100 100 100
66 100 82 16 90 81 100 100 100 64 99 98 21 83 97 36 5 5 5 37 4 0 0 2 6 100 100 100 100 100 100 43 0 28 6 23 74 100 100 100 100 100 100 100 100
98 86 62 54 98 94 100 100 99 100 62 96 83 100 100 18 8 5 73 25 0 2 5 30 30 89 96 100 100 100 100 91 0 62 100 29 46 100 100 100 100 100 100 100 100

GFSSW_prec_cloud_117.txt.gz
Cloud_Cover
80 8 80 38 77 32 16 2 13 29 26 6 2 1 4 22 0 0 0 0 0 0 0 0 0 0 89 100 100 100 40 26 80 96 90 97 100 100 35 4 0 0 0 0 0
24 23 21 18 54 21 11 5 2 4 18 28 22 26 19 95 0 0 0 0 0 0 0 0 0 3 23 88 100 100 86 90 80 100 100 55 100 100 44 4 1 0 0 0 0
12 11 51 26 17 33 9 26 9 14 15 25 24 26 20 39 0 0 0 0 0 0 0 0 0 0 1 61 61 100 100 38 99 100 100 99 100 100 97 6 1 0 0 0 0
0 5 14 17 10 7 98 77 51 12 44 27 24 19 3 0 0 0 0 0 0 0 0 0 0 0 0 4 49 100 100 90 94 92 100 99 99 100 100 34 4 5 0 0 0
0 0 1 14 14 18 20 19 16 86 77 31 26 8 0 0 0 0 0 0 0 0 0 0 0 0 0 0 2 96 100 100 99 80 99 63 90 100 100 90 61 92 4 0 0
0 0 0 0 14 19 8 16 30 32 51 26 12 5 0 0 0 0 0 0 0 0 0 0 0 0 0 0 0 89 100 46 99 71 100 51 97 100 100 37 45 100 25 1 0
0 0 0 0 0 9 4 39 100 67 20 29 1 0 0 0 0 0 0 0 0 0 0 0 0 0 0 0 0 5 100 100 100 100 100 93 100 100 100 100 55 9 74 0 0
40 1 0 0 0 0 37 100 98 75 22 16 0 0 0 0 0 0 0 0 0 0 0 0 0 0 0 0 0 0 34 100 100 100 100 100 100 100 100 100 88 70 50 5 0
33 26 0 0 0 0 99 5 6 24 5 0 0 0 0 0 0 0 0 0 0 0 0 0 0 0 0 0 0 0 0 54 100 100 100 96 100 100 100 100 69 100 6 18 0
28 35 25 2 0 29 17 0 0 0 0 0 0 0 0 0 0 0 0 0 0 0 0 0 0 0 0 0 0 0 0 4 100 100 94 99 100 100 99 99 100 100 96 3 5
22 54 61 25 1 5 10 0 0 0 0 0 0 0 0 0 0 0 0 0 0 0 0 0 0 0 0 0 0 0 0 0 99 100 98 37 100 100 99 92 100 97 100 22 5
100 100 97 69 10 0 0 0 0 0 0 0 0 0 0 0 0 0 0 0 0 0 0 0 0 0 0 0 0 0 0 2 45 100 100 100 92 100 97 99 100 100 100 76 11
100 100 100 88 2 0 0 0 0 0 0 0 0 0 0 0 0 0 0 0 0 0 0 0 0 0 0 0 0 0 0 3 4 100 100 99 100 100 100 100 99 100 100 5 12
100 83 100 95 0 0 0 0 0 0 0 0 0 0 0 0 0 0 0 0 0 0 0 0 0 0 0 0 0 0 0 0 6 100 100 87 66 98 100 100 100 100 100 24 93
98 97 100 87 0 0 0 0 0 0 0 0 0 0 0 0 0 0 0 0 0 0 0 0 0 0 0 0 0 0 0 0 3 98 100 100 60 100 100 100 100 100 100 22 100
91 100 98 28 0 0 0 0 0 0 0 0 0 0 0 0 0 0 0 0 0 0 0 0 0 0 0 0 0 0 0 0 0 50 100 100 77 91 100 100 100 100 100 5 63
46 100 97 0 0 0 0 0 0 0 0 0 0 0 0 0 0 0 0 0 0 0 0 0 0 0 0 0 0 0 0 0 1 0 100 100 100 54 100 100 100 100 100 6 6
20 96 4 0 0 0 0 0 0 0 0 0 0 0 0 0 0 0 0 0 0 0 0 0 0 0 0 0 0 0 0 5 4 1 100 100 100 76 100 100 96 100 100 98 21
12 0 0 0 0 0 0 0 0 0 0 0 0 0 0 0 0 0 2 13 8 2 0 0 0 0 0 0 1 3 1 0 1 0 33 100 100 97 100 100 97 100 100 100 100
0 0 0 0 0 0 0 0 0 0 4 2 0 0 0 0 1 5 5 8 43 4 0 0 0 0 0 0 3 0 0 1 1 6 5 100 100 100 100 100 100 100 100 100 98
7 5 5 0 3 5 5 5 5 5 5 5 4 4 5 5 3 3 0 0 2 0 0 0 0 0 0 1 5 25 0 0 2 4 5 93 100 100 95 100 100 100 100 100 64
89 7 5 9 5 5 8 5 5 20 13 39 5 5 5 5 2 5 5 6 54 4 0 0 0 2 1 0 12 79 5 3 5 99 5 80 100 100 100 100 100 100 100 100 100
100 100 100 6 10 12 62 100 15 91 69 31 5 5 7 5 3 5 4 21 27 4 0 0 1 0 7 14 88 5 14 4 2 93 100 100 100 100 100 100 100 100 100 100 100
100 100 100 96 17 22 67 77 46 91 96 100 94 12 5 4 5 5 66 78 5 4 0 5 0 0 13 100 93 31 5 5 18 33 100 88 100 100 100 100 100 100 100 100 100
100 100 100 100 93 95 94 46 59 92 100 100 64 32 6 4 8 9 11 16 5 5 3 9 0 0 5 43 87 8 32 94 78 60 99 56 100 100 100 100 100 100 100 100 100
100 100 100 98 76 100 100 100 100 100 100 100 100 75 5 6 16 5 46 5 5 5 5 0 0 0 7 81 27 100 38 100 100 100 100 89 100 100 100 100 100 100 100 100 100
100 100 100 100 100 100 100 100 100 100 100 100 100 56 12 92 11 5 5 5 1 5 5 0 0 2 4 50 98 33 96 100 100 100 100 100 100 100 100 100 100 100 100 100 100

GFSSW_prec_cloud_120.txt.gz
Cloud_Cover
11 23 8 1 18 26 30 29 27 15 24 25 28 15 22 14 0 0 0 0 0 0 0 0 0 0 0 95 100 100 100 100 79 99 100 100 100 6 0 0 0 0 0 5 4
14 14 19 22 22 10 29 10 30 26 5 19 25 27 17 8 0 0 0 0 0 0 0 0 0 0 0 10 100 100 76 60 94 100 100 100 100 100 22 4 0 0 0 5 0
0 4 8 15 12 18 8 27 25 27 27 17 29 26 4 12 0 0 0 0 0 0 0 0 0 0 0 8 27 100 99 44 77 100 100 100 100 100 100 59 8 0 0 0 0
0 0 3 4 6 6 16 3 12 16 24 3 24 9 2 0 0 0 0 0 0 0 0 0 0 0 1 50 4 84 100 69 40 98 100 100 100 100 82 56 99 5 0 0 0
0 0 0 0 0 4 10 4 2 25 8 21 12 0 0 0 0 0 0 0 0 0 0 0 0 0 0 0 4 33 75 100 8 51 100 100 90 100 100 52 29 51 0 0 2
76 10 0 0 0 0 0 8 22 36 17 19 9 14 0 0 0 0 0 0 0 0 0 0 0 0 0 0 3 7 65 89 27 39 100 69 82 100 100 100 4 85 0 0 0
100 85 4 0 0 0 0 19 100 100 57 5 0 0 0 0 0 0 0 0 0 0 0 0 0 0 0 0 0 0 26 91 68 73 100 82 94 100 100 100 4 98 5 0 0
84 100 51 16 6 2 11 22 61 72 30 0 1 0 0 0 0 0 0 0 0 0 0 0 0 0 0 0 0 5 4 100 49 65 100 100 92 100 100 100 24 51 5 0 6
52 96 81 42 37 16 1 0 0 0 0 0 2 0 0 0 0 0 0 0 0 0 0 0 0 0 0 0 2 1 42 68 49 58 100 95 99 100 100 100 78 99 4 5 0
100 100 100 100 54 28 0 9 4 30 3 0 0 0 0 0 0 0 0 0 0 0 0 0 0 0 0 0 1 5 5 2 100 90 100 99 94 98 100 100 92 42 13 3 0
100 100 100 100 94 12 36 0 0 0 0 0 0 0 0 0 0 0 0 0 0 0 0 0 0 0 0 0 0 0 1 3 0 68 85 100 84 93 100 99 61 100 18 6 5
100 100 100 100 60 1 7 0 0 0 0 0 0 0 0 0 0 0 0 0 0 0 0 0 0 0 0 0 0 0 0 3 0 12 100 88 10 100 92 100 100 98 18 15 69
100 100 100 46 7 34 0 0 0 0 0 0 0 0 0 0 0 0 0 0 0 0 0 0 0 0 0 0 0 0 0 4 1 0 35 100 8 98 83 78 100 100 16 71 30
100 100 100 70 20 0 0 0 0 0 0 0 0 0 0 0 0 0 0 0 0 0 0 0 0 0 0 0 0 0 0 0 0 0 25 100 76 6 86 68 100 100 70 81 93
33 100 100 45 0 0 0 0 0 0 0 0 0 0 0 0 0 0 0 0 0 0 0 0 0 0 0 0 0 0 0 0 0 3 10 70 100 80 52 98 47 100 100 7 100
100 38 96 19 0 0 0 0 0 0 0 0 0 0 0 0 0 0 0 0 0 0 0 0 0 0 0 0 0 0 0 0 0 2 1 44 100 8 51 99 44 100 100 72 54
0 31 93 0 0 0 0 0 0 0 0 0 0 0 0 0 0 0 0 0 0 0 0 0 0 0 0 0 0 0 0 6 4 7 4 3 100 96 54 85 100 100 100 96 5
3 53 0 0 0 0 0 0 0 0 0 0 0 0 0 0 1 0 0 0 0 0 0 0 0 0 0 0 4 0 4 14 100 70 96 3 90 100 30 5 99 100 97 100 53
22 5 3 0 0 0 0 0 0 0 0 0 0 0 0 0 0 0 0 2 0 0 0 0 2 0 0 0 0 32 0 3 83 90 44 74 5 100 98 94 100 100 99 100 70
55 8 5 5 5 0 0 0 0 0 0 0 0 0 0 0 0 0 2 0 0 0 0 3 1 2 0 0 0 6 87 19 5 48 93 100 14 100 100 98 100 100 89 100 78
57 64 61 27 6 5 5 3 0 0 5 5 0 1 3 5 0 0 4 3 4 0 0 1 0 65 0 1 45 33 1 2 92 100 100 100 100 99 100 100 100 100 100 98 100
100 100 100 100 100 78 5 5 5 5 5 5 5 5 5 7 5 5 5 4 0 5 0 2 4 6 93 76 0 2 100 100 98 53 57 54 96 77 100 100 100 100 100 100 100
100 100 100 100 100 75 17 45 5 5 5 5 5 5 5 27 5 5 5 5 5 0 2 2 3 5 9 79 4 0 32 1 35 74 100 100 99 97 100 100 100 100 100 100 100
100 100 100 100 100 100 77 100 87 5 5 5 5 14 9 55 5 5 5 5 5 5 4 37 3 5 6 100 54 99 1 0 0 87 100 100 62 100 100 100 100 100 100 100 100
100 100 100 100 100 84 98 100 100 100 96 16 5 20 11 5 5 24 12 5 0 1 5 7 4 2 0 2 54 100 100 11 2 16 20 100 98 100 100 100 100 100 100 100 100
100 100 100 100 100 100 100 100 99 100 100 98 6 48 79 92 43 100 5 5 0 0 0 1 0 1 1 5 5 7 52 95 28 0 0 95 100 100 100 100 100 100 100 100 100
100 100 100 100 100 100 100 92 100 100 100 98 5 98 100 86 79 10 5 2 3 5 4 1 4 8 18 90 99 100 73 91 85 5 4 87 79 100 100 100 100 100 100 100 100

GFSSW_prec_cloud_123.txt.gz
Cloud_Cover
7 11 18 21 21 23 27 26 26 24 14 2 0 13 0 0 0 0 0 0 0 0 0 0 0 0 5 86 100 100 100 100 100 100 97 100 100 100 5 2 7 9 66 40 0
0 0 1 3 13 20 27 2 20 24 17 16 0 0 0 3 0 0 0 0 0 0 0 0 0 0 5 80 79 100 100 100 98 100 100 100 100 100 53 25 10 60 6 0 0
0 0 0 0 0 0 2 21 7 2 9 7 0 12 0 0 0 0 0 0 0 0 0 0 0 0 12 69 84 100 100 91 43 75 100 100 100 100 74 100 46 2 2 1 40
1 0 0 0 0 0 0 0 5 15 17 1 0 11 0 0 0 0 0 0 0 0 0 0 0 0 43 95 30 83 97 100 43 38 100 100 100 100 97 100 51 0 5 18 97
100 78 16 0 0 0 0 0 0 18 7 1 0 0 2 0 0 0 0 0 0 0 0 0 0 4 100 42 41 69 44 100 65 44 98 100 100 95 100 10 5 0 4 59 100
100 100 99 23 9 0 0 0 9 1 11 1 0 24 0 0 0 0 0 0 0 0 0 0 0 5 49 2 52 100 26 76 94 100 73 100 92 98 100 15 12 0 25 77 100
100 100 100 71 21 12 4 8 8 6 5 2 0 0 0 0 0 0 0 0 0 0 0 0 0 0 5 4 0 24 23 66 100 95 96 100 96 95 100 80 79 18 50 99 99
100 100 100 100 100 46 15 0 0 23 0 0 3 0 0 0 0 0 0 0 0 0 0 0 0 0 1 2 4 4 87 18 57 94 84 100 96 100 100 100 90 100 48 67 100
100 100 100 100 100 100 23 0 0 0 0 1 8 0 0 0 0 0 0 0 0 0 0 0 0 0 0 0 22 15 88 97 8 43 61 100 100 100 99 100 100 93 86 56 100
100 100 100 100 100 77 2 11 2 53 18 0 0 0 0 0 0 0 0 0 0 0 0 0 0 0 1 1 14 86 25 16 63 12 72 84 98 100 100 100 93 60 94 61 86
100 100 100 100 71 0 41 0 0 0 0 0 0 0 0 0 0 0 0 0 0 0 0 0 0 0 0 3 29 2 86 42 77 0 33 93 100 94 68 100 100 84 5 55 98
0 84 98 38 0 4 12 0 0 0 0 0 0 0 0 0 0 0 0 0 0 0 0 0 0 0 0 4 4 0 4 15 31 0 36 30 100 42 11 96 100 100 41 96 64
17 31 48 14 10 20 0 0 0 0 0 0 0 0 0 0 0 0 0 0 0 0 0 0 0 0 0 0 0 0 5 90 86 1 2 100 100 96 7 59 97 100 97 62 42
100 99 3 32 9 0 0 0 0 0 0 0 0 0 0 0 0 0 0 0 0 0 0 0 0 0 0 0 0 0 3 1 5 5 96 100 100 100 25 16 28 100 93 72 100
76 0 6 50 0 0 0 0 0 0 8 0 0 0 0 0 0 0 0 0 0 0 0 0 0 0 0 0 0 0 4 0 5 5 69 86 38 100 94 8 38 35 100 98 66
3 0 31 0 0 0 0 0 0 0 4 0 0 0 0 0 0 0 0 0 0 0 0 0 0 0 0 0 0 0 0 0 5 54 75 5 47 100 100 39 90 70 99 80 85
14 13 40 3 1 0 0 0 0 0 0 0 0 0 0 0 0 0 0 0 1 0 0 0 0 0 0 0 0 0 0 4 65 81 9 21 82 56 100 100 55 100 100 35 100
6 76 5 5 5 5 0 0 0 1 0 0 0 0 0 0 0 0 0 4 0 0 3 0 2 0 0 0 4 0 0 35 100 100 84 100 45 32 90 78 5 8 40 21 98
100 100 66 29 5 5 5 1 0 3 0 0 0 0 2 0 2 0 1 33 5 0 2 5 4 0 0 0 0 39 6 3 95 47 98 51 78 16 11 100 42 75 55 84 82
100 100 100 100 61 10 15 5 4 1 0 0 0 0 5 5 1 1 18 4 5 0 0 5 3 4 5 0 4 10 33 14 27 79 100 100 90 100 0 64 50 84 98 44 100
100 96 100 100 100 100 98 9 5 5 4 0 0 0 0 1 5 21 6 23 0 0 0 4 2 91 4 4 20 36 12 95 100 44 35 90 94 95 99 7 74 100 82 100 100
100 63 100 100 100 100 100 100 100 9 5 5 5 5 5 5 5 5 5 58 72 100 5 45 4 15 95 100 48 91 74 34 93 98 76 84 98 94 45 5 100 99 99 100 100
98 93 100 69 100 100 100 100 100 100 67 5 5 5 5 5 5 5 5 17 5 5 5 5 3 1 7 26 54 44 4 56 100 14 74 29 84 56 85 94 58 100 100 62 100
70 100 100 100 100 100 100 100 100 100 100 36 5 5 5 5 5 5 5 5 5 5 3 3 0 0 0 79 22 8 5 0 19 100 100 54 75 0 100 89 46 100 100 100 100
99 100 88 100 100 100 100 100 100 100 100 99 7 5 8 28 57 10 5 7 5 5 4 5 0 0 1 5 4 5 10 91 97 18 100 98 18 98 99 100 22 100 100 100 100
85 99 95 100 100 100 100 100 100 100 80 92 24 25 64 100 100 100 99 85 62 6 5 5 3 0 0 2 1 0 3 14 100 100 4 5 92 100 100 100 47 100 100 100 100
95 100 100 100 100 100 100 100 100 100 100 100 36 60 63 98 80 98 100 96 22 5 5 5 5 49 98 100 63 48 27 12 94 93 4 28 42 8 100 96 100 100 100 100 100

GFSSW_prec_cloud_126.txt.gz
Cloud_Cover
0 0 0 0 9 11 22 20 17 22 23 10 16 0 0 0 0 0 0 0 0 0 0 0 0 0 0 23 100 100 100 97 100 100 100 75 74 99 85 0 98 99 66 3 5
0 0 0 0 0 0 0 3 12 3 3 6 18 4 13 0 0 0 0 0 0 0 0 0 0 0 0 74 44 100 100 100 100 78 100 100 100 100 55 11 6 71 2 0 1
16 16 8 0 0 0 0 0 0 1 3 4 1 17 3 0 0 0 0 0 0 0 0 0 0 0 4 54 86 85 100 100 100 92 42 100 100 100 100 68 92 0 0 0 0
100 100 100 25 2 0 0 0 0 0 0 0 0 0 1 0 0 0 0 0 0 0 0 0 0 0 97 100 99 15 74 67 97 65 59 98 89 100 100 100 100 3 2 12 2
100 100 100 100 29 17 0 0 0 2 5 0 0 0 0 0 0 0 0 0 0 0 0 0 0 3 100 85 88 61 57 61 100 68 95 73 99 100 100 100 100 0 13 5 82
100 100 100 100 100 38 17 0 3 0 0 0 5 0 0 0 0 0 0 0 0 0 0 0 0 22 100 100 3 78 99 15 99 7 100 71 100 81 92 95 8 5 10 31 17
100 100 100 100 100 100 100 23 12 3 7 0 5 0 0 0 0 0 0 0 0 0 0 0 3 26 6 5 17 51 28 0 70 18 68 80 54 96 100 99 43 18 61 66 5
100 100 100 100 100 100 100 17 6 0 7 0 0 0 0 0 0 0 0 0 0 0 0 0 0 1 27 69 0 29 77 100 94 94 5 16 99 100 100 100 39 58 78 74 10
62 87 100 100 100 100 20 0 0 0 0 1 3 0 0 0 0 0 0 0 0 0 0 0 0 0 1 1 10 24 7 97 100 47 68 5 99 100 100 100 71 17 100 44 48
0 0 5 100 92 70 14 0 0 2 17 0 0 0 0 0 0 0 0 0 0 0 0 0 0 0 0 2 40 84 96 10 46 25 50 77 97 100 100 100 100 100 88 52 0
1 61 2 0 0 10 16 0 0 0 0 0 0 0 0 0 0 0 0 0 0 0 0 0 0 0 0 3 76 31 30 100 34 51 4 100 89 61 79 99 78 100 100 100 13
36 91 0 0 0 8 14 0 0 0 0 0 0 0 0 0 0 0 0 0 0 0 0 0 0 0 0 1 10 58 14 22 3 1 0 42 78 25 79 23 95 100 100 94 99
61 0 0 0 4 19 0 0 0 0 0 0 0 0 0 0 0 0 0 0 0 0 0 0 0 0 0 1 4 5 5 76 99 30 0 0 55 99 100 26 78 83 99 100 100
4 0 0 26 3 0 0 0 0 0 0 0 0 0 0 0 0 0 0 0 0 0 0 0 0 0 0 0 0 0 2 8 99 33 4 4 35 84 100 38 12 65 96 100 88
5 5 5 23 0 0 0 0 0 0 7 0 0 0 0 0 0 0 0 0 0 0 0 0 0 0 0 0 0 0 5 5 3 3 4 35 1 4 99 99 5 98 53 100 99
80 24 10 5 5 3 0 0 0 0 2 0 0 0 0 0 0 0 0 0 0 0 0 0 0 0 0 0 0 0 0 0 0 5 2 10 35 5 72 100 97 82 58 32 94
100 100 100 9 5 5 5 5 0 0 0 2 0 0 0 1 0 0 0 0 0 0 0 0 0 0 0 0 0 0 0 0 3 5 99 70 96 100 11 100 100 73 78 82 94
100 100 100 100 89 5 5 5 5 1 0 2 0 0 0 2 0 0 0 0 0 0 32 17 4 0 0 0 0 0 0 3 82 100 95 99 56 100 83 2 69 100 67 57 36
65 100 100 100 100 100 93 87 5 5 5 31 0 0 0 0 13 1 0 53 91 0 2 38 12 0 0 0 0 0 4 2 5 51 98 100 91 0 4 0 0 82 73 5 46
5 80 100 100 100 100 100 100 82 9 29 5 0 0 4 42 0 0 19 3 51 0 0 12 4 5 1 0 0 0 38 34 3 4 11 22 81 5 58 74 62 78 21 72 60
2 5 80 100 100 98 100 100 100 100 98 5 5 30 4 99 78 46 34 72 2 0 0 0 2 50 4 0 3 49 0 0 14 0 14 39 65 5 5 0 4 4 92 89 98
4 4 5 98 100 100 100 100 100 100 98 72 5 5 5 5 2 0 78 90 18 2 0 5 6 6 31 98 36 1 100 96 60 38 99 8 12 30 100 24 74 0 98 99 78
5 18 34 100 94 100 100 100 100 100 100 98 94 7 60 5 5 5 5 41 5 2 5 1 3 0 0 2 17 20 14 18 54 20 99 83 12 1 14 23 88 60 100 100 99
20 97 99 36 100 100 100 100 100 100 100 100 78 97 100 30 9 17 5 11 6 5 18 5 5 2 1 24 12 58 57 11 8 0 3 84 85 57 86 84 23 10 32 93 100
5 97 100 100 100 100 100 100 100 100 100 100 99 100 86 78 82 7 5 7 5 5 5 5 5 5 0 3 5 0 5 13 8 2 0 27 14 62 100 28 5 4 24 0 94
47 62 58 100 100 100 100 100 100 100 100 100 100 100 100 100 69 100 100 6 6 58 5 5 5 5 5 5 1 0 0 0 0 0 0 0 5 100 45 5 5 0 64 0 1
92 60 74 100 100 100 100 100 100 100 100 100 100 100 100 100 98 97 100 99 85 92 50 44 5 20 5 19 100 85 12 55 4 0 0 0 65 10 90 100 100 100 100 90 82